     2.11           OBSERVATION DATA    G (GPS)             RINEX VERSION / TYPE
teqc 2007Jun25 20080610 12:27:40UTC                         PGM / RUN BY / DATE
MSXP|IAx86-PII|bcc32 5.0|MSWin95->XP|486/DX+                COMMENT
2.10 OBSERVATION DATA G (GPS)                               COMMENT
JPS2RIN 1.40 RUN BY 03-JUN-08 11:55                         COMMENT
build Feb 6 2004 (c) Javad Navigation Systems               COMMENT
Use -p (profile) switch to override ANTENNA TYPE and DELTA  COMMENT
and other fields                                            COMMENT
sfj10418a.jps                                               COMMENT
SE TPS 00000000                                             COMMENT
sfj10418a_AOSG                                              MARKER NAME
OBSERVER AGENCY                                             OBSERVER / AGENCY
8PBGA1WAOSG TPS MAXOR 2.6.0 Apr,18,2007                     REC # / TYPE / VERS
-Unknown- JPSREGANT_SD_E                                    ANT # / TYPE
  1582502.9467 -1933626.4367  5848739.5247                  APPROX POSITION XYZ
        0.0000        0.0000        0.0000                  ANTENNA: DELTA H/E/N
     1     1                                                WAVELENGTH FACT L1/2
     7    C1    P1    P2    L1    L2    D1    D2            # / TYPES OF OBSERV
    30.0000                                                 INTERVAL
Forced Modulo Decimation to 30 seconds                      COMMENT
teqc windowed: start @ 2008 Apr 18 02:24:30.000             COMMENT
  2008     4    18     2    24   30.0000000     GPS         TIME OF FIRST OBS
                                                            END OF HEADER
 08  4 18  2 24 30.0000000  0 13G 3G 6G 7G10G13G16G21G23G24G25G27G29
                                G31
  23455225.543    23455225.4884   23455230.4224  123258010.712 5  96045261.32743
      3298.772        2570.472
  21331894.055    21331893.6404   21331896.4594  112099877.104 8  87350565.51046
       878.831         684.799
  24216535.840    24216535.6384   24216536.9464  127258759.967 5  99162695.48242
      3065.020        2388.331
  24097546.296    24097545.4684   24097550.0754  126633465.576 5  98675442.69842
      1140.681         888.839
  21760665.129    21760665.0484   21760666.7104  114353080.967 7  89106321.05045
        47.269          36.835
  20399542.398    20399541.7564   20399543.8034  107200348.431 8  83532762.80247
      -330.503        -257.537
  24014723.294    24014722.3914   24014724.2784  126198235.735 6  98336304.53442
      2139.227        1666.929
  21930483.688    21930483.0844   21930483.4174  115245487.869 7  89801707.24145
     -2636.395       -2054.337
  23011599.719    23011599.3334   23011602.4754  120926774.655 6  94228692.89043
      -176.621        -137.635
  22783648.729    22783648.3164   22783651.1174  119728897.443 7  93295270.48644
      2097.273        1634.243
  25174229.298    25174228.2394   25174232.6854  132291466.158 4 103084285.32941
      2769.254        2157.833
  23279036.505    23279036.3334   23279039.4904  122332204.584 6  95323788.80344
     -3488.082       -2717.987
  23832268.223    23832268.7474   23832271.1164  125239455.972 6  97589178.85543
     -4138.067       -3224.471
 08  4 18  2 25  0.0000000  0 13G 3G 6G 7G10G13G16G21G23G24G25G27G29
                                G31
  23436415.630    23436414.8854   23436418.9174  123159160.096 6  95968234.75042
      3291.218        2564.569
  21326929.042    21326928.5404   21326931.3564  112073786.448 8  87330235.35746
       860.508         670.516
  24199055.990    24199056.1564   24199057.7024  127166903.791 6  99091119.21442
      3058.657        2383.366
  24091089.443    24091088.9454   24091093.4514  126599535.671 5  98649003.85642
      1121.298         873.742
  21760460.754    21760460.3804   21760462.8234  114352007.307 7  89105484.43345
        24.202          18.860
  20401481.723    20401481.1764   20401483.2344  107210540.218 8  83540704.45447
      -349.030        -271.969
  24002543.134    24002542.6304   24002545.6364  126134230.888 6  98286430.69742
      2127.684        1657.943
  21945588.947    21945588.4524   21945588.6154  115324866.759 7  89863560.95845
     -2655.615       -2069.311
  23012666.605    23012666.5414   23012669.7094  120932386.035 6  94233065.58243
      -197.591        -153.964
  22771709.015    22771708.4574   22771711.0894  119666153.591 7  93246379.16844
      2085.557        1625.115
  25158429.297    25158429.9454   25158433.2214  132208441.630 4 103019590.97941
      2765.552        2154.966
  23298985.340    23298985.0294   23298986.8274  122437030.335 6  95405471.30844
     -3500.376       -2727.559
  23855911.156    23855911.5784   23855914.1374  125363695.333 6  97685988.80443
     -4144.603       -3229.559
 08  4 18  2 25 30.0000000  0 13G 3G 6G 7G10G13G16G21G23G24G25G27G29
                                G31
  23417648.338    23417647.9684   23417651.4694  123060536.396 6  95891385.20342
      3283.647        2558.657
  21322068.735    21322068.2214   21322070.9544  112048246.007 8  87310333.80746
       842.176         656.243
  24181611.989    24181611.9374   24181613.9064  127075237.247 5  99019690.72342
      3052.443        2378.520
  24084743.884    24084742.4614   24084746.6534  126566185.441 6  98623016.77542
      1102.008         858.705
  21760387.886    21760387.5484   21760390.3664  114351625.578 7  89105187.01145
         1.228           0.953
  20403526.910    20403526.2924   20403528.3014  107221286.925 8  83549078.49347
      -367.415        -286.294
  23990429.147    23990428.6354   23990430.1844  126070570.764 5  98236825.49142
      2116.247        1649.024
  21960803.417    21960803.1074   21960802.9554  115404821.344 7  89925863.25045
     -2674.661       -2084.153
  23013853.739    23013853.7294   23013857.2314  120938625.060 7  94237927.28243
      -218.409        -170.192
  22759835.865    22759835.6444   22759838.3694  119603760.710 7  93197761.35244
      2073.932        1616.048
  25142651.918    25142651.7404   25142654.2394  132125525.539 4 102954981.05641
      2762.205        2152.369
  23319002.047    23319001.9514   23319004.5834  122542222.913 6  95487439.49343
     -3512.450       -2736.978
  23879589.755    23879589.9714   23879592.5164  125488127.329 6  97782948.78443
     -4150.890       -3234.458
 08  4 18  2 26  0.0000000  0 13G 3G 6G 7G10G13G16G21G23G24G25G27G29
                                G31
  23398923.392    23398923.6064   23398925.4034  122962136.428 6  95814710.14842
      3276.324        2552.988
  21317312.231    21317311.7494   21317314.5744  112023250.995 8  87290857.25446
       824.195         642.230
  24164203.018    24164203.2344   24164205.6214  126983756.080 5  98948406.76042
      3046.400        2373.801
  24078505.981    24078505.6364   24078509.8264  126533410.399 5  98597477.83642
      1083.071         843.971
  21760445.996    21760445.8424   21760448.0664  114351930.345 7  89105424.50545
       -21.476         -16.732
  20405676.297    20405675.6984   20405677.7484  107232582.223 8  83557879.96947
      -385.521        -300.402
  23978380.009    23978379.4834   23978381.1934  126007251.955 6  98187486.22642
      2105.082        1640.341
  21976126.665    21976126.1224   21976126.2854  115485342.629 7  89988607.07945
     -2693.311       -2098.682
  23015160.113    23015159.3454   23015162.6954  120945486.018 6  94243273.51043
      -238.923        -186.177
  22748029.343    22748028.7684   22748031.5134  119541714.673 7  93149413.81844
      2062.546        1607.174
  25126894.168    25126892.8434   25126897.3344  132042713.279 4 102890452.07741
      2758.893        2149.789
  23339087.670    23339087.9884   23339089.8444  122647773.769 6  95569686.93544
     -3524.134       -2746.077
  23903302.483    23903303.0284   23903305.9814  125612744.010 6  97880052.65543
     -4156.849       -3239.087
 08  4 18  2 26  4.0000000  3  4
SFJ1                                                        MARKER NAME
                                                            MARKER NUMBER
SE TPS 00000000                                             COMMENT
*** THIS IS THE START OF A NEW SITE ***                     COMMENT
 08  4 18  2 26 30.0000000  0 13G 3G 6G 7G10G13G16G21G23G24G25G27G29
                                G31
  23380240.649    23380239.8854   23380243.6484  122863957.315 6  95738207.15142
      3268.866        2547.148
  21312658.674    21312658.3914   21312661.2564  111998797.880 8  87271802.89446
       806.063         628.097
  24146829.833    24146829.8724   24146832.8824  126892457.722 5  98877265.26342
      3040.204        2368.979
  24072378.606    24072378.2664   24072381.5584  126501208.045 5  98572385.11141
      1063.824         828.955
  21760634.318    21760634.0894   21760635.6704  114352917.781 7  89106193.93445
       -44.313         -34.524
  20407929.195    20407928.6274   20407930.6734  107244421.727 8  83567105.60747
      -403.746        -314.610
  23966395.330    23966394.7224   23966396.5894  125944272.301 6  98138411.19742
      2093.685        1631.433
  21991555.798    21991555.1674   21991555.3294  115566424.111 7  90051787.38445
     -2712.060       -2113.292
  23016583.096    23016582.5704   23016586.3214  120952964.877 6  94249101.22443
      -259.618        -202.303
  22736287.585    22736287.3144   22736290.0554  119480012.697 7  93101334.38144
      2050.933        1598.130
  25111154.008    25111153.0594   25111156.5554  131960002.074 4 102826001.83941
      2755.328        2146.996
  23359240.239    23359240.1454   23359242.4854  122753675.789 6  95652207.98843
     -3535.986       -2755.311
  23927051.729    23927051.7204   23927052.4464  125737538.722 6  97977295.03443
     -4162.787       -3243.714
 08  4 18  2 27  0.0000000  0 13G 3G 6G 7G10G13G16G21G23G24G25G27G29
                                G31
  23361600.313    23361599.4084   23361602.5714  122766003.257 6  95661879.30643
      3261.366        2541.308
  21308109.129    21308108.6704   21308111.5904  111974889.275 8  87253172.80746
       787.861         613.916
  24129492.792    24129492.2024   24129494.8914  126801346.152 5  98806269.29742
      3033.953        2364.106
  24066359.332    24066358.7864   24066361.7304  126469581.818 5  98547741.31641
      1044.594         813.977
  21760952.460    21760952.2954   21760953.7774  114354590.450 7  89107497.28945
       -67.166         -52.340
  20410285.968    20410285.3674   20410287.3464  107256806.650 8  83576756.22647
      -421.889        -328.741
  23954475.985    23954475.4524   23954477.7614  125881635.925 6  98089603.70243
      2082.190        1622.481
  22007091.736    22007091.1194   22007091.5274  115648065.200 7  90115403.77345
     -2730.640       -2127.765
  23018123.661    23018123.5454   23018127.3324  120961063.486 6  94255411.85743
      -280.272        -218.393
  22724612.480    22724611.8924   22724614.4694  119418658.525 7  93053525.94444
      2039.341        1589.093
  25095435.184    25095432.9264   25095437.6054  131877395.339 5 102761632.99941
      2751.861        2144.309
  23379459.580    23379459.5584   23379461.8404  122859928.514 6  95735002.34044
     -3547.587       -2764.360
  23950832.673    23950832.9564   23950835.4584  125862511.297 6  98074676.10743
     -4168.704       -3248.330
 08  4 18  2 27 30.0000000  0 13G 3G 6G 7G10G13G16G21G23G24G25G27G29
                                G31
  23343003.113    23343002.0594   23343006.2684  122668275.057 6  95585727.46243
      3253.858        2535.483
  21303662.952    21303662.5344   21303665.5604  111951524.813 8  87234966.74246
       769.725         599.788
  24112189.567    24112189.9954   24112192.0394  126710422.198 5  98735419.45842
      3027.646        2359.207
  24060449.638    24060449.6734   24060453.3744  126438531.934 4  98523546.54941
      1025.210         798.863
  21761400.713    21761400.6524   21761402.1874  114356946.843 7  89109333.40845
       -89.971         -70.110
  20412746.366    20412745.6704   20412747.6424  107269735.595 8  83586830.72147
      -440.034        -342.882
  23942621.614    23942620.6594   23942623.0534  125819343.953 6  98041064.53142
      2070.654        1613.511
  22022733.525    22022732.8114   22022733.0984  115730262.468 7  90179453.62645
     -2749.156       -2142.194
  23019782.630    23019782.1914   23019786.1254  120969780.897 6  94262204.64343
      -300.828        -234.422
  22713003.514    22713002.7574   22713005.4904  119357652.374 7  93005988.68844
      2027.751        1580.068
  25079733.802    25079734.1954   25079737.6284  131794892.845 5 102697345.39541
      2748.326        2141.535
  23399745.165    23399744.9884   23399746.1614  122966527.775 6  95818066.69043
     -3559.083       -2773.302
  23974648.206    23974648.0354   23974650.1194  125987659.086 6  98172193.96243
     -4174.485       -3252.852
 08  4 18  2 28  0.0000000  0 13G 3G 6G 7G10G13G16G21G23G24G25G27G29
                                G31
  23324449.604    23324448.4984   23324452.3934  122570774.393 6  95509753.05343
      3246.118        2529.436
  21299320.390    21299319.8734   21299322.9124  111928704.306 8  87217184.52046
       751.576         585.645
  24094923.220    24094923.1724   24094925.9854  126619686.938 5  98664716.62042
      3021.301        2354.258
  24054651.123    24054651.5974   24054655.0144  126408059.283 4  98499801.63841
      1006.042         783.928
  21761978.996    21761978.8744   21761981.1604  114359986.815 7  89111702.22145
      -112.800         -87.895
  20415309.834    20415309.2154   20415311.1734  107283206.918 8  83597327.83847
      -458.114        -356.970
  23930833.646    23930833.1154   23930835.7994  125757397.510 6  97992794.52742
      2059.023        1604.454
  22038480.235    22038479.6194   22038479.6274  115813011.997 7  90243933.75845
     -2767.541       -2156.521
  23021559.061    23021558.5274   23021562.2724  120979116.350 6  94269478.99043
      -321.546        -250.549
  22701460.581    22701460.0564   22701462.9024  119296995.083 7  92958723.27544
      2016.022        1570.925
  25064053.970    25064053.5864   25064058.3094  131712495.022 4 102633139.32641
      2744.730        2138.764
  23420095.142    23420094.9504   23420097.5364  123073469.661 6  95901398.05744
     -3570.513       -2782.223
  23998495.580    23998494.9214   23998498.0034  126112978.191 5  98269845.26443
     -4180.111       -3257.231
 08  4 18  2 28 30.0000000  0 13G 3G 6G 7G10G13G16G21G23G24G25G27G29
                                G31
  23305938.725    23305938.1874   23305941.8874  122473503.481 6  95433957.67642
      3238.550        2523.555
  21295081.423    21295080.9394   21295083.9544  111906427.932 8  87199826.24646
       733.497         571.559
  24077692.586    24077692.2654   24077694.8204  126529141.420 5  98594161.69742
      3015.028        2349.400
  24048963.969    24048961.9444   24048967.3474  126378165.551 5  98476507.78741
       986.796         768.928
  21762687.724    21762687.7044   21762689.7754  114363710.367 7  89114603.71245
      -135.510        -105.592
  20417976.482    20417975.8324   20417977.7934  107297220.167 8  83608247.26147
      -476.128        -371.008
  23919112.328    23919110.7414   23919113.3444  125695798.025 6  97944794.85842
      2047.523        1595.465
  22054331.282    22054330.7724   22054330.7354  115896310.503 7  90308841.70845
     -2785.743       -2170.715
  23023453.434    23023452.4954   23023456.5964  120989069.082 6  94277234.33043
      -342.116        -266.588
  22689984.350    22689983.5944   22689986.5844  119236687.904 7  92911730.71244
      2004.420        1561.885
  25048394.947    25048393.9714   25048397.9304  131630203.149 5 102569015.84341
      2741.215        2136.004
  23440510.546    23440510.1064   23440512.4304  123180751.271 6  95984994.03843
     -3581.690       -2790.922
  24022373.786    24022374.4884   24022376.9324  126238466.353 5  98367628.20543
     -4185.763       -3261.614
 08  4 18  2 29  0.0000000  0 13G 3G 6G 7G10G13G16G21G23G24G25G27G29
                                G31
  23287472.635    23287472.3164   23287476.4664  122376464.651 6  95358343.08643
      3230.846        2517.549
  21290946.198    21290945.8594   21290948.9104  111884697.506 8  87182893.47446
       715.336         557.401
  24060499.802    24060499.9814   24060502.1184  126438788.590 5  98523756.95342
      3008.656        2344.408
  24043385.159    24043385.3784   24043390.1464  126348852.348 5  98453666.36441
       967.508         753.897
  21763526.778    21763526.7224   21763528.6694  114368118.150 7  89118038.36345
      -158.248        -123.314
  20420746.202    20420745.6734   20420747.6084  107311775.740 8  83619589.25647
      -494.145        -385.052
  23907457.040    23907456.1454   23907458.0594  125634548.950 6  97897068.14142
      2035.900        1586.419
  22070286.851    22070286.0784   22070286.3224  115980156.589 7  90374176.32645
     -2803.885       -2184.847
  23025465.154    23025464.7784   23025468.3384  120999640.090 6  94285471.47944
      -362.574        -282.533
  22678575.532    22678575.0774   22678577.7344  119176733.366 7  92865012.90944
      1992.688        1552.742
  25032755.441    25032755.6454   25032759.0194  131548019.336 5 102504976.55941
      2737.728        2133.296
  23460989.829    23460989.2214   23460991.7824  123288370.523 6  96068853.20043
     -3592.806       -2799.594
  24046285.676    24046285.9184   24046288.8564  126364121.906 6  98465541.66243
     -4191.239       -3265.905
 08  4 18  2 29 30.0000000  0 13G 3G 6G 7G10G13G16G21G23G24G25G27G29
                                G31
  23269051.587    23269051.0714   23269054.9194  122279658.488 6  95282909.76343
      3222.970        2511.404
  21286914.655    21286914.1704   21286917.3444  111863511.533 8  87166384.92846
       697.130         543.216
  24043342.560    24043342.5994   24043345.6394  126348628.625 5  98453502.47043
      3002.066        2339.279
  24037918.293    24037917.7284   24037921.3094  126320119.385 5  98431277.04741
       948.120         738.778
  21764495.421    21764495.3184   21764497.2214  114373208.870 8  89122005.14745
      -181.098        -141.111
  20423618.886    20423618.1894   20423620.1324  107326870.729 8  83631351.52747
      -512.185        -399.105
  23895868.322    23895867.7464   23895870.1074  125573650.959 6  97849615.11542
      2024.048        1577.185
  22086345.455    22086344.7054   22086344.8854  116064545.586 7  90439933.98245
     -2822.020       -2198.973
  23027593.501    23027593.6494   23027597.4174  121010827.372 6  94294188.79644
      -383.178        -298.582
  22667233.059    22667232.9084   22667235.5794  119117131.056 7  92818569.54044
      1980.836        1543.510
  25017136.539    25017136.4974   25017141.0454  131465943.199 4 102441021.20641
      2733.988        2130.373
  23481532.460    23481532.2834   23481534.6994  123396323.098 6  96152972.01844
     -3603.976       -2808.293
  24070228.495    24070228.7634   24070230.9454  126489940.792 6  98563582.36843
     -4196.602       -3270.089
 08  4 18  2 30  0.0000000  0 13G 3G 6G 7G10G13G16G21G23G24G25G27G29
                                G31
  23250675.851    23250674.8104   23250677.4374  122183089.692 6  95207661.48843
      3215.075        2505.245
  21282987.189    21282986.7744   21282989.9154  111842873.131 8  87150303.05846
       678.887         528.998
  24026223.645    24026223.3784   24026226.0604  126258665.647 6  98383401.50543
      2995.534        2334.183
  24032561.991    24032561.7384   24032565.3724  126291970.546 5  98409342.84942
       928.662         723.607
  21765594.519    21765594.4564   21765596.3414  114378985.026 7  89126506.04745
      -203.845        -158.843
  20426594.507    20426593.8504   20426595.7764  107342507.956 8  83643536.39247
      -530.161        -413.111
  23884346.905    23884346.2264   23884349.4614  125513108.527 6  97802439.33343
      2012.226        1567.972
  22102507.216    22102506.7584   22102507.0084  116149477.167 7  90506114.47745
     -2839.982       -2212.978
  23029840.096    23029839.2014   23029844.7244  121022633.806 6  94303388.71043
      -403.759        -314.619
  22655959.528    22655958.7814   22655961.5084  119057885.206 7  92772403.94244
      1969.026        1534.308
  25001540.010    25001539.2984   25001542.8974  131383978.340 5 102377152.53641
      2730.307        2127.517
  23502138.149    23502138.0874   23502140.3494  123504608.109 6  96237349.95043
     -3614.912       -2816.818
  24094202.663    24094202.2674   24094204.9374  126615923.151 5  98661750.43343
     -4201.914       -3274.219
 08  4 18  2 30 30.0000000  0 13G 3G 6G 7G10G13G16G21G23G24G25G27G29
                                G31
  23232344.004    23232343.7874   23232347.5434  122086761.809 6  95132600.82243
      3206.911        2498.896
  21279164.424    21279164.0694   21279167.4354  111822784.620 8  87134649.65746
       660.434         514.623
  24009142.836    24009142.7214   24009144.3884  126168903.590 6  98313457.05643
      2988.711        2328.860
  24027317.690    24027316.5054   24027320.8234  126264409.000 6  98387866.33042
       908.930         708.257
  21766824.384    21766824.4574   21766826.1684  114385448.737 7  89131542.69145
      -226.900        -176.804
  20429673.482    20429672.9544   20429674.9134  107358688.164 8  83656144.23647
      -548.381        -427.310
  23872894.516    23872894.0114   23872896.4584  125452925.165 6  97755543.37143
      2000.124        1558.537
  22118772.454    22118771.6114   22118771.7214  116234950.388 7  90572716.97845
     -2858.115       -2227.102
  23032204.775    23032204.1604   23032208.5704  121035060.532 6  94313071.79943
      -424.585        -330.845
  22644753.471    22644752.9884   22644756.2624  118998999.215 7  92726518.75144
      1956.825        1524.798
  24985964.309    24985964.0214   24985967.5954  131302128.071 5 102313373.20941
      2726.422        2124.501
  23522807.833    23522806.9154   23522809.8314  123613224.756 6  96321986.24743
     -3626.065       -2825.506
  24118206.595    24118207.0274   24118209.6304  126742068.747 5  98760045.58443
     -4207.556       -3278.621
 08  4 18  2 31  0.0000000  0 13G 3G 6G 7G10G13G16G21G23G24G25G27G29
                                G31
  23214059.665    23214059.3434   23214062.2254  121990674.697 6  95057727.66343
      3198.767        2492.553
  21275445.903    21275445.6584   21275448.8934  111803244.005 8  87119423.14046
       642.126         500.360
  23992099.303    23992099.3494   23992100.8324  126079341.583 5  98243668.46642
      2981.960        2323.606
  24022184.511    24022183.6554   24022187.3734  126237433.741 5  98366846.63842
       889.295         692.949
  21768184.727    21768184.7064   21768186.2994  114392597.320 8  89137112.98445
      -249.784        -194.636
  20432855.439    20432854.7674   20432856.6904  107375408.723 8  83669173.23347
      -566.430        -441.375
  23861511.869    23861510.1024   23861512.0004  125393100.611 6  97708926.98143
      1988.053        1549.130
  22135139.143    22135138.6414   22135138.7684  116320960.050 7  90639737.51245
     -2875.971       -2241.009
  23034687.020    23034686.6034   23034690.5704  121048105.072 6  94323236.38143
      -445.168        -346.882
  22633616.192    22633615.5984   22633618.7564  118940471.871 7  92680913.02444
      1944.818        1515.442
  24970409.432    24970408.8934   24970412.5954  131220390.905 5 102249681.94841
      2722.563        2121.467
  23543538.342    23543538.3354   23543540.2474  123722167.487 6  96406876.68543
     -3636.873       -2833.920
  24142241.399    24142242.0194   24142244.2394  126868372.539 6  98858464.03843
     -4212.843       -3282.725
 08  4 18  2 31 30.0000000  0 13G 3G 6G 7G10G13G16G21G23G24G25G27G29
                                G31
  23195821.240    23195820.7444   23195824.7554  121894832.390 6  94983045.42343
      3190.573        2486.162
  21271832.417    21271831.9354   21271835.0494  111784253.815 8  87104625.62346
       623.756         486.046
  23975094.128    23975094.2194   23975096.0864  125989982.885 5  98174038.35742
      2975.188        2318.340
  24017162.817    24017162.5714   24017165.9754  126211047.814 5  98346286.18142
       869.633         677.623
  21769675.552    21769675.3934   21769677.2224  114400432.468 7  89143218.27945
      -272.641        -212.446
  20436140.189    20436139.5284   20436141.5514  107392670.671 8  83682624.16347
      -584.455        -455.420
  23850195.195    23850194.7134   23850196.1784  125333638.412 6  97662592.89143
      1975.977        1539.724
  22151608.265    22151607.4954   22151607.7514  116407504.913 7  90707175.07245
     -2893.732       -2254.860
  23037287.597    23037286.7054   23037290.5244  121061768.775 6  94333883.43543
      -465.823        -362.981
  22622547.666    22622547.1674   22622549.7974  118882306.588 7  92635589.41044
      1932.761        1506.049
  24954878.480    24954877.8274   24954881.2914  131138770.038 5 102186081.31941
      2718.738        2118.493
  23564331.596    23564330.9204   23564333.1364  123831435.419 6  96492020.51643
     -3647.732       -2842.392
  24166307.239    24166307.7114   24166309.6994  126994834.254 6  98957005.59143
     -4218.063       -3286.804
 08  4 18  2 32  0.0000000  0 13G 3G 6G 7G10G13G16G21G23G24G25G27G29
                                G31
  23177630.971    23177630.2514   23177633.9734  121799238.785 6  94908557.00943
      3182.183        2479.621
  21268323.798    21268323.3444   21268326.4104  111765815.962 8  87090258.53046
       605.257         471.621
  23958129.723    23958129.3804   23958131.5724  125900831.325 6  98104569.63643
      2968.132        2312.825
  24012254.627    24012253.3974   24012257.7124  126185253.697 6  98326186.88142
       849.750         662.135
  21771297.484    21771297.4984   21771299.3524  114408955.861 7  89149859.87545
      -295.733        -230.438
  20439528.103    20439527.4494   20439529.4184  107410474.799 8  83696497.59747
      -602.615        -469.571
  23838949.552    23838948.7854   23838950.7524  125274542.217 6  97616543.95043
      1963.695        1530.143
  22168178.824    22168178.3374   22168178.4504  116494583.835 7  90775028.76645
     -2911.625       -2268.800
  23040004.960    23040004.5924   23040009.5594  121076053.043 6  94345014.00643
      -486.614        -379.177
  22611548.822    22611548.4954   22611551.6844  118824506.499 7  92590550.37045
      1920.436        1496.448
  24939368.619    24939368.4934   24939372.5334  131057268.225 5 102122573.42841
      2714.618        2115.271
  23585185.333    23585185.9254   23585188.4464  123941027.133 6  96577416.62743
     -3658.562       -2850.817
  24190401.627    24190401.3954   24190403.8514  127121453.556 5  99055670.01843
     -4223.404       -3290.963
 08  4 18  2 32 30.0000000  0 13G 3G 6G 7G10G13G16G21G23G24G25G27G29
                                G31
  23159486.501    23159486.0954   23159489.9164  121703893.855 6  94834262.19043
      3174.141        2473.361
  21264920.062    21264919.5984   21264922.6504  111747929.232 8  87076320.81046
       587.138         457.509
  23941205.189    23941204.6924   23941206.5034  125811887.315 6  98035262.63343
      2961.501        2307.652
  24007458.892    24007458.3424   24007462.2124  126160051.587 5  98306548.87442
       830.326         647.010
  21773050.634    21773050.4804   21773052.1454  114418166.098 7  89157036.68945
      -318.342        -248.058
  20443018.905    20443018.1784   20443020.1874  107428819.110 8  83710791.90747
      -620.357        -483.401
  23827773.704    23827772.8934   23827774.5224  125215812.618 6  97570780.67043
      1951.608        1520.733
  22184850.152    22184849.5644   22184849.5944  116582192.386 7  90843295.15545
     -2928.975       -2282.315
  23042841.160    23042840.9164   23042845.7934  121090956.114 6  94356626.75744
      -507.012        -395.081
  22600619.439    22600618.8754   22600621.8454  118767071.748 7  92545796.03645
      1908.479        1487.125
  24923881.542    24923881.4084   24923885.6274  130975885.250 5 102059158.12841
      2710.881        2112.369
  23606100.752    23606100.8224   23606103.7274  124050938.470 6  96663061.73943
     -3668.885       -2858.874
  24214526.571    24214526.6464   24214527.4354  127248226.019 6  99154453.80843
     -4228.188       -3294.702
 08  4 18  2 33  0.0000000  0 13G 3G 6G 7G10G13G16G21G23G24G25G27G29
                                G31
  23141390.633    23141389.6014   23141393.2944  121608796.782 6  94760160.55543
      3165.714        2466.772
  21261620.759    21261620.3774   21261623.2254  111730590.926 8  87062810.37846
       568.740         443.176
  23924318.522    23924318.2904   23924320.3604  125723148.979 6  97966115.92343
      2954.461        2302.166
  24002774.880    24002774.1804   24002778.0514  126135439.374 5  98287370.55042
       810.599         631.632
  21774933.185    21774933.0854   21774935.1624  114428059.839 8  89164746.08945
      -341.228        -265.893
  20446611.587    20446611.0314   20446612.9594  107447699.614 8  83725504.02447
      -638.320        -497.395
  23816667.446    23816666.9534   23816668.4274  125157448.679 6  97525302.33743
      1939.288        1511.123
  22201621.274    22201620.7554   22201621.0544  116670324.698 7  90911969.68945
     -2946.530       -2296.002
  23045795.134    23045794.1234   23045798.5294  121106474.421 6  94368718.92143
      -527.582        -411.109
  22589758.901    22589758.5874   22589761.0104  118710000.450 7  92501324.86945
      1896.241        1477.592
  24908417.873    24908416.9604   24908420.7134  130894619.428 5 101995834.17441
      2706.945        2109.290
  23627077.195    23627076.9604   23627078.8354  124161163.012 6  96748950.89343
     -3679.380       -2867.055
  24238678.972    24238678.5844   24238680.5094  127375146.534 6  99253352.93543
     -4233.153       -3298.566
 08  4 18  2 33 30.0000000  0 13G 3G 6G 7G10G13G16G21G23G24G25G27G29
                                G31
  23123342.441    23123341.8834   23123345.9654  121513953.074 6  94686256.46343
      3157.234        2460.166
  21258426.695    21258426.2234   21258429.1564  111713805.089 8  87049730.47146
       550.375         428.865
  23907472.142    23907471.5184   23907473.5744  125634622.433 5  97897134.22343
      2947.405        2296.689
  23998204.847    23998203.3334   23998208.0704  126111421.947 5  98268655.70542
       790.761         616.170
  21776946.429    21776946.1824   21776948.5464  114438640.177 7  89172990.51245
      -364.085        -283.703
  20450307.033    20450306.4354   20450308.3144  107467118.983 8  83740636.01747
      -656.245        -511.358
  23805631.790    23805631.4044   23805632.7984  125099455.581 6  97480112.93743
      1926.961        1501.530
  22218491.817    22218491.2344   22218491.6894  116758981.425 7  90981052.85045
     -2963.873       -2309.510
  23048866.135    23048865.4084   23048868.5874  121122611.312 7  94381293.09743
      -548.153        -427.131
  22578968.630    22578968.4754   22578971.6794  118653297.855 7  92457141.00945
      1884.015        1468.068
  24892976.083    24892976.6664   24892980.6114  130813475.467 5 101932605.17841
      2702.777        2106.033
  23648110.977    23648111.0714   23648113.5334  124271701.502 6  96835084.72143
     -3689.703       -2875.089
  24262858.413    24262858.9574   24262861.3394  127502216.006 6  99352368.17843
     -4237.959       -3302.310
 08  4 18  2 34  0.0000000  0 13G 3G 6G 7G10G13G16G21G23G24G25G27G29
                                G31
  23105342.486    23105341.7494   23105344.5594  121419361.864 6  94612549.16043
      3148.796        2453.614
  21255336.948    21255336.4294   21255339.4854  111697568.601 8  87037078.66046
       532.053         414.585
  23890665.178    23890665.4454   23890667.2664  125546304.978 5  97828315.43042
      2940.429        2291.246
  23993747.548    23993746.1064   23993750.3534  126087996.937 6  98250402.41242
       770.972         600.750
  21779089.678    21779089.5334   21779091.4874  114449903.776 7  89181767.33745
      -386.856        -301.446
  20454104.267    20454103.5664   20454105.5424  107487073.255 8  83756184.81147
      -674.084        -525.261
  23794666.076    23794665.2304   23794667.7204  125041831.945 6  97435211.41043
      1914.625        1491.900
  22235461.276    22235460.7654   22235460.8574  116848155.658 7  91050539.25345
     -2981.123       -2322.948
  23052053.725    23052052.8084   23052056.0044  121139362.581 7  94394345.87743
      -568.648        -443.101
  22568248.547    22568248.3434   22568250.9934  118596961.693 7  92413242.72145
      1871.715        1458.473
  24877558.089    24877557.7504   24877560.8674  130732450.980 5 101869469.24841
      2698.764        2102.939
  23669205.262    23669204.8384   23669207.2624  124382547.831 6  96921458.51743
     -3699.945       -2883.062
  24287066.680    24287067.6584   24287068.1034  127629428.437 6  99451494.81243
     -4242.747       -3306.025
 08  4 18  2 34 30.0000000  0 13G 3G 6G 7G10G13G16G21G23G24G25G27G29
                                G31
  23087391.217    23087390.3234   23087393.7224  121325026.552 6  94539041.21043
      3140.233        2446.928
  21252352.304    21252351.8324   21252354.9374  111681884.395 8  87024857.21146
       513.582         400.191
  23873900.499    23873899.2564   23873901.7804  125458201.621 6  97759663.47742
      2933.196        2285.607
  23989402.651    23989401.1874   23989406.2144  126065167.759 5  98232613.45742
       751.044         585.227
  21781363.618    21781363.4064   21781365.0504  114461853.451 7  89191078.80145
      -409.750        -319.284
  20458003.614    20458002.8804   20458004.8494  107507564.317 8  83772151.88647
      -691.982        -539.211
  23783771.930    23783771.3834   23783773.1784  124984582.603 6  97390601.57843
      1902.071        1482.120
  22252529.274    22252528.6154   22252528.8754  116937847.810 7  91120429.24445
     -2998.331       -2336.366
  23055357.702    23055357.4734   23055362.0874  121156731.259 6  94407880.04143
      -589.235        -459.151
  22557598.599    22557598.1924   22557600.5464  118540996.386 7  92369633.38145
      1859.312        1448.805
  24862163.124    24862162.2674   24862166.2984  130651550.112 5 101806429.67242
      2694.585        2099.663
  23690356.467    23690356.4304   23690358.8014  124493701.525 6  97008071.79243
     -3710.216       -2891.079
  24311301.848    24311301.3664   24311302.6144  127756784.758 5  99550733.49942
     -4247.538       -3309.767
 08  4 18  2 35  0.0000000  0 13G 3G 6G 7G10G13G16G21G23G24G25G27G29
                                G31
  23069488.401    23069487.8264   23069490.5834  121230948.356 6  94465733.66143
      3131.646        2440.247
  21249472.560    21249471.9814   21249474.9954  111666750.688 8  87013064.71346
       495.315         385.960
  23857175.111    23857175.2764   23857177.1924  125370312.019 6  97691178.12343
      2926.046        2280.038
  23985170.691    23985171.2264   23985174.1044  126042933.370 5  98215287.93741
       731.198         569.783
  21783767.783    21783767.5794   21783769.1174  114474486.527 7  89200922.78645
      -432.486        -337.009
  20462004.323    20462003.8434   20462005.8234  107528589.353 8  83788535.01347
      -709.695        -553.006
  23772949.229    23772948.1014   23772949.2974  124927707.183 6  97346283.13843
      1889.606        1472.412
  22269694.041    22269693.8604   22269694.3354  117028052.364 7  91190718.51845
     -3015.282       -2349.567
  23058780.267    23058779.7624   23058784.4004  121174714.061 6  94421892.62843
      -609.675        -475.077
  22547019.307    22547018.8594   22547022.0994  118485400.814 7  92326312.18645
      1846.977        1439.208
  24846791.887    24846791.3034   24846795.1114  130570771.957 5 101743485.68842
      2690.597        2096.566
  23711565.668    23711565.3364   23711568.2194  124605157.317 6  97094920.45643
     -3720.248       -2898.884
  24335563.505    24335563.7284   24335564.7314  127884280.351 6  99650080.73243
     -4252.140       -3313.348
 08  4 18  2 35 30.0000000  0 13G 3G 6G 7G10G13G16G21G23G24G25G27G29
                                G31
  23051634.667    23051634.6814   23051638.4894  121137131.130 6  94392629.41843
      3122.956        2433.469
  21246698.051    21246697.4474   21246700.4054  111652170.321 8  87001703.42546
       476.845         371.566
  23840491.701    23840491.7914   23840493.9704  125282640.450 6  97622862.64743
      2918.773        2274.357
  23981055.213    23981053.3904   23981057.0254  126021297.500 5  98198428.77241
       711.343         554.314
  21786302.444    21786302.0634   21786303.8694  114487805.042 7  89211300.86845
      -455.308        -354.785
  20466107.368    20466106.6804   20466108.7134  107550149.996 8  83805335.48747
      -727.559        -566.927
  23762197.548    23762196.8544   23762199.0664  124871209.789 6  97302259.21843
      1876.972        1462.571
  22286957.206    22286956.4764   22286956.7694  117118768.417 7  91261406.33945
     -3032.304       -2362.830
  23062320.526    23062319.7054   23062323.5204  121193313.312 6  94436385.56544
      -630.193        -491.052
  22536511.361    22536510.7204   22536513.0524  118430179.248 7  92283282.40145
      1834.521        1429.496
  24831443.797    24831444.2834   24831447.6064  130490120.040 5 101680640.07042
      2686.376        2093.271
  23732833.120    23732832.9924   23732835.2934  124716914.744 6  97182004.14343
     -3730.172       -2906.619
  24359851.451    24359851.0094   24359853.3544  128011914.576 6  99749535.94043
     -4256.676       -3316.893
 08  4 18  2 36  0.0000000  0 13G 3G 6G 7G10G13G16G21G23G24G25G27G29
                                G31
  23033832.384    23033831.4804   23033835.1644  121043575.449 6  94319728.94343
      3114.133        2426.585
  21244028.109    21244027.7824   21244030.8774  111638141.841 8  86990772.17946
       458.387         357.181
  23823849.969    23823849.9584   23823852.0274  125195186.953 5  97554717.10343
      2911.399        2268.623
  23977051.269    23977049.6444   23977053.6384  126000259.528 5  98182035.56341
       691.271         538.652
  21788966.461    21788966.4084   21788968.6334  114501807.218 8  89222211.66945
      -478.153        -372.589
  20470311.675    20470311.0684   20470313.0304  107572244.048 8  83822551.65047
      -745.382        -580.818
  23751518.273    23751517.7414   23751519.8414  124815091.269 6  97258530.51043
      1864.251        1452.655
  22304316.109    22304315.6304   22304315.7924  117209991.669 7  91332489.36245
     -3049.217       -2376.004
  23065976.261    23065975.5464   23065979.1664  121212526.819 6  94451357.13844
      -650.675        -507.018
  22526073.445    22526073.0904   22526075.3574  118375331.358 7  92240543.80545
      1821.985        1419.727
  24816119.844    24816119.3124   24816123.8494  130409594.203 5 101617892.70941
      2682.103        2089.946
  23754155.646    23754155.8834   23754157.2934  124828969.494 6  97269319.52543
     -3740.072       -2914.346
  24384164.545    24384164.7344   24384166.3854  128139683.705 5  99849096.26343
     -4261.207       -3320.436
 08  4 18  2 36 30.0000000  0 13G 3G 6G 7G10G13G16G21G23G24G25G27G29
                                G31
  23016079.255    23016078.7194   23016082.1174  120950286.635 6  94247036.48843
      3105.111        2419.555
  21241464.312    21241463.8834   21241466.9144  111624668.628 8  86980273.61346
       439.806         342.702
  23807250.989    23807250.1864   23807252.2444  125107956.469 6  97486745.36542
      2903.987        2262.853
  23973162.143    23973160.0364   23973164.7344  125979824.067 5  98166111.87341
       670.995         522.838
  21791761.396    21791761.2444   21791763.4584  114516495.729 7  89233657.28145
      -501.101        -390.468
  20474617.983    20474617.3454   20474619.3154  107594873.444 8  83840184.93247
      -763.244        -594.732
  23740912.627    23740911.8534   23740914.2624  124759355.906 6  97215100.39143
      1851.460        1442.701
  22321771.989    22321771.3524   22321771.4924  117301722.120 7  91403967.61244
     -3066.162       -2389.215
  23069749.313    23069748.6564   23069752.3464  121232356.814 6  94466809.09043
      -671.331        -523.118
  22515709.037    22515708.4554   22515711.3114  118320861.533 7  92198099.81545
      1809.302        1409.839
  24800821.405    24800820.5384   24800823.4454  130329198.449 5 101555246.68341
      2677.693        2086.525
  23775536.201    23775536.4064   23775537.7684  124941321.496 6  97356866.52943
     -3750.089       -2922.141
  24408504.504    24408504.3164   24408506.1994  128267588.763 5  99948762.49043
     -4265.795       -3323.986
 08  4 18  2 37  0.0000000  0 13G 3G 6G 7G10G13G16G21G23G24G25G27G29
                                G31
  22998378.654    22998378.1134   22998380.5834  120857266.111 6  94174553.09143
      3096.195        2412.610
  21239006.037    21239005.6364   21239008.4944  111611750.233 8  86970207.32846
       421.343         328.318
  23790693.342    23790693.4104   23790695.1214  125020950.386 6  97418948.42142
      2896.454        2256.975
  23969388.304    23969386.4134   23969391.2644  125959991.164 5  98150657.70241
       651.049         507.301
  21794687.412    21794687.2304   21794689.1404  114531869.882 7  89245637.16545
      -523.895        -408.228
  20479025.898    20479025.2774   20479027.2994  107618037.345 8  83858234.71847
      -781.037        -608.599
  23730379.943    23730378.7604   23730380.7654  124704005.592 6  97171970.30143
      1838.509        1432.622
  22339323.918    22339323.1634   22339322.9924  117393956.523 7  91475838.56644
     -3082.851       -2402.221
  23073640.080    23073639.7044   23073643.2124  121252802.713 6  94482740.99743
      -691.752        -539.027
  22505415.424    22505414.9964   22505416.8724  118266771.054 7  92155951.41245
      1796.667        1400.005
  24785548.023    24785546.6524   24785550.2944  130248934.096 5 101492703.00941
      2673.284        2083.082
  23796970.763    23796971.8864   23796973.3924  125053967.534 6  97444642.67043
     -3759.784       -2929.697
  24432869.333    24432868.7214   24432871.7104  128395627.082 5 100048532.55642
     -4270.093       -3327.327
 08  4 18  2 37 30.0000000  0 13G 3G 6G 7G10G13G16G21G23G24G25G27G29
                                G31
  22980728.098    22980728.2174   22980730.8424  120764515.564 6  94102280.01343
      3087.183        2405.591
  21236653.355    21236653.0424   21236656.0004  111599387.121 8  86960573.74846
       402.832         313.896
  23774180.241    23774180.1124   23774181.8224  124934170.273 6  97351327.53542
      2888.896        2251.085
  23965728.054    23965727.0414   23965730.0784  125940761.462 5  98135673.51841
       630.903         491.674
  21797743.670    21797743.5594   21797745.1984  114547929.334 7  89258151.02045
      -546.768        -426.050
  20483535.440    20483534.7924   20483536.7844  107641734.573 8  83876700.03447
      -798.823        -622.455
  23719921.056    23719919.6994   23719922.0164  124649042.491 6  97129141.96443
      1825.616        1422.562
  22356970.539    22356970.0394   22356969.9974  117486691.638 7  91548099.68444
     -3099.516       -2415.206
  23077648.853    23077647.8824   23077651.3184  121273863.680 6  94499152.14544
      -712.357        -555.080
  22495195.064    22495194.7714   22495196.8094  118213061.182 7  92114099.56045
      1783.941        1390.085
  24770298.413    24770298.5064   24770302.5494  130168802.095 5 101430262.52441
      2668.854        2079.594
  23818463.715    23818463.6624   23818465.2934  125166904.444 6  97532645.41843
     -3769.407       -2937.193
  24457260.071    24457259.5834   24457260.6514  128523796.184 6 100148404.58743
     -4274.498       -3330.788
 08  4 18  2 38  0.0000000  0 13G 3G 6G 7G10G13G16G21G23G24G25G27G29
                                G31
  22963131.071    22963130.0564   22963133.0784  120672037.877 6  94030219.48143
      3078.032        2398.482
  21234406.634    21234406.1874   21234409.1494  111587579.902 8  86951373.30546
       384.282         299.441
  23757709.941    23757709.7274   23757711.9964  124847618.717 5  97283884.77343
      2881.201        2245.104
  23962184.451    23962183.9794   23962188.1314  125922136.460 5  98121160.42741
       610.732         475.883
  21800930.176    21800929.9274   21800931.8544  114564674.316 8  89271199.07445
      -569.578        -443.826
  20488146.389    20488145.7304   20488147.7154  107665965.019 8  83895580.88347
      -816.568        -636.287
  23709535.018    23709534.7784   23709536.8894  124594468.734 6  97086617.00543
      1812.623        1412.433
  22374712.012    22374711.7064   22374711.7144  117579924.770 7  91620748.83244
     -3116.034       -2428.071
  23081772.697    23081772.4674   23081776.2324  121295539.463 7  94516042.35044
      -732.796        -571.006
  22485046.078    22485046.0654   22485049.5654  118159733.852 7  92072545.84345
      1771.170        1380.134
  24755076.026    24755075.1834   24755080.0574  130088804.300 5 101367926.60542
      2664.303        2076.104
  23840009.346    23840008.9614   23840011.4004  125280129.986 6  97620873.13843
     -3778.909       -2944.592
  24481672.843    24481673.1584   24481675.4334  128652094.082 5 100248376.99942
     -4278.684       -3334.047
 08  4 18  2 38 30.0000000  0 13G 3G 6G 7G10G13G16G21G23G24G25G27G29
                                G31
  22945584.902    22945584.5014   22945587.4324  120579835.555 6  93958373.54443
      3068.734        2391.229
  21232265.698    21232265.1594   21232268.2194  111576329.037 8  86942606.36146
       365.666         284.934
  23741282.938    23741283.2054   23741285.5264  124761297.681 5  97216621.66943
      2873.507        2239.099
  23958756.649    23958755.1694   23958758.7254  125904117.958 5  98107119.92842
       590.451         460.097
  21804246.776    21804246.6094   21804248.6974  114582104.282 7  89284780.88045
      -592.464        -461.661
  20492858.511    20492857.9174   20492859.9914  107690728.029 8  83914876.73947
      -834.343        -650.139
  23699225.326    23699224.3694   23699226.9164  124540286.584 6  97044397.19643
      1799.465        1402.168
  22392548.454    22392547.8334   22392547.9534  117673653.398 7  91693784.14844
     -3132.591       -2440.982
  23086014.478    23086013.7744   23086018.0844  121317830.111 6  94533411.63643
      -753.307        -586.989
  22474972.341    22474971.7934   22474973.9714  118106790.795 7  92031291.49945
      1758.286        1370.091
  24739878.800    24739877.8464   24739881.8994  130008942.323 5 101305696.54042
      2659.701        2072.509
  23861608.901    23861609.2514   23861612.3284  125393641.354 6  97709323.51443
     -3788.523       -2952.099
  24506111.344    24506111.4184   24506114.4694  128780518.938 5 100348448.32442
     -4282.937       -3337.354
 08  4 18  2 39  0.0000000  0 13G 3G 6G 7G10G13G16G21G23G24G25G27G29
                                G31
  22928092.566    22928092.0044   22928095.1404  120487911.893 6  93886744.70443
      3059.434        2383.985
  21230230.828    21230230.4604   21230233.5414  111565636.486 8  86934274.47046
       347.094         270.463
  23724901.858    23724901.8514   23724903.9734  124675210.435 6  97149540.73543
      2865.625        2232.959
  23955443.453    23955442.9234   23955445.9354  125886707.642 5  98093553.13842
       570.115         444.269
  21807693.837    21807693.7064   21807695.9994  114600220.778 8  89298897.62145
      -615.361        -479.502
  20497672.255    20497671.6744   20497673.7954  107716024.401 8  83934588.19147
      -852.147        -664.014
  23688989.614    23688988.7004   23688991.0234  124486499.146 6  97002484.97243
      1786.250        1391.886
  22410478.164    22410477.5854   22410477.7714  117767875.828 7  91767204.20944
     -3148.952       -2453.729
  23090373.176    23090372.2994   23090376.7724  121340736.498 6  94551260.75543
      -773.865        -603.010
  22464970.592    22464970.2624   22464973.4524  118054235.020 7  91990338.94445
      1745.318        1359.987
  24724707.757    24724707.5674   24724711.1644  129929218.861 5 101243574.37442
      2655.061        2068.882
  23883264.237    23883263.9454   23883266.8904  125507437.723 6  97797996.12443
     -3797.956       -2959.455
  24530573.338    24530573.2894   24530576.5014  128909069.687 5 100448617.71443
     -4287.101       -3340.596
 08  4 18  2 39 30.0000000  0 13G 3G 6G 7G10G13G16G21G23G24G25G27G29
                                G31
  22910653.824    22910653.3224   22910656.1774  120396270.839 6  93815336.08643
      3049.965        2376.597
  21228302.795    21228302.3544   21228305.4254  111555504.144 8  86926379.11646
       328.393         255.890
  23708565.197    23708565.5144   23708566.9144  124589361.050 6  97082645.08543
      2857.680        2226.764
  23952247.493    23952246.3414   23952250.0934  125869909.263 6  98080463.41342
       549.765         428.377
  21811272.126    21811272.1324   21811274.1444  114619024.944 7  89313550.19245
      -638.260        -497.346
  20502587.699    20502587.0664   20502589.1894  107741854.885 8  83954715.82147
      -869.899        -677.838
  23678830.043    23678829.2124   23678830.8984  124433110.273 6  96960883.28043
      1772.909        1381.500
  22428501.768    22428501.4524   22428501.6434  117862590.866 7  91841008.11445
     -3165.346       -2466.499
  23094849.634    23094849.0804   23094852.7454  121364259.724 6  94569590.57143
      -794.414        -619.021
  22455044.343    22455044.0064   22455046.9534  118002069.705 7  91949690.66645
      1732.336        1349.867
  24709563.039    24709563.0694   24709566.8814  129849637.425 5 101181562.90741
      2650.326        2065.182
  23904972.229    23904972.4764   23904975.6264  125621517.522 6  97886889.50143
     -3807.375       -2966.780
  24555059.729    24555059.4134   24555062.7094  129037746.080 5 100548885.01842
     -4291.273       -3343.848
 08  4 18  2 40  0.0000000  0 13G 3G 6G 7G10G13G16G21G23G24G25G27G29
                                G31
  22893269.339    22893268.6764   22893271.7674  120304914.146 6  93744149.06143
      3040.444        2369.168
  21226481.067    21226480.8094   21226483.9084  111545931.992 8  86918920.33646
       309.710         241.330
  23692273.617    23692273.7284   23692275.5144  124503751.023 6  97015935.99342
      2849.665        2220.515
  23949166.969    23949165.5254   23949169.3344  125853723.445 6  98067851.11742
       529.290         412.444
  21814981.382    21814981.1724   21814982.9654  114638516.336 7  89328738.30145
      -661.206        -515.225
  20507604.603    20507603.9254   20507606.0924  107768219.016 8  83975259.32447
      -887.710        -691.725
  23668746.343    23668745.4354   23668748.0964  124380121.733 6  96919593.55543
      1759.597        1371.113
  22446618.883    22446618.2104   22446618.6014  117957795.279 7  91915193.37244
     -3181.635       -2479.196
  23099443.956    23099443.2794   23099446.3284  121388398.732 6  94588400.17644
      -814.881        -634.973
  22445191.954    22445191.7214   22445193.8264  117950296.194 7  91909347.67645
      1719.207        1339.644
  24694447.200    24694445.9774   24694449.5694  129770198.973 5 101119662.87141
      2645.509        2061.425
  23926734.955    23926734.7304   23926737.2054  125735877.539 6  97976001.22343
     -3816.673       -2974.025
  24579570.158    24579570.2364   24579571.8544  129166545.316 5 100649248.01642
     -4295.365       -3347.031
 08  4 18  2 40 30.0000000  0 13G 3G 6G 7G10G13G16G21G23G24G25G27G29
                                G31
  22875939.020    22875938.2504   22875942.0454  120213842.544 6  93673184.18043
      3030.917        2361.750
  21224766.094    21224765.6284   21224768.7914  111536918.894 8  86911897.20746
       291.095         226.827
  23676028.125    23676028.6764   23676030.4484  124418380.973 6  96949413.88643
      2841.632        2214.250
  23946203.164    23946202.1844   23946206.4014  125838149.621 6  98055715.79742
       508.934         396.558
  21818820.745    21818820.6444   21818822.4434  114658693.127 7  89344460.49845
      -683.956        -532.952
  20512722.683    20512721.9274   20512724.0314  107795113.977 8  83996216.45847
      -905.356        -705.475
  23658739.173    23658738.9374   23658740.5384  124327534.217 6  96878616.31843
      1746.216        1360.685
  22464827.926    22464827.4764   22464827.5004  118053484.577 7  91989756.47644
     -3197.687       -2491.711
  23104153.641    23104152.9914   23104157.2524  121413151.378 6  94607687.92644
      -835.303        -650.887
  22435414.516    22435413.9814   22435416.9604  117898914.454 7  91869309.97045
      1706.158        1329.473
  24679358.260    24679357.1144   24679360.6794  129690903.377 5 101057874.11341
      2640.794        2057.763
  23948549.313    23948549.2824   23948551.2094  125850513.463 6  98065327.90943
     -3825.786       -2981.117
  24604102.922    24604102.9314   24604104.5564  129295463.934 5 100749704.08242
     -4299.208       -3350.031
 08  4 18  2 41  0.0000000  0 13G 3G 6G 7G10G13G16G21G23G24G25G27G29
                                G31
  22858663.502    22858663.2014   22858666.6854  120123061.497 6  93602445.67043
      3021.219        2354.197
  21223157.952    21223157.4664   21223160.5764  111528468.083 8  86905312.17746
       272.352         212.222
  23659829.169    23659829.2844   23659831.7684  124333255.672 6  96883082.48343
      2833.407        2207.850
  23943356.199    23943354.8564   23943359.7904  125823191.182 5  98044059.92742
       488.430         380.589
  21822791.207    21822791.1534   21822793.0224  114679557.666 7  89360718.58445
      -706.897        -550.828
  20517942.184    20517941.4264   20517943.4764  107822542.446 8  84017589.28747
      -923.121        -719.310
  23648809.661    23648808.9334   23648810.7334  124275352.608 6  96837955.33143
      1732.638        1350.103
  22483128.997    22483128.4764   22483129.3504  118149658.540 7  92064697.23544
     -3213.806       -2504.264
  23108980.792    23108980.0344   23108984.7984  121438520.777 6  94627456.37643
      -855.850        -666.904
  22425712.348    22425712.0044   22425714.5044  117847929.345 7  91829581.30945
      1692.930        1319.173
  24664296.056    24664296.1674   24664299.6154  129611755.347 5 100996200.32441
      2635.769        2053.855
  23970416.227    23970416.2164   23970418.7204  125965426.024 6  98154870.18743
     -3834.961       -2988.293
  24628658.099    24628657.8634   24628660.4324  129424502.903 5 100850253.88142
     -4303.289       -3353.212
 08  4 18  2 41 30.0000000  0 13G 3G 6G 7G10G13G16G21G23G24G25G27G29
                                G31
  22841444.619    22841444.2904   22841447.0894  120032573.816 6  93531935.74043
      3011.370        2346.521
  21221656.935    21221656.5414   21221659.6064  111520580.493 8  86899166.01446
       253.569         197.585
  23643677.995    23643677.9214   23643680.5234  124248377.785 6  96816943.89043
      2825.138        2201.406
  23940628.323    23940627.0734   23940630.3284  125808850.025 6  98032885.07342
       467.824         364.537
  21826892.449    21826892.5344   21826894.5804  114701110.074 7  89377512.65345
      -729.864        -568.726
  20523263.109    20523262.4234   20523264.4134  107850504.282 8  84039377.73047
      -940.942        -733.204
  23638956.848    23638956.3834   23638958.5374  124223579.425 6  96797612.64643
      1718.924        1339.424
  22501522.027    22501521.8604   22501521.8664  118246315.162 7  92140014.07344
     -3229.859       -2516.775
  23113925.549    23113925.1224   23113929.1444  121464506.235 6  94647704.80343
      -876.443        -682.938
  22416085.824    22416085.5534   22416088.0854  117797342.799 7  91790163.21045
      1679.558        1308.743
  24649264.264    24649263.0154   24649267.2424  129532756.791 5 100934643.04941
      2630.751        2049.922
  23992335.389    23992335.6894   23992338.3864  126080612.874 5  98244626.19643
     -3844.083       -2995.387
  24653235.854    24653235.0404   24653236.1074  129553660.388 5 100950896.07542
     -4307.238       -3356.294
 08  4 18  2 42  0.0000000  0 13G 3G 6G 7G10G13G16G21G23G24G25G27G29
                                G31
  22824281.757    22824281.0214   22824284.2644  119942380.856 6  93461655.49044
      3001.416        2338.764
  21220263.144    21220262.6464   21220265.7524  111513255.709 8  86893458.38446
       234.776         182.939
  23627573.056    23627573.3834   23627575.9714  124163749.079 6  96750999.45243
      2816.753        2194.855
  23938015.576    23938014.6394   23938018.8254  125795126.602 5  98022191.55542
       447.082         348.376
  21831124.571    21831124.3874   21831126.7284  114723349.834 7  89394842.33045
      -752.827        -586.620
  20528685.304    20528684.6874   20528686.7244  107878998.254 8  84061580.82047
      -958.704        -747.044
  23629183.504    23629182.3714   23629184.4724  124172216.588 6  96757589.69443
      1705.204        1328.734
  22520006.197    22520005.9834   22520006.3914  118343450.678 7  92215704.07844
     -3245.838       -2529.222
  23118988.196    23118987.8734   23118991.0194  121491106.895 7  94668432.57443
      -896.998        -698.959
  22406535.831    22406535.3834   22406538.3134  117747156.132 7  91751056.70245
      1666.169        1298.317
  24634258.456    24634259.1844   24634262.4404  129453908.962 5 100873203.22442
      2625.670        2045.973
  24014306.224    24014306.5184   24014309.3404  126196070.693 5  98334593.31742
     -3853.008       -3002.334
  24677835.661    24677835.3984   24677838.3574  129682933.808 5 101051628.59542
     -4310.940       -3359.182
 08  4 18  2 42 30.0000000  0 13G 3G 6G 7G10G13G16G21G23G24G25G27G29
                                G31
  22807174.557    22807173.8104   22807177.0734  119852482.006 6  93391604.46244
      2991.696        2331.201
  21218975.709    21218975.4394   21218978.3524  111506491.035 8  86888187.19846
       216.192         168.462
  23611516.534    23611516.5114   23611518.6104  124079368.595 6  96685248.45643
      2808.577        2188.500
  23935521.445    23935519.6494   23935524.3204  125782018.897 5  98011977.81642
       426.697         332.484
  21835487.113    21835486.9674   21835488.6814  114746273.287 8  89412704.72445
      -775.469        -604.263
  20534208.040    20534207.4084   20534209.4444  107908020.344 8  84084195.42547
      -976.165        -760.648
  23619486.658    23619486.2514   23619488.3754  124121262.700 6  96717885.32043
      1691.637        1318.168
  22538580.561    22538580.3054   22538580.3984  118441059.106 7  92291762.55944
     -3261.450       -2541.394
  23124166.515    23124165.8984   23124169.6344  121518319.205 6  94689637.02243
      -917.232        -714.732
  22397061.038    22397060.6804   22397063.5924  117697367.702 7  91712260.54445
      1653.011        1288.056
  24619282.903    24619282.0954   24619287.2844  129375209.857 5 100811879.28942
      2620.916        2042.236
  24036327.849    24036327.9424   24036330.9954  126311793.874 6  98424767.20143
     -3861.764       -3009.165
  24702456.668    24702456.8784   24702458.4654  129812317.956 5 101152447.31942
     -4314.581       -3362.014
 08  4 18  2 43  0.0000000  0 13G 3G 6G 7G10G13G16G21G23G24G25G27G29
                                G31
  22790123.889    22790123.0404   22790126.5244  119762882.069 6  93321786.37343
      2981.631        2323.347
  21217795.669    21217795.3424   21217798.2684  111500289.364 8  86883354.72446
       197.338         153.766
  23595507.865    23595507.8674   23595509.5314  123995240.748 6  96619694.30643
      2799.939        2181.760
  23933144.754    23933143.2774   23933148.0284  125769530.117 5  98002246.39542
       406.007         316.370
  21839979.935    21839979.8564   21839981.0084  114769882.729 8  89431101.68145
      -798.422        -622.148
  20539831.579    20539831.0114   20539832.9944  107937572.392 8  84107222.99547
      -993.880        -774.454
  23609870.067    23609869.1844   23609870.9724  124070722.535 6  96678503.40743
      1677.717        1307.299
  22557245.523    22557244.5454   22557244.7544  118539140.186 7  92368189.36844
     -3277.237       -2553.691
  23129461.001    23129460.3804   23129464.7374  121546145.148 6  94711319.58743
      -937.767        -730.725
  22387663.460    22387663.1054   22387665.7064  117647981.645 7  91673777.90345
      1639.431        1277.478
  24604336.534    24604335.9464   24604339.3524  129296663.960 5 100750674.74242
      2615.465        2038.025
  24058399.485    24058399.7634   24058402.6444  126427782.237 6  98515147.68243
     -3870.702       -3016.135
  24727098.627    24727098.7974   24727099.9884  129941813.422 5 101253352.87942
     -4318.443       -3365.021
 08  4 18  2 43 30.0000000  0 13G 3G 6G 7G10G13G16G21G23G24G25G27G29
                                G31
  22773130.963    22773130.5254   22773133.9514  119673585.163 6  93252204.46944
      2971.628        2315.568
  21216723.213    21216722.6454   21216725.5484  111494652.371 8  86878962.28746
       178.659         139.208
  23579546.892    23579547.1054   23579549.1694  123911368.646 6  96554339.43743
      2791.626        2175.285
  23930884.808    23930885.3474   23930889.2584  125757662.343 5  97992998.79042
       385.386         300.303
  21844602.716    21844602.8884   21844604.3354  114794178.736 8  89450033.64945
      -821.166        -639.869
  20545556.255    20545555.5724   20545557.4864  107967654.988 8  84130663.98747
     -1011.441        -788.134
  23600332.104    23600330.9064   23600332.6774  124020599.105 6  96639446.20143
      1663.947        1296.585
  22575998.656    22575998.2324   22575998.7084  118637692.359 7  92444983.27244
     -3292.721       -2565.759
  23134873.222    23134872.4894   23134876.7124  121574585.453 6  94733480.83743
      -958.068        -746.542
  22378342.930    22378342.7604   22378345.2004  117599001.141 7  91635611.30045
      1626.044        1267.039
  24589420.096    24589418.8374   24589422.0414  129218273.918 5 100689591.60242
      2610.556        2034.199
  24080522.537    24080522.0044   24080524.6934  126544034.272 6  98605733.61443
     -3879.309       -3022.831
  24751760.914    24751761.3104   24751764.1044  130071419.403 5 101354344.50642
     -4321.882       -3367.715
 08  4 18  2 44  0.0000000  0 13G 3G 6G 7G10G13G16G21G23G24G25G27G29
                                G31
  22756196.079    22756195.2144   22756198.5774  119584588.961 6  93182856.86744
      2961.482        2307.650
  21215757.131    21215756.7514   21215759.6394  111489576.428 8  86875007.02846
       159.813         124.527
  23563634.954    23563634.9274   23563637.5494  123827751.408 6  96489183.18143
      2782.961        2168.531
  23928745.386    23928744.7624   23928749.6724  125746413.485 5  97984233.41642
       364.630         284.128
  21849356.455    21849356.1784   21849357.9404  114819157.321 8  89469497.49645
      -844.019        -657.677
  20551380.956    20551380.2054   20551382.1604  107998263.829 8  84154515.03547
     -1029.105        -801.899
  23590872.427    23590871.7894   23590873.3794  123970891.061 6  96600712.70243
      1649.988        1285.697
  22594840.980    22594840.5444   22594840.8164  118736709.135 7  92522139.19144
     -3308.292       -2577.895
  23140401.562    23140401.1704   23140404.4424  121603635.788 6  94756117.41743
      -978.556        -762.510
  22369098.521    22369098.0824   22369101.2094  117550424.027 7  91597759.02545
      1612.434        1256.443
  24574531.638    24574530.6644   24574533.8314  129140037.927 5 100628628.50041
      2605.283        2030.113
  24102693.092    24102693.2114   24102695.2394  126660543.611 6  98696520.03743
     -3887.919       -3029.541
  24776445.137    24776445.6084   24776446.2454  130201129.927 5 101455417.65942
     -4325.443       -3370.500
 08  4 18  2 44 30.0000000  0 13G 3G 6G 7G10G13G16G21G23G24G25G27G29
                                G31
  22739319.005    22739318.0754   22739321.1434  119495897.644 6  93113746.79844
      2951.257        2299.683
  21214898.293    21214897.8974   21214900.8504  111485063.291 8  86871490.31546
       141.042         109.907
  23547773.101    23547772.9254   23547774.6564  123744392.142 6  96424227.90343
      2774.320        2161.809
  23926722.350    23926721.7514   23926727.3444  125735785.527 5  97975951.89442
       343.858         267.934
  21854239.565    21854239.6654   21854241.4724  114844819.460 7  89489493.99345
      -866.824        -675.449
  20557305.758    20557305.0984   20557307.0764  108029399.612 8  84178776.69247
     -1046.652        -815.575
  23581492.415    23581491.8484   23581494.3344  123921601.874 6  96562305.55443
      1635.917        1274.731
  22613771.408    22613770.9884   22613771.5014  118836188.605 7  92599655.64644
     -3323.673       -2589.872
  23146045.119    23146045.4704   23146048.9484  121633296.922 6  94779230.01043
      -998.937        -778.393
  22359932.629    22359932.0384   22359934.4334  117502253.356 7  91560223.43445
      1598.885        1245.884
  24559673.460    24559672.1964   24559675.9764  129061958.920 5 100567787.70541
      2599.935        2025.933
  24124913.582    24124913.2294   24124915.5144  126777309.549 6  98787506.44343
     -3896.482       -3036.218
  24801148.052    24801147.5704   24801151.3334  130330944.542 5 101556571.88142
     -4328.996       -3373.244
 08  4 18  2 45  0.0000000  0 13G 3G 6G 7G10G13G16G21G23G24G25G27G29
                                G31
  22722499.211    22722498.5784   22722502.1514  119407512.447 6  93044875.21644
      2941.069        2291.746
  21214146.462    21214146.0724   21214148.9914  111481112.057 8  86868411.41546
       122.357          95.348
  23531959.251    23531959.2484   23531961.4904  123661291.997 6  96359474.51644
      2765.619        2155.027
  23924819.190    23924818.1694   23924821.9634  125725778.430 5  97968154.12942
       323.225         251.865
  21859252.894    21859252.8694   21859254.9094  114871163.410 8  89510021.74845
      -889.492        -693.106
  20563330.564    20563330.0204   20563331.9534  108061060.701 8  84203447.68647
     -1064.102        -829.169
  23572193.605    23572193.3364   23572194.8074  123872732.495 6  96524225.50643
      1621.983        1263.875
  22632788.990    22632788.4474   22632788.8664  118936126.733 7  92677529.51044
     -3338.908       -2601.746
  23151805.877    23151805.1504   23151809.4424  121663567.144 6  94802817.18243
     -1019.134        -794.126
  22350843.121    22350842.6734   22350845.3634  117454489.619 7  91523004.94845
      1585.317        1235.312
  24544845.460    24544844.8374   24544847.9534  128984037.406 5 100507069.67042
      2594.761        2021.885
  24147181.698    24147181.3394   24147182.8614  126894328.072 6  98878689.72043
     -3904.793       -3042.712
  24825870.482    24825870.5344   24825871.2344  130460859.957 5 101657804.66142
     -4332.144       -3375.703
 08  4 18  2 45 30.0000000  0 13G 3G 6G 7G10G13G16G21G23G24G25G27G29
                                G31
  22705738.668    22705738.0544   22705740.9664  119319434.533 6  92976243.08044
      2930.828        2283.769
  21213501.340    21213500.9124   21213503.8814  111477721.978 8  86865769.80046
       103.687          80.794
  23516194.669    23516194.9064   23516197.7064  123578452.068 6  96294923.96243
      2757.012        2148.326
  23923032.072    23923030.8994   23923036.5554  125716391.941 5  97960839.98841
       302.615         235.795
  21864395.777    21864395.6004   21864397.4634  114898187.787 8  89531079.69545
      -912.078        -710.711
  20569454.994    20569454.4374   20569456.4244  108093244.852 8  84228526.22847
     -1081.468        -842.697
  23562973.885    23562973.0544   23562975.7504  123824283.570 6  96486473.04843
      1607.972        1252.972
  22651893.376    22651892.6754   22651893.0124  119036519.683 7  92755757.78044
     -3353.946       -2613.463
  23157681.899    23157681.4784   23157685.5644  121694444.637 6  94826877.54243
     -1039.274        -809.823
  22341831.667    22341831.4104   22341834.0344  117407133.498 7  91486104.09945
      1571.774        1224.758
  24530047.621    24530046.5974   24530051.1314  128906274.017 5 100446474.87442
      2589.535        2017.821
  24169496.004    24169495.5174   24169497.0874  127011595.452 5  98970066.87742
     -3912.942       -3049.040
  24850609.377    24850610.0184   24850612.9244  130590873.162 5 101759113.66841
     -4335.387       -3378.233
 08  4 18  2 46  0.0000000  0 13G 3G 6G 7G10G13G16G21G23G24G25G27G29
                                G31
  22689036.803    22689036.3314   22689039.9404  119231668.558 6  92907854.04044
      2920.262        2275.537
  21212963.549    21212963.0114   21212966.0984  111474895.886 8  86863567.67246
        84.774          66.058
  23500482.015    23500482.0424   23500484.1594  123495876.990 6  96230579.77044
      2748.014        2141.299
  23921364.822    23921364.7344   23921368.6854  125707629.829 5  97954012.41442
       281.567         219.395
  21869667.673    21869667.6714   21869669.6004  114925894.472 8  89552669.32545
      -934.935        -728.522
  20575679.556    20575678.8764   20575680.8424  108125954.256 8  84254014.02547
     -1099.079        -856.427
  23553835.013    23553834.3374   23553836.1444  123776259.814 6  96449051.93643
      1593.651        1241.799
  22671083.651    22671083.0934   22671083.6434  119137366.829 7  92834339.95244
     -3369.119       -2625.288
  23163673.801    23163673.1574   23163677.2644  121725931.353 6  94851412.62543
     -1059.761        -825.792
  22332898.161    22332897.7424   22332900.6044  117360189.098 7  91449524.05645
      1557.925        1213.971
  24515280.404    24515279.5804   24515284.4854  128828672.881 5 100386006.48342
      2584.019        2013.503
  24191858.585    24191858.3034   24191861.2484  127129111.543 5  99061637.80242
     -3921.335       -3055.589
  24875370.834    24875370.5064   24875372.8654  130720984.284 5 101860498.95842
     -4338.649       -3380.768
 08  4 18  2 46 30.0000000  0 13G 3G 6G 7G10G13G16G21G23G24G25G27G29
                                G31
  22672395.760    22672394.9644   22672398.4694  119144217.051 6  92839710.03944
      2909.781        2267.351
  21212533.049    21212532.5664   21212535.6884  111472633.708 8  86861804.90446
        65.968          51.396
  23484819.617    23484819.6214   23484820.5724  123413569.283 6  96166443.85244
      2739.110        2134.373
  23919816.765    23919815.5304   23919820.6044  125699492.506 5  97947671.60742
       260.732         203.161
  21875069.657    21875069.6324   21875071.7564  114954282.789 7  89574790.11145
      -957.617        -746.195
  20582003.613    20582003.0404   20582005.0314  108159188.261 8  84279910.69247
     -1116.543        -870.035
  23544777.765    23544777.2274   23544779.2544  123728663.600 6  96411963.99243
      1579.385        1230.690
  22690360.261    22690359.6884   22690360.1924  119238665.417 7  92913273.91144
     -3384.128       -2636.985
  23169780.935    23169780.6454   23169784.5224  121758026.571 6  94876421.83943
     -1079.978        -841.541
  22324043.931    22324043.5754   22324046.1724  117313658.128 7  91413266.13745
      1544.119        1203.208
  24500544.282    24500543.9834   24500547.8584  128751235.800 5 100325665.97842
      2578.458        2009.185
  24214267.930    24214268.2024   24214270.9524  127246873.861 6  99153400.65042
     -3929.518       -3061.975
  24900146.677    24900147.5664   24900150.1584  130851191.775 5 101961959.28142
     -4341.820       -3383.216
 08  4 18  2 47  0.0000000  0 13G 3G 6G 7G10G13G16G21G23G24G25G27G29
                                G31
  22655814.607    22655813.7424   22655816.7514  119057081.508 7  92771812.22644
      2899.296        2259.197
  21212209.890    21212209.3684   21212212.3874  111470935.256 8  86860481.43346
        47.285          36.850
  23469207.700    23469207.7044   23469209.5054  123331530.178 6  96102517.27143
      2730.210        2127.437
  23918387.347    23918387.3064   23918390.6654  125691980.039 5  97941817.72342
       240.105         187.108
  21880601.424    21880601.1134   21880603.3544  114983351.722 8  89597441.21645
      -980.253        -763.830
  20588427.443    20588426.7544   20588428.8034  108192945.036 8  84306214.61647
     -1133.871        -883.537
  23535802.614    23535801.9234   23535803.7954  123681496.099 6  96375210.08343
      1565.114        1219.571
  22709722.262    22709721.4214   22709721.9194  119340411.729 7  92992556.73444
     -3398.916       -2648.507
  23176003.801    23176003.5084   23176007.9054  121790728.840 6  94901904.09443
     -1100.154        -857.265
  22315267.598    22315267.2524   22315270.4254  117267541.569 7  91377331.17745
      1530.346        1192.476
  24485840.407    24485839.5284   24485843.5564  128673963.417 5 100265453.77242
      2573.051        2004.969
  24236724.063    24236723.7544   24236726.9314  127364879.137 5  99245352.77543
     -3937.488       -3068.174
  24924944.892    24924944.1954   24924944.6964  130981492.647 5 102063492.51542
     -4344.826       -3385.587
 08  4 18  2 47 30.0000000  0 13G 3G 6G 7G10G13G16G21G23G24G25G27G29
                                G31
  22639293.170    22639292.8964   22639295.5104  118970262.779 6  92704161.28144
      2888.707        2250.936
  21211993.757    21211993.1774   21211996.2804  111469799.193 8  86859596.17746
        28.570          22.268
  23453646.844    23453646.6954   23453649.7204  123249760.415 6  96038800.60444
      2721.220        2120.424
  23917077.419    23917076.4484   23917079.0684  125685092.217 5  97936450.58242
       219.237         170.825
  21886262.141    21886261.8884   21886263.8964  115013099.180 7  89620621.05745
     -1002.834        -781.433
  20594950.242    20594949.6524   20594951.6614  108227222.826 8  84332924.56547
     -1151.218        -897.061
  23526909.149    23526908.1454   23526909.5074  123634758.115 6  96338790.90043
      1550.834        1208.445
  22729168.132    22729167.3734   22729167.6844  119442601.313 7  93072184.96344
     -3413.634       -2659.972
  23182342.314    23182341.7944   23182345.9634  121824036.606 6  94927858.22843
     -1120.331        -872.995
  22306571.450    22306571.1604   22306573.4194  117221839.667 7  91341719.30145
      1516.541        1181.718
  24471167.504    24471166.4434   24471170.9674  128596856.364 5 100205370.38942
      2567.470        2000.634
  24259225.140    24259225.1294   24259227.4024  127483123.307 6  99337491.07143
     -3945.361       -3074.312
  24949754.370    24949755.1734   24949758.1474  131111883.861 4 102165096.01242
     -4347.838       -3387.936
 08  4 18  2 48  0.0000000  0 13G 3G 6G 7G10G13G16G21G23G24G25G27G29
                                G31
  22622833.246    22622832.4684   22622835.7794  118883764.917 6  92636760.36344
      2877.900        2242.518
  21211884.789    21211884.3774   21211887.3334  111469227.097 8  86859150.37646
         9.600           7.484
  23438139.544    23438139.5154   23438141.5124  123168263.786 6  95975296.76744
      2711.974        2113.230
  23915885.890    23915884.5864   23915888.5534  125678830.973 6  97931571.67742
       198.243         154.484
  21892052.205    21892052.1864   21892054.1584  115043525.933 7  89644330.21545
     -1025.579        -799.153
  20601572.315    20601571.7674   20601573.7544  108262022.296 8  84360041.03747
     -1168.706        -910.682
  23518096.691    23518096.3544   23518098.3894  123588452.595 6  96302708.70443
      1536.255        1197.087
  22748698.297    22748697.8804   22748697.9374  119545232.814 7  93152157.56344
     -3428.443       -2671.512
  23188795.894    23188795.7814   23188799.5624  121857949.763 6  94954284.02543
     -1140.565        -888.750
  22297953.670    22297953.5624   22297956.5034  117176555.466 7  91306432.91345
      1502.457        1170.749
  24456526.408    24456525.8764   24456529.4464  128519917.402 5 100145417.95342
      2561.733        1996.172
  24281771.477    24281771.9354   24281773.7944  127601605.044 6  99429814.54543
     -3953.411       -3080.589
  24974587.259    24974586.1884   24974587.8424  131242364.301 5 102266769.09242
     -4350.866       -3390.299
 08  4 18  2 48 30.0000000  0 13G 3G 6G 7G10G13G16G21G23G24G25G27G29
                                G31
  22306641.826    22306641.5364   22306644.3844  117222166.665 7  91342008.51544
      2867.201        2234.181
  20912090.891    20912090.3704   20912093.3064  109893798.911 8  85631544.00546
        -9.087          -7.087
  23122890.429    23122890.0634   23122892.1744  121511619.307 6  94684404.96444
      2702.831        2106.105
  23615021.192    23615020.4724   23615023.6914  124097776.828 6  96699581.45442
       177.394         138.236
  21598179.302    21598179.0734   21598181.1924  113499212.106 7  88440968.80545
     -1048.062        -816.673
  20308501.345    20308500.6324   20308502.5964  106721923.273 8  83159963.89347
     -1185.928        -924.108
  23209574.638    23209574.1974   23209576.1174  121967160.106 6  95039363.92343
      1521.813        1185.824
  22468519.862    22468519.1684   22468519.5794  118072885.715 7  92004874.09544
     -3442.862       -2682.748
  22895571.996    22895571.6824   22895575.5094  120317048.561 6  93753581.78743
     -1160.623        -904.389
  21989623.767    21989623.2494   21989625.6644  115556268.714 7  90043871.81245
      1488.580        1159.930
  24142124.044    24142123.5464   24142127.4284  126867725.347 5  98857995.58642
      2556.231        1991.848
  24004570.634    24004570.5254   24004572.6964  126144905.593 5  98294724.05243
     -3961.039       -3086.521
  24699639.452    24699639.8164   24699642.0834  129797516.291 5 101140913.49842
     -4353.662       -3392.481
 08  4 18  2 49  0.0000000  0 13G 3G 6G 7G10G13G16G21G23G24G25G27G29
                                G31
  22290305.129    22290304.3324   22290307.2684  117136315.699 7  91275111.69944
      2856.211        2225.621
  20912196.220    20912195.9844   20912198.7974  109894354.160 8  85631976.70646
       -27.933         -21.759
  23107486.534    23107486.0874   23107488.0664  121430673.811 6  94621330.57143
      2693.570        2098.888
  23614068.299    23614066.7964   23614070.8604  124092769.908 6  96695679.97442
       156.413         121.857
  21604227.117    21604227.0324   21604228.8834  113530994.369 7  88465734.20545
     -1070.702        -834.308
  20315321.092    20315320.5124   20315322.5024  106757761.949 8  83187890.14247
     -1203.291        -937.632
  23200928.923    23200928.0954   23200929.9464  121921725.050 6  95003960.02343
      1507.240        1174.472
  22488216.447    22488215.5604   22488215.7154  118176390.242 7  92085526.99244
     -3457.403       -2694.083
  22902255.454    22902254.6694   22902258.9174  120352169.140 6  93780948.45443
     -1180.749        -920.067
  21981166.135    21981165.4764   21981168.2984  115511823.582 7  90009239.23245
      1474.467        1148.937
  24127547.959    24127547.3974   24127551.6484  126791126.363 6  98798308.04742
      2550.437        1987.345
  24027205.249    24027205.0844   24027208.3394  126263854.021 5  98387411.09242
     -3968.852       -3092.627
  24724502.903    24724502.0714   24724503.6284  129928168.363 5 101242720.25841
     -4356.437       -3394.631
 08  4 18  2 49 30.0000000  0 13G 3G 6G 7G10G13G16G21G23G24G25G27G29
                                G31
  22274030.332    22274029.7014   22274032.8974  117050792.742 6  91208470.44444
      2845.257        2217.085
  20912409.329    20912408.9964   20912411.9894  109895473.841 8  85632849.18746
       -46.758         -36.432
  23092136.982    23092136.9114   23092138.6444  121350008.185 6  94558474.24444
      2684.137        2091.532
  23613234.623    23613233.6754   23613237.8824  124088392.109 5  96692268.68842
       135.453         105.553
  21610403.983    21610403.8284   21610405.6244  113563453.916 8  88491027.33645
     -1093.279        -851.901
  20322239.771    20322239.1364   20322241.1604  106794119.818 8  83216220.91947
     -1220.571        -951.089
  23192366.915    23192365.8284   23192367.0544  121876728.874 6  94968898.06843
      1492.488        1162.983
  22507994.701    22507994.1544   22507994.8274  118280327.972 7  92166517.42044
     -3471.760       -2705.270
  22909053.625    22909053.1404   22909057.2344  120387893.082 6  93808785.28343
     -1200.838        -935.721
  21972789.173    21972788.6414   21972791.3534  115467801.162 7  89974936.04045
      1460.329        1137.919
  24113004.837    24113004.3444   24113007.3404  126714700.918 5  98738755.77742
      2544.682        1982.877
  24049885.197    24049884.2614   24049886.7474  126383032.641 5  98480277.56542
     -3976.405       -3098.512
  24749379.541    24749379.9634   24749381.8024  130058903.842 5 101344592.03242
     -4359.184       -3396.765
 08  4 18  2 50  0.0000000  0 13G 3G 6G 7G10G13G16G21G23G24G25G27G29
                                G31
  22257818.294    22257817.7924   22257821.5794  116965599.140 6  91142085.84744
      2834.231        2208.493
  20912729.925    20912729.4364   20912732.3794  109897157.404 8  85634161.07946
       -65.550         -51.071
  23076840.153    23076839.8534   23076842.4074  121269623.824 6  94495837.12044
      2674.722        2084.201
  23612521.706    23612520.5014   23612523.5874  124084643.437 6  96689347.62842
       114.405          89.163
  21616709.322    21616709.2204   21616711.2914  113596589.517 7  88516847.30045
     -1115.813        -869.461
  20329257.057    20329256.3494   20329258.3754  106830995.450 8  83244955.18147
     -1237.867        -964.566
  23183888.295    23183887.3444   23183889.1054  121832172.733 6  94934178.99543
      1477.771        1151.519
  22527855.140    22527854.4404   22527854.7864  118384694.976 7  92247842.35244
     -3486.055       -2716.405
  22915966.209    22915965.6684   22915969.2254  120424219.057 6  93837091.17843
     -1220.903        -951.351
  21964492.298    21964491.8064   21964494.5604  115424202.474 7  89940963.03745
      1446.158        1126.877
  24098494.708    24098494.1274   24098498.0454  126638450.028 5  98679339.55142
      2538.685        1978.198
  24072606.845    24072607.1774   24072608.9594  126502438.228 5  98573320.90942
     -3983.945       -3104.385
  24774274.095    24774273.2934   24774276.4424  130189720.291 5 101446526.93441
     -4361.882       -3398.882
 08  4 18  2 50 30.0000000  0 13G 3G 6G 7G10G13G16G21G23G24G25G27G29
                                G31
  22241669.601    22241669.0984   22241672.6184  116880737.449 6  91075959.87244
      2823.185        2199.881
  20913157.789    20913157.1514   20913160.1864  109899405.391 8  85635912.75046
       -84.327         -65.700
  23061596.239    23061596.0794   23061599.1734  121189523.533 6  94433421.35943
      2665.287        2076.854
  23611927.910    23611927.8584   23611930.3554  124081524.996 6  96686917.66942
        93.429          72.774
  21623143.203    21623143.1694   21623145.4734  113630400.885 7  88543193.81145
     -1138.298        -886.982
  20336372.722    20336371.9954   20336374.0244  106868388.693 8  83274092.82447
     -1255.027        -977.941
  23175493.070    23175492.5074   23175494.1924  121788059.132 6  94899804.77143
      1463.051        1140.041
  22547797.041    22547796.0964   22547796.5654  118489488.544 7  92329499.67344
     -3500.141       -2727.381
  22922992.957    22922992.4874   22922996.3824  120461146.527 6  93865865.78043
     -1240.946        -966.963
  21956277.039    21956276.5364   21956279.1054  115381029.536 7  89907321.78045
      1432.007        1115.856
  24084019.288    24084018.3614   24084021.5554  126562375.612 6  98620060.77942
      2532.823        1973.643
  24095371.639    24095370.7874   24095373.1514  126622068.381 5  98666539.18342
     -3991.331       -3110.124
  24799182.935    24799183.5154   24799184.3644  130320615.764 5 101548523.44042
     -4364.512       -3400.911
 08  4 18  2 51  0.0000000  0 13G 3G 6G 7G10G13G16G21G23G24G25G27G29
                                G31
  22225584.590    22225584.2694   22225587.6104  116796211.168 7  91010095.25644
      2811.962        2191.129
  20913693.077    20913692.5614   20913695.7044  109902219.013 8  85638105.14146
      -103.209         -80.423
  23046409.367    23046409.4834   23046410.8844  121109710.337 6  94371229.26443
      2655.606        2069.310
  23611455.519    23611453.5134   23611457.5634  124079038.584 6  96684980.22442
        72.374          56.383
  21629706.166    21629706.0834   21629707.6834  113664888.249 8  88570067.07045
     -1160.825        -904.532
  20343586.932    20343586.1954   20343588.2054  106906299.616 8  83303633.82847
     -1272.331        -991.431
  23167183.401    23167182.7474   23167184.6344  121744391.170 6  94865777.79243
      1448.125        1128.401
  22567819.371    22567818.8294   22567818.7084  118594706.499 7  92411487.68644
     -3514.289       -2738.413
  22930135.085    22930134.2054   22930138.2354  120498675.555 6  93895109.18243
     -1260.909        -982.529
  21948142.855    21948142.4124   21948145.2174  115338285.259 7  89874014.54945
      1417.672        1104.678
  24069576.379    24069575.0634   24069578.5974  126486480.622 5  98560921.84542
      2526.831        1968.945
  24118179.709    24118179.3504   24118182.0474  126741922.107 6  98759931.69742
     -3998.811       -3115.963
  24824106.613    24824106.3334   24824109.0734  130451589.735 5 101650581.12941
     -4367.056       -3402.906
 08  4 18  2 51 30.0000000  0 13G 3G 6G 7G10G13G16G21G23G24G25G27G29
                                G31
  22209564.786    22209564.0394   22209567.1754  116712023.373 7  90944494.39044
      2800.625        2182.299
  20914336.267    20914335.7114   20914338.9534  109905599.086 8  85640738.97246
      -122.063         -95.113
  23031277.156    23031277.2604   23031278.7474  121030187.242 6  94309263.19043
      2645.969        2061.797
  23611102.546    23611102.1984   23611104.1794  124077185.182 6  96683536.04642
        51.247          39.926
  21636397.472    21636397.3484   21636398.9834  113700051.209 7  88597466.76845
     -1183.333        -922.078
  20350899.458    20350898.8354   20350900.8274  106944727.713 8  83333577.79247
     -1289.548       -1004.841
  23158958.834    23158958.3814   23158959.9134  121701171.559 6  94832100.19543
      1433.190        1116.779
  22587921.954    22587921.1364   22587921.4154  118700346.693 7  92493804.72144
     -3528.325       -2749.347
  22937390.553    22937390.3744   22937394.3394  120536806.137 6  93924821.28443
     -1280.977        -998.163
  21940091.005    21940090.6334   21940093.0044  115295971.610 7  89841042.87345
      1403.283        1093.467
  24055168.494    24055167.8524   24055170.3264  126410767.221 5  98501924.40842
      2520.712        1964.194
  24141028.982    24141028.9324   24141031.2154  126861997.423 6  98853496.89143
     -4006.178       -3121.694
  24849043.540    24849043.5864   24849047.4664  130582640.581 5 101752698.63242
     -4369.567       -3404.856
 08  4 18  2 52  0.0000000  0 13G 3G 6G 7G10G13G16G21G23G24G25G27G29
                                G31
  22193609.262    22193608.6124   22193611.5394  116628176.913 7  90879159.49444
      2789.225        2173.424
  20915087.305    20915086.7254   20915089.9334  109909545.893 8  85643814.43046
      -140.965        -109.845
  23016199.067    23016199.2744   23016201.7914  120950957.124 6  94247525.49543
      2636.152        2054.150
  23610870.367    23610869.8094   23610872.5374  124075966.026 6  96682586.07242
        30.095          23.466
  21643217.283    21643216.9924   21643219.0524  113735889.645 7  88625392.81045
     -1205.831        -939.605
  20358310.606    20358309.8954   20358311.9074  106983673.244 8  83363924.98447
     -1306.784       -1018.274
  23150820.030    23150819.5794   23150821.2744  121658402.593 6  94798773.74443
      1418.134        1105.029
  22608103.961    22608103.9034   22608103.8634  118806406.707 6  92576448.87344
     -3542.256       -2760.207
  22944761.372    22944760.7344   22944764.5174  120575537.858 6  93955001.82443
     -1300.944       -1013.717
  21932120.987    21932120.6854   21932123.5704  115254090.911 7  89808408.58745
      1388.807        1082.185
  24040795.456    24040794.8344   24040797.6504  126335237.761 5  98443070.28442
      2514.597        1959.418
  24163919.413    24163919.9124   24163922.4864  126982291.926 5  98947232.86542
     -4013.434       -3127.341
  24873996.848    24873996.4814   24873999.0774  130713766.889 5 101854874.91642
     -4372.116       -3406.850
 08  4 18  2 52 30.0000000  0 13G 3G 6G 7G10G13G16G21G23G24G25G27G29
                                G31
  22177719.405    22177718.8104   22177721.5604  116544674.440 7  90814092.64844
      2777.588        2164.347
  20915946.138    20915945.7844   20915948.9004  109914060.042 8  85647331.95146
      -160.045        -124.713
  23001178.415    23001178.5704   23001180.2894  120872022.672 6  94186018.18043
      2626.048        2046.264
  23610759.789    23610758.7484   23610761.0304  124075382.332 6  96682131.26241
         8.758           6.839
  21650165.410    21650165.3894   21650167.5314  113772403.123 7  88653844.85045
     -1228.460        -957.241
  20365819.933    20365819.3004   20365821.3594  107023135.463 8  83394674.76247
     -1324.100       -1031.767
  23142768.389    23142767.6134   23142768.8274  121616086.236 6  94765799.96943
      1402.875        1093.144
  22628366.162    22628365.7744   22628365.8744  118912883.763 6  92659418.00844
     -3556.247       -2771.110
  22952246.313    22952245.4974   22952249.6974  120614870.084 6  93985650.30743
     -1321.237       -1029.552
  21924234.192    21924233.7954   21924236.2114  115212645.043 7  89776113.14445
      1374.163        1070.776
  24026457.841    24026457.2204   24026460.7294  126259894.271 5  98384361.06842
      2508.254        1954.487
  24186850.932    24186851.2304   24186854.8754  127102803.694 5  99041138.05042
     -4020.642       -3132.983
  24898964.072    24898964.6574   24898965.9384  130844966.937 5 101957108.77442
     -4374.546       -3408.749
 08  4 18  2 53  0.0000000  0 14G 3G 6G 7G10G13G16G19G21G23G24G25G27
                                G29G31
  22161895.309    22161894.7044   22161897.5914  116461519.108 7  90749296.29944
      2766.106        2155.407
  20916913.342    20916912.9524   20916916.0504  109919142.314 8  85651292.17246
      -178.802        -139.328
  22986215.313    22986215.0764   22986216.8584  120793386.471 6  94124743.18943
      2616.269        2038.656
  23610769.615    23610767.9224   23610771.9494  124075435.113 5  96682172.39442
       -12.331          -9.594
  21657241.886    21657242.0034   21657244.4044  113809591.633 7  88682822.91845
     -1250.836        -974.679
  20373427.951    20373427.0274   20373429.0084  107063114.018 8  83425826.81047
     -1341.178       -1045.070
  24970419.923                                   131220441.396 5
      3380.877
  23134801.935    23134801.5124   23134802.7494  121574225.783 6  94733181.42343
      1387.749        1081.361
  22648706.894    22648706.1074   22648706.4094  119019775.859 7  92742710.54044
     -3569.915       -2781.753
  22959844.076    22959844.7334   22959848.4654  120654802.476 6  94016766.36743
     -1341.011       -1044.884
  21916430.810    21916430.4094   21916432.9594  115171636.321 7  89744158.30945
      1359.693        1059.504
  24012156.039    24012155.7284   24012159.4274  126184739.201 6  98325798.70042
      2502.068        1949.682
  24209826.533    24209826.4044   24209829.0774  127223531.176 5  99135211.38342
     -4027.773       -3138.538
  24923943.150    24923941.8244   24923944.9394  130976239.746 4 102059399.31941
     -4376.759       -3410.463
 08  4 18  2 53 30.0000000  0 14G 3G 6G 7G10G13G16G19G21G23G24G25G27
                                G29G31
  22146136.930    22146136.5384   22146139.5674  116378709.504 6  90684769.39844
      2754.522        2146.377
  20917988.029    20917987.4964   20917990.5304  109924789.219 8  85655692.36746
      -197.641        -154.005
  22971307.039    22971307.2204   22971309.5734  120715047.492 6  94063699.86144
      2606.290        2030.869
  23610899.957    23610898.8294   23610901.9314  124076121.599 5  96682707.32542
       -33.476         -26.074
  21664446.439    21664446.1504   21664448.9974  113847450.939 7  88712323.70345
     -1273.183        -992.092
  20381132.903    20381132.1894   20381134.2444  107103605.145 8  83457378.36147
     -1358.289       -1058.408
  24951123.432    24951121.4994   24951123.6914  131119037.899 5 102170694.94441
      3379.171        2633.122
  23126923.028    23126922.1774   23126923.6044  121532819.825 6  94700917.08443
      1372.580        1069.547
  22669125.939    22669125.3064   22669125.5244  119127076.084 7  92826321.08944
     -3583.476       -2792.326
  22967557.462    22967556.7164   22967560.4994  120695331.084 6  94048347.15543
     -1360.910       -1060.412
  21908709.647    21908709.2714   21908712.0164  115131063.021 7  89712542.75646
      1345.152        1048.168
  23997889.969    23997890.3374   23997892.9534  126109771.078 5  98267381.98042
      2495.829        1944.805
  24232839.823    24232840.0124   24232841.2144  127344468.152 6  99229448.00942
     -4034.719       -3143.947
  24948934.052    24948935.2884   24948937.1194  131107579.932 5 102161742.42041
     -4379.303       -3412.425
 08  4 18  2 54  0.0000000  0 14G 3G 6G 7G10G13G16G19G21G23G24G25G27
                                G29G31
  22130444.279    22130443.9314   22130447.0864  116296245.461 6  90620511.74844
      2743.002        2137.393
  20919169.383    20919168.9204   20919171.9574  109930997.724 8  85660530.17446
      -216.313        -168.562
  22956456.271    22956456.0304   22956458.8784  120637005.225 6  94002887.75144
      2596.389        2023.162
  23611150.196    23611149.7224   23611154.0444  124077439.563 5  96683734.31642
       -54.488         -42.454
  21671777.899    21671777.7204   21671780.0284  113885976.820 7  88742343.88545
     -1295.287       -1009.315
  20388934.784    20388934.2554   20388936.2374  107144604.787 8  83489326.10447
     -1375.130       -1071.533
  24931837.088    24931835.3794   24931835.7364  131017685.686 5 102091719.22541
      3377.521        2631.854
  23119129.667    23119128.7984   23119131.0534  121491866.719 6  94669005.59943
      1357.540        1057.829
  22689621.074    22689620.3584   22689620.3904  119234778.917 6  92910245.37244
     -3596.787       -2802.688
  22975382.226    22975381.7674   22975385.7764  120736451.778 6  94080389.26043
     -1380.609       -1075.784
  21901071.702    21901071.3214   21901073.5974  115090923.914 8  89681265.52046
      1330.705        1036.910
  23983659.604    23983659.6744   23983662.7094  126034988.628 5  98209109.97042
      2489.697        1940.000
  24255893.406    24255892.7384   24255893.0094  127465609.362 6  99323843.85542
     -4041.411       -3149.146
  24973941.537    24973941.7484   24973944.7534  131238982.597 5 102264134.13441
     -4381.117       -3413.859
 08  4 18  2 54 30.0000000  0 14G 3G 6G 7G10G13G16G19G21G23G24G25G27
                                G29G31
  22114818.515    22114817.6664   22114820.7344  116214129.480 7  90556525.28944
      2731.500        2128.444
  20920457.924    20920457.4344   20920460.4634  109937769.082 8  85665806.56046
      -234.964        -183.088
  22941662.671    22941663.1434   22941663.9694  120559262.956 6  93942309.37544
      2586.461        2015.418
  23611521.330    23611520.5484   23611524.7644  124079390.190 5  96685254.34042
       -75.442         -58.762
  21679236.306    21679236.2404   21679237.8454  113925169.701 7  88772883.81345
     -1317.408       -1026.554
  20396833.684    20396832.9794   20396834.9844  107186113.024 8  83521670.19547
     -1391.961       -1084.645
  24912558.354    24912557.9284   24912557.4984  130916387.962 5 102012785.92742
      3375.808        2630.477
  23111422.575    23111422.3624   23111424.1614  121451369.837 6  94637449.60043
      1342.418        1046.026
  22710192.199    22710191.5144   22710191.8954  119342881.847 7  92994481.41744
     -3609.954       -2812.946
  22983319.804    22983319.2554   22983323.5964  120778164.278 6  94112892.47043
     -1400.141       -1091.026
  21893516.172    21893515.9324   21893518.6804  115051221.306 8  89650328.43246
      1316.255        1025.649
  23969465.291    23969464.1424   23969467.9334  125960394.551 5  98150984.73342
      2483.456        1935.149
  24278983.552    24278983.6424   24278985.9414  127586953.213 6  99418397.56342
     -4047.998       -3154.279
  24998960.110    24998959.6024   24998960.6504  131370446.199 6 102366573.23642
     -4382.964       -3415.312
 08  4 18  2 55  0.0000000  0 14G 3G 6G 7G10G13G16G19G21G23G24G25G27
                                G29G31
  22099258.582    22099258.1424   22099261.0344  116132362.948 7  90492811.12244
      2719.669        2119.226
  20921853.287    20921852.7824   20921855.7234  109945101.478 8  85671520.12146
      -253.808        -197.777
  22926925.261    22926925.3784   22926926.7614  120481821.177 6  93881965.10443
      2576.376        2007.572
  23612011.923    23612011.7444   23612016.9684  124081972.573 5  96687266.63342
       -96.627         -75.296
  21686820.729    21686820.6564   21686822.1404  113965026.830 7  88803941.32145
     -1339.684       -1043.916
  20404828.537    20404828.0264   20404830.0154  107228127.179 8  83554408.46547
     -1408.936       -1097.871
  24893289.475    24893291.3394   24893293.6974  130815145.067 4 101933895.48341
      3373.704        2628.817
  23103803.722    23103802.8444   23103805.2804  121411329.220 6  94606249.12343
      1327.039        1034.049
  22730838.736    22730838.4634   22730838.6964  119451380.464 7  93079025.81144
     -3623.231       -2823.302
  22991369.572    22991369.0174   22991372.6634  120820465.897 6  94145854.71843
     -1419.970       -1106.478
  21886044.412    21886044.0274   21886046.2714  115011955.447 8  89619731.65446
      1301.514        1014.169
  23955306.177    23955306.0474   23955309.2214  125885989.120 5  98093006.44842
      2477.043        1930.172
  24302111.179    24302110.9654   24302114.8944  127708495.592 5  99513105.85442
     -4054.746       -3159.538
  25023988.789    25023987.6704   25023988.4694  131501967.836 6 102469057.60343
     -4385.013       -3416.895
 08  4 18  2 55 30.0000000  0 14G 3G 6G 7G10G13G16G19G21G23G24G25G27
                                G29G31
  22083766.266    22083765.5594   22083768.5004  116050949.712 7  90429372.25644
      2707.901        2110.053
  20923355.465    20923355.0604   20923358.1864  109952996.337 8  85677671.94946
      -272.501        -212.339
  22912247.349    22912246.9024   22912249.0414  120404683.625 6  93821857.95844
      2566.140        1999.582
  23612624.701    23612623.3574   23612627.8454  124085188.555 5  96689772.63542
      -117.770         -91.766
  21694531.722    21694531.6314   21694533.2534  114005548.478 7  88835516.63645
     -1361.774       -1061.125
  20412920.111    20412919.4244   20412921.4144  107270648.035 8  83587541.61047
     -1425.764       -1110.985
  24874039.289    24874037.0414   24874037.7004  130713960.511 5 101855050.46742
      3371.934        2627.474
  23096271.891    23096271.0134   23096273.0324  121371748.404 6  94575406.93243
      1311.710        1022.110
  22751559.878    22751559.6414   22751560.0284  119560273.268 6  93163877.28344
     -3636.262       -2833.447
  22999531.293    22999530.8784   22999534.9624  120863357.609 6  94179276.84443
     -1439.548       -1121.730
  21878656.214    21878655.5514   21878658.4394  114973129.298 8  89589477.49646
      1286.886        1002.769
  23941183.936    23941183.3664   23941186.2104  125811775.491 5  98035177.64242
      2470.604        1925.161
  24325276.446    24325276.8364   24325281.0734  127830235.696 4  99607968.19841
     -4061.231       -3164.581
  25049029.001    25049026.5074   25049023.6164  131633546.693 5 102571586.69841
     -4386.770       -3418.277
 08  4 18  2 56  0.0000000  0 14G 3G 6G 7G10G13G16G19G21G23G24G25G27
                                G29G31
  22068341.525    22068340.7624   22068344.0444  115969891.672 7  90366210.17244
      2695.984        2100.768
  20924964.872    20924964.5204   20924967.6464  109961453.916 8  85684262.25246
      -291.284        -226.978
  22897626.842    22897626.8504   22897628.9654  120327852.944 6  93761989.91644
      2555.897        1991.607
  23613358.118    23613356.9734   23613360.9044  124089039.194 5  96692773.18342
      -138.880        -108.205
  21702369.281    21702368.8494   21702370.9124  114046734.307 7  88867609.48545
     -1383.918       -1078.381
  20421107.933    20421107.1964   20421109.1754  107313675.237 8  83621069.33347
     -1442.656       -1124.151
  24854796.691    24854795.0784   24854794.0594  130612836.809 5 101776252.78441
      3369.685        2625.762
  23088827.094    23088826.8424   23088829.0834  121332629.436 6  94544924.61044
      1296.309        1010.103
  22772356.627    22772356.2614   22772355.9274  119669557.283 6  93249033.64444
     -3649.262       -2843.572
  23007805.413    23007804.9694   23007809.4994  120906838.376 6  94213157.95243
     -1459.153       -1136.998
  21871351.883    21871351.2124   21871353.6764  114934744.908 7  89559567.58046
      1272.117         991.255
  23927098.380    23927097.3644   23927101.0654  125737755.867 5  97977500.06342
      2464.134        1920.100
  24348481.512    24348482.1764   24348483.9104  127952171.107 5  99702982.76542
     -4067.737       -3169.697
  25074073.270    25074075.4524   25074091.5434  131765158.547 5 102674158.2534
     -4388.745       -3419.748
 08  4 18  2 56 30.0000000  0 14G 3G 6G 7G10G13G16G19G21G23G24G25G27
                                G29G31
  22052984.812    22052984.2054   22052987.7634  115889193.954 7  90303328.86844
      2683.888        2091.335
  20926681.973    20926681.4714   20926684.4924  109970476.179 8  85691292.56746
      -310.197        -241.716
  22883065.310    22883065.1494   22883067.3254  120251333.339 6  93702364.24644
      2545.392        1983.423
  23614210.689    23614209.9104   23614214.4024  124093526.202 5  96696269.56642
      -160.192        -124.817
  21710333.033    21710332.9114   21710334.5724  114088585.092 7  88900220.46745
     -1406.119       -1095.680
  20429392.130    20429391.5744   20429393.5004  107357209.645 8  83654992.25947
     -1459.645       -1137.392
  24835564.325    24835564.3624   24835563.6744  130511777.605 5 101697505.30942
      3367.430        2623.990
  23081471.687    23081471.2124   23081473.7144  121293976.306 6  94514805.32843
      1280.602         997.843
  22793227.166    22793226.6864   22793225.8004  119779231.569 7  93334494.14144
     -3662.321       -2853.746
  23016191.532    23016191.3054   23016196.0334  120950909.156 6  94247498.80443
     -1478.922       -1152.417
  21864132.300    21864131.8504   21864134.4994  114896805.746 8  89530004.59946
      1257.171         979.611
  23913050.887    23913050.0584   23913052.7614  125663933.891 5  97919976.45642
      2457.362        1914.839
  24371722.774    24371722.8684   24371724.6964  128074301.320 6  99798149.15342
     -4074.301       -3174.799
  25099130.797    25099133.2144   25099137.5874  131896848.983 4 102776774.26243
     -4390.556       -3421.193
 08  4 18  2 57  0.0000000  0 13G 3G 6G 7G10G13G16G19G21G23G24G25G27
                                G29
  22037697.299    22037696.4584   22037699.5634  115808855.727 7  90240727.68544
      2671.934        2082.021
  20928505.712    20928505.2304   20928508.1544  109980060.032 8  85698760.50346
      -328.819        -256.221
  22868563.378    22868562.9284   22868564.8874  120175124.473 6  93642980.74444
      2535.141        1975.429
  23615185.923    23615184.2384   23615189.2284  124098647.575 5  96700260.23442
      -181.237        -141.227
  21718422.586    21718422.7424   21718424.5884  114131097.131 7  88933346.72645
     -1428.041       -1112.753
  20437772.224    20437771.6674   20437773.6174  107401247.658 8  83689307.61947
     -1476.320       -1150.374
  24816343.361    24816342.6734   24816346.6404  130410782.334 4 101618807.75341
      3365.466        2622.472
  23074205.830    23074205.0224   23074206.6454  121255788.170 7  94485048.36644
      1265.157         985.835
  22814170.214    22814169.7264   22814169.7364  119889290.315 7  93420254.19644
     -3674.995       -2863.631
  23024690.175    23024689.7634   23024693.9984  120995566.135 6  94282296.44643
     -1498.312       -1167.513
  21856997.219    21856996.7804   21856999.0934  114859310.654 7  89500787.63446
      1242.411         968.113
  23899039.759    23899039.0544   23899043.0664  125590308.516 5  97862606.04942
      2450.854        1909.740
  24394999.812    24394999.7454   24395001.5254  128196621.136 6  99893463.28442
     -4080.445       -3179.569
 08  4 18  2 57 30.0000000  0 14G 3G 6G 7G10G13G16G19G21G23G24G25G27
                                G29G31
  22022478.687    22022478.0214   22022481.1224  115728880.682 7  90178409.47944
      2659.786        2072.558
  20930436.598    20930436.1874   20930439.1484  109990207.214 8  85706667.39746
      -347.633        -270.881
  22854121.360    22854121.0414   22854123.3384  120099230.180 6  93583842.37644
      2524.537        1967.173
  23616281.971    23616280.4484   23616285.7864  124104405.418 5  96704746.87242
      -202.604        -157.858
  21726638.808    21726638.6254   21726640.3264  114174270.843 7  88966988.56345
     -1450.157       -1129.991
  20446248.433    20446247.7814   20446249.7264  107445789.758 8  83724015.74747
     -1493.101       -1163.457
  24797141.115    24797138.2294   24797139.6964  130309854.697 5 101540163.02241
      3363.017        2620.520
  23067026.992    23067026.7814   23067028.8714  121218068.358 6  94455656.33144
      1249.528         973.664
  22835186.437    22835185.6864   22835185.9934  119999731.649 6  93506312.37544
     -3687.741       -2873.554
  23033300.107    23033298.9884   23033303.1414  121040809.686 6  94317551.17243
     -1517.874       -1182.761
  21849946.867    21849946.6064   21849949.3404  114822262.660 7  89471919.07746
      1227.458         956.461
  23885067.703    23885067.2934   23885070.8264  125516883.461 5  97805391.73743
      2444.056        1904.447
  24418310.504    24418310.6124   24418313.4824  128319129.507 5  99988924.27442
     -4086.627       -3184.382
  25149283.760    25149282.6094   25149285.3084  132160367.501 5 102982129.1434
     -4393.892       -3423.808
 08  4 18  2 58  0.0000000  0 14G 3G 6G 7G10G13G16G19G21G23G24G25G27
                                G29G31
  22007329.095    22007328.6114   22007332.0914  115649270.991 7  90116375.94944
      2647.487        2062.979
  20932474.655    20932474.1824   20932477.1364  110000917.131 8  85715012.78946
      -366.400        -285.507
  22839739.371    22839739.4394   22839740.8924  120023652.496 6  93524950.71644
      2513.936        1958.912
  23617497.581    23617497.2924   23617501.9924  124110799.769 5  96709729.50742
      -223.768        -174.357
  21734980.061    21734979.7644   21734981.4254  114218104.667 7  89001144.78545
     -1472.135       -1147.114
  20454820.027    20454819.4584   20454821.4694  107490834.541 8  83759115.59247
     -1509.918       -1176.559
  24777947.627    24777946.2714   24777947.6634  130208996.589 5 101461572.28842
      3360.739        2618.741
  23059938.298    23059938.1434   23059939.8634  121180818.058 6  94426630.15744
      1233.798         961.401
  22856274.868    22856274.6914   22856274.7564  120110552.690 6  93592666.41844
     -3700.364       -2883.385
  23042020.222    23042019.8134   23042023.7784  121086638.238 6  94353261.74343
     -1537.421       -1197.995
  21842982.355    21842981.9594   21842984.5224  114785663.034 7  89443399.85746
      1212.465         944.781
  23871133.782    23871133.5284   23871136.2934  125443659.982 5  97748334.48442
      2437.385        1899.261
  24441658.981    24441659.6414   24441661.4814  128441824.279 5 100084530.54541
     -4092.906       -3189.259
  25174371.766    25174371.5954   25174373.7584  132292207.818 5 103084861.99141
     -4395.478       -3425.052
 08  4 18  2 58 30.0000000  0 14G 3G 6G 7G10G13G16G19G21G23G24G25G27
                                G29G31
  21992250.290    21992249.3344   21992252.7424  115570029.143 7  90054629.05844
      2635.188        2053.400
  20934619.632    20934619.3354   20934622.1944  110012189.874 8  85723796.74946
      -385.163        -300.129
  22825417.812    22825417.8424   22825419.4524  119948393.471 6  93466307.27044
      2503.205        1950.544
  23618835.619    23618834.6324   23618840.5584  124117831.100 4  96715208.48442
      -245.010        -190.917
  21743446.554    21743446.5794   21743447.7864  114262597.739 7  89035814.71445
     -1494.087       -1164.223
  20463487.435    20463486.8094   20463488.8854  107536381.817 8  83794606.99847
     -1526.627       -1189.581
  24758767.532    24758766.8294   24758768.3384  130108209.758 5 101383037.20242
      3358.184        2616.773
  23052940.537    23052939.3734   23052941.2724  121144039.525 6  94397971.53244
      1218.036         949.119
  22877436.033    22877435.1064   22877434.8234  120221750.001 7  93679313.62943
     -3712.872       -2893.148
  23050852.374    23050852.4214   23050855.8474  121133050.927 6  94389427.43243
     -1556.864       -1213.143
  21836103.461    21836103.1134   21836105.4904  114749513.659 8  89415231.53446
      1197.402         933.040
  23857237.636    23857237.8774   23857241.4664  125370639.835 5  97691435.71342
      2430.554        1893.918
  24465042.764    24465042.5804   24465044.1574  128564702.627 5 100180279.88741
     -4099.075       -3194.076
  25199469.391    25199467.6234   25199469.5254  132424094.935 4 103187631.14741
     -4397.017       -3426.230
 08  4 18  2 59  0.0000000  0 13G 3G 6G 7G10G13G16G19G21G23G24G25G27
                                G29
  21977241.290    21977240.9184   21977243.5764  115491158.371 7  89993171.33244
      2622.868        2043.791
  20936872.046    20936871.6374   20936874.6994  110024026.312 8  85733019.95346
      -403.878        -314.710
  22811157.855    22811157.7144   22811160.0034  119873456.955 7  93407915.23244
      2492.547        1942.243
  23620295.002    23620295.3854   23620299.7174  124125500.433 5  96721184.62542
      -266.229        -207.452
  21752038.822    21752038.7134   21752039.9334  114307750.123 7  89070998.38845
     -1516.013       -1181.313
  20472250.448    20472249.7574   20472251.8104  107582431.311 8  83830489.72747
     -1543.308       -1202.575
  24739602.702    24739601.9284   24739602.5074  130007497.808 5 101304560.29941
      3355.824        2614.922
  23046031.809    23046031.2574   23046032.7974  121107735.463 6  94369682.65644
      1202.223         936.791
  22898667.245    22898666.8624   22898666.5504  120333322.237 6  93766253.00944
     -3725.250       -2902.797
  23059795.414    23059794.8824   23059799.4004  121180047.927 6  94426048.44643
     -1576.224       -1228.221
  21829310.091    21829309.8144   21829312.7254  114713817.130 7  89387416.06646
      1182.376         921.331
  23843382.482    23843381.8594   23843385.9384  125297826.143 6  97634697.80543
      2423.794        1888.666
  24488460.465    24488460.3044   24488463.2824  128687763.495 5 100276171.39241
     -4104.962       -3198.659
 08  4 18  2 59 30.0000000  0 13G 3G 6G 7G10G13G16G19G21G23G24G25G27
                                G29
  21962303.914    21962302.8164   21962305.7354  115412658.297 7  89932002.45244
      2610.469        2034.127
  20939231.292    20939230.7624   20939233.7534  110036423.383 8  85742680.00346
      -422.545        -329.253
  22796959.556    22796959.4944   22796961.2424  119798842.213 6  93349773.87144
      2481.769        1933.843
  23621875.853    23621874.9554   23621880.1134  124133805.294 5  96727655.93742
      -287.462        -224.008
  21760755.615    21760755.4184   21760757.0744  114353557.662 7  89106692.58545
     -1537.796       -1198.287
  20481107.975    20481107.4914   20481109.5274  107628979.353 8  83866760.94947
     -1559.880       -1215.492
  24720451.140    24720450.3184   24720451.7114  129906859.807 4 101226141.00841
      3353.313        2612.978
  23039213.218    23039212.6304   23039214.5484  121071905.605 7  94341763.30644
      1186.426         924.486
  22919968.363    22919968.1064   22919967.7854  120445263.126 6  93853479.68743
     -3737.440       -2912.296
  23068849.753    23068848.8514   23068853.3284  121227625.247 6  94463121.71243
     -1595.538       -1243.275
  21822603.820    21822603.3824   21822606.0244  114678572.201 7  89359952.54446
      1167.276         909.564
  23829565.541    23829565.0454   23829568.4564  125225217.757 6  97578119.87743
      2416.849        1883.258
  24511911.240    24511911.2284   24511914.7524  128811001.572 5 100372200.93342
     -4110.823       -3203.217
 08  4 18  3  0  0.0000000  0 13G 3G 6G 7G10G13G16G19G21G23G24G25G27
                                G29
  21947437.004    21947436.1454   21947439.2594  115334533.808 7  89871126.22445
      2597.768        2024.242
  20941697.472    20941697.1174   20941700.0774  110049383.693 8  85752778.92446
      -441.465        -343.995
  22782822.087    22782822.3324   22782824.3404  119724554.503 6  93291887.36944
      2470.746        1925.255
  23623578.334    23623576.8354   23623582.2444  124142749.166 5  96734625.20142
      -308.937        -240.731
  21769597.649    21769597.3144   21769598.9804  114400021.821 7  89142898.37345
     -1559.819       -1215.442
  20490061.139    20490060.4974   20490062.5484  107676027.556 8  83903421.86047
     -1576.680       -1228.578
  24701316.909    24701314.3124   24701318.0874  129806300.188 5 101147783.07141
      3350.585        2610.823
  23032486.730    23032485.7614   23032487.0734  121036553.794 7  94314216.45744
      1170.342         911.956
  22941339.644    22941339.6524   22941339.9244  120557572.179 6  93940993.25543
     -3749.813       -2921.940
  23078013.349    23078012.6764   23078017.3944  121275784.178 6  94500648.20043
     -1615.073       -1258.499
  21815983.077    21815982.7864   21815985.7784  114643783.091 7  89332844.19646
      1151.947         897.622
  23815788.618    23815787.7844   23815791.4344  125152819.401 6  97521705.56743
      2409.657        1877.649
  24535397.212    24535397.4524   24535400.4544  128934416.985 6 100468368.70443
     -4116.862       -3207.955
 08  4 18  3  0 30.0000000  0 13G 3G 6G 7G10G13G16G19G21G23G24G25G27
                                G29
  21932642.511    21932641.5154   21932644.9164  115256788.441 7  89810545.42045
      2585.149        2014.401
  20944271.158    20944270.7734   20944273.7654  110062908.396 8  85763317.64646
      -460.247        -358.638
  22768749.224    22768749.1024   22768751.1434  119650596.903 6  93234258.07244
      2459.683        1916.634
  23625401.920    23625401.2674   23625406.0784  124152333.032 5  96742093.15942
      -330.150        -257.264
  21778564.324    21778564.1604   21778566.1264  114447143.365 7  89179616.48345
     -1581.672       -1232.472
  20499109.253    20499108.7424   20499110.7794  107723576.238 8  83940472.78247
     -1593.303       -1241.538
  24682195.697    24682195.4424   24682196.7644  129705823.065 5 101069489.20542
      3347.805        2608.698
  23025850.728    23025849.8534   23025851.6474  121001683.245 6  94287044.60044
      1154.281         899.438
  22962780.967    22962780.4154   22962781.9024  120670247.756 6  94028792.37543
     -3761.977       -2931.402
  23087288.209    23087287.9994   23087292.2084  121324524.655 6  94538627.82943
     -1634.392       -1273.555
  21809450.655    21809450.2854   21809452.6084  114609452.518 7  89306093.09746
      1136.664         885.711
  23802052.534    23802051.4094   23802055.4354  125080634.291 6  97465457.47043
      2402.529        1872.093
  24558916.778    24558916.4134   24558918.8614  129058008.910 6 100564674.00743
     -4122.666       -3212.465
 08  4 18  3  1  0.0000000  0 13G 3G 6G 7G10G13G16G19G21G23G24G25G27
                                G29
  21917921.547    21917920.8934   21917923.9074  115179429.043 7  89750265.38745
      2572.254        2004.360
  20946953.033    20946952.5624   20946955.6654  110077001.889 8  85774299.59646
      -479.181        -373.389
  22754739.107    22754739.1964   22754741.5124  119576976.923 6  93176891.84444
      2448.398        1907.835
  23627348.819    23627347.6344   23627352.2374  124162562.089 6  96750063.88942
      -351.712        -274.061
  21787657.167    21787656.9384   21787658.9034  114494925.227 8  89216849.13145
     -1603.630       -1249.577
  20508253.562    20508252.8664   20508254.9874  107771629.250 8  83977916.69147
     -1610.062       -1254.592
  24663093.200    24663091.1824   24663093.4894  129605434.931 5 100991264.74941
      3344.864        2606.420
  23019307.890    23019307.4434   23019308.3164  120967300.536 7  94260252.86844
      1138.010         886.763
  22984292.762    22984292.6864   22984293.0184  120783291.616 6  94116878.53543
     -3774.144       -2940.891
  23096675.328    23096674.3844   23096678.1774  121373850.214 6  94577063.38043
     -1653.845       -1288.717
  21803005.847    21803005.5434   21803008.5674  114575586.739 7  89279704.12046
      1121.177         873.646
  23788357.327    23788356.8754   23788360.7934  125008668.675 6  97409380.37443
      2395.192        1866.392
  24582469.687    24582469.1804   24582472.3334  129181779.508 5 100661118.60342
     -4128.634       -3217.123
 08  4 18  3  1 30.0000000  0 13G 3G 6G 7G10G13G16G19G21G23G24G25G27
                                G29
  21903274.107    21903273.2084   21903276.3594  115102456.831 6  89690287.05745
      2559.240        1994.208
  20949742.914    20949742.4214   20949745.4424  110091662.516 8  85785723.48346
      -498.135        -388.158
  22740794.723    22740794.3404   22740796.4354  119503695.139 6  93119789.17244
      2437.049        1898.993
  23629417.704    23629416.4634   23629420.7964  124173434.817 5  96758536.18742
      -373.253        -290.852
  21796875.056    21796874.4984   21796876.8564  114543364.307 7  89254593.91445
     -1625.572       -1266.684
  20517493.280    20517492.5584   20517494.6044  107820184.034 8  84015751.60247
     -1626.876       -1267.696
  24644007.822    24644006.7104   24644007.1624  129505136.488 5 100913110.17142
      3341.763        2603.969
  23012858.379    23012857.6144   23012858.8014  120933405.592 6  94233841.20244
      1121.665         874.029
  23005873.984    23005873.3624   23005873.9054  120896698.757 6  94205247.73143
     -3786.281       -2950.340
  23106172.170    23106171.7674   23106175.4374  121423758.145 6  94615952.68143
     -1673.296       -1303.863
  21796650.286    21796649.9384   21796652.5184  114542186.030 8  89253677.58846
      1105.581         861.490
  23774704.694    23774704.0824   23774707.5314  124936922.864 6  97353474.58743
      2387.872        1860.677
  24606052.831    24606052.6754   24606057.2194  129305724.793 4 100757699.26041
     -4134.465       -3221.672
 08  4 18  3  2  0.0000000  0 13G 3G 6G 7G10G13G16G19G21G23G24G25G27
                                G29
  21888700.608    21888699.9554   21888703.1724  115025872.630 7  89630611.06945
      2546.330        1984.152
  20952640.186    20952639.8874   20952642.9014  110106888.551 8  85797587.93746
      -516.971        -402.834
  22726913.811    22726914.0504   22726916.4264  119430752.621 7  93062950.87644
      2425.733        1890.190
  23631609.036    23631608.7434   23631612.3374  124184950.218 5  96767509.22643
      -394.547        -307.435
  21806216.909    21806216.8214   21806219.0074  114592458.146 7  89292848.84145
     -1647.370       -1283.664
  20526827.975    20526827.2524   20526829.2904  107869238.102 8  84053975.54547
     -1643.453       -1280.615
  24624934.273    24624934.1814   24624939.2044  129404926.622 4 100835024.69641
      3340.691        2603.097
  23006500.692    23006500.3464   23006501.9024  120899999.089 7  94207810.21244
      1105.407         861.347
  23027522.532    23027522.2064   23027521.8554  121010464.883 6  94293896.67643
     -3798.172       -2959.615
  23115779.657    23115779.1284   23115783.2014  121474245.743 6  94655293.60343
     -1692.538       -1318.851
  21790382.652    21790382.2024   21790384.9764  114509250.297 8  89228013.35546
      1090.102         849.427
  23761093.609    23761093.2294   23761096.7034  124865397.436 6  97297740.50943
      2380.433        1854.888
  24629672.940    24629673.2434   24629675.0334  129429841.123 5 100854413.32541
     -4140.060       -3226.018
 08  4 18  3  2 30.0000000  0 13G 3G 6G 7G10G13G16G19G21G23G24G25G27
                                G29
  21874200.859    21874200.5194   21874203.4414  114949677.561 7  89571238.30845
      2533.359        1974.044
  20955645.167    20955644.6624   20955647.7374  110122679.095 8  85809892.25946
      -535.721        -417.448
  22713098.179    22713098.3444   22713100.2264  119358150.927 6  93006378.12844
      2414.375        1881.332
  23633923.386    23633921.9504   23633926.0634  124197107.411 6  96776982.39143
      -415.946        -324.110
  21815683.531    21815683.2794   21815685.5124  114642204.969 7  89331612.54545
     -1669.085       -1300.582
  20536257.329    20536256.7664   20536258.7374  107918790.097 8  84092587.49447
     -1659.989       -1293.499
  24605886.653    24605885.2044   24605885.5054  129304809.802 5 100757011.42741
      3335.817        2599.338
  23000237.478    23000236.1194   23000237.7584  120867081.936 7  94182160.56244
      1089.075         848.636
  23049239.245    23049238.6934   23049238.6174  121124586.165 6  94382822.34943
     -3809.917       -2968.758
  23125497.085    23125497.0424   23125500.9084  121525311.276 6  94695084.87143
     -1711.816       -1333.882
  21784203.806    21784203.4194   21784206.3234  114476780.429 8  89202712.18546
      1074.555         837.313
  23747525.360    23747525.1064   23747528.1364  124794093.682 6  97242179.15343
      2373.093        1849.166
  24653324.845    24653324.6654   24653327.0904  129554125.375 5 100951258.18442
     -4145.562       -3230.311
 08  4 18  3  3  0.0000000  0 13G 3G 6G 7G10G13G16G19G21G23G24G25G27
                                G29
  21859776.015    21859775.7104   21859778.5284  114873874.207 7  89512170.76245
      2520.183        1963.785
  20958757.519    20958756.8774   20958759.7254  110139033.771 8  85822636.18046
      -554.599        -432.157
  22699347.802    22699347.8424   22699349.5974  119285892.152 7  92950072.59144
      2402.842        1872.344
  23636358.494    23636356.8294   23636361.9834  124209906.446 6  96786955.70043
      -437.336        -340.784
  21825274.046    21825273.8594   21825275.9154  114692603.111 7  89370883.83345
     -1690.842       -1317.544
  20545781.329    20545780.6844   20545782.6674  107968838.720 8  84131586.41747
     -1676.573       -1306.420
  24586852.444    24586851.1744   24586853.1004  129204786.709 5 100679071.43142
      3332.387        2596.665
  22994066.830    22994065.7064   22994067.1214  120834655.547 7  94156893.24144
      1072.624         835.808
  23071022.741    23071022.3894   23071021.3754  121239059.328 6  94472022.24243
     -3821.688       -2977.921
  23135324.459    23135323.5114   23135327.7674  121576953.075 6  94735325.27943
     -1731.024       -1348.854
  21778113.996    21778113.5934   21778115.9394  114444777.731 8  89177775.03346
      1058.919         825.132
  23733998.689    23733998.3484   23734001.9624  124723013.242 6  97186791.85343
      2365.576        1843.308
  24677006.912    24677006.7554   24677008.9944  129678574.917 6 101048231.78843
     -4151.089       -3234.604
 08  4 18  3  3 30.0000000  0 13G 3G 6G 7G10G13G16G19G21G23G24G25G27
                                G29
  21845425.781    21845425.4884   21845428.4104  114798464.517 7  89453409.95145
      2507.049        1953.542
  20961976.648    20961976.2674   20961979.2314  110155951.916 8  85835819.16646
      -573.344        -446.766
  22685663.436    22685663.0324   22685665.2654  119213978.532 6  92894036.00944
      2391.323        1863.366
  23638916.288    23638914.8084   23638919.1994  124223347.567 6  96797429.35543
      -458.767        -357.488
  21834987.677    21834987.6534   21834989.7634  114743651.140 7  89410661.51745
     -1712.422       -1334.352
  20555399.375    20555398.7814   20555400.8334  108019382.447 8  84170971.13347
     -1693.042       -1319.254
  24567837.246    24567836.0564   24567836.7544  129104858.729 5 100601205.52642
      3329.297        2594.259
  22987989.500    22987988.6854   22987990.2924  120802721.865 6  94132009.86944
      1056.196         823.008
  23092871.933    23092871.9214   23092872.2984  121353881.018 6  94561493.72343
     -3833.219       -2986.937
  23145261.025    23145260.1984   23145264.5194  121629169.736 6  94776013.66243
     -1750.084       -1363.702
  21772113.053    21772112.8634   21772115.6394  114413243.603 7  89153202.98546
      1043.309         812.968
  23720516.001    23720515.0344   23720519.1664  124652157.366 6  97131579.49643
      2358.054        1837.440
  24700719.487    24700719.3194   24700722.0934  129803187.414 5 101145332.44943
     -4156.380       -3238.753
 08  4 18  3  4  0.0000000  0 13G 3G 6G 7G10G13G16G19G21G23G24G25G27
                                G29
  21831152.386    21831151.6564   21831154.9414  114723454.876 7  89394960.91445
      2493.653        1943.103
  20965304.191    20965303.6434   20965306.5984  110173437.401 8  85849444.22446
      -592.290        -461.522
  22672044.843    22672044.9794   22672047.7154  119142416.343 6  92838273.29144
      2379.537        1854.181
  23641597.370    23641595.6974   23641599.8314  124237434.298 6  96808405.99343
      -480.349        -374.297
  21844826.235    21844826.0634   21844827.8854  114795351.301 7  89450947.35445
     -1734.173       -1351.302
  20565112.438    20565111.7964   20565113.7044  108070424.315 8  84210744.01047
     -1709.695       -1332.228
  24548838.975    24548837.7204   24548839.9884  129005032.115 5 100523418.54741
      3325.896        2591.597
  22982007.265    22982006.7514   22982008.5494  120771286.276 6  94107514.63744
      1039.556         810.042
  23114789.017    23114788.7384   23114788.8864  121469052.285 6  94651237.55743
     -3844.861       -2996.004
  23155306.887    23155306.4244   23155310.3974  121681963.442 6  94817151.62243
     -1769.394       -1378.745
  21766202.908    21766202.3384   21766204.5414  114382183.329 8  89129000.16746
      1027.444         800.608
  23707076.151    23707075.0144   23707078.7064  124581532.063 6  97076546.79743
      2350.385        1831.485
  24724462.253    24724462.1614   24724466.5234  129927964.409 4 101242561.24142
     -4162.014       -3243.113
 08  4 18  3  4 30.0000000  0 13G 3G 6G 7G10G13G16G19G21G23G24G25G27
                                G29
  21816954.676    21816954.0804   21816956.9074  114648845.095 7  89336823.42845
      2480.387        1932.769
  20968738.851    20968738.5084   20968741.4224  110191487.488 8  85863509.24546
      -611.005        -476.107
  22658494.068    22658494.1424   22658496.0914  119071205.404 6  92782784.28344
      2367.839        1845.070
  23644400.233    23644398.9114   23644402.7294  124252164.475 6  96819884.02443
      -501.653        -390.912
  21854787.914    21854787.8464   21854789.6404  114847700.046 7  89491738.59745
     -1755.674       -1368.060
  20574919.427    20574918.8264   20574920.8354  108121960.969 8  84250902.45847
     -1726.070       -1344.992
  24529863.640    24529861.0714   24529863.9424  128905307.174 5 100445710.92642
      3322.573        2589.021
  22976120.668    22976119.6174   22976120.9994  120740348.564 6  94083407.33444
      1022.995         797.143
  23136770.390    23136770.0734   23136771.2254  121584567.523 6  94741249.41343
     -3856.142       -3004.786
  23165462.555    23165462.2544   23165466.0354  121735330.957 6  94858736.72343
     -1788.410       -1393.571
  21760382.171    21760381.8344   21760384.4724  114351596.247 8  89105166.06846
      1011.745         788.374
  23693679.484    23693679.5934   23693682.9724  124511137.057 6  97021693.56543
      2342.701        1825.483
  24748235.800    24748236.6144   24748239.9904  130052901.212 4 101339914.44141
     -4167.194       -3247.155
 08  4 18  3  5  0.0000000  0 13G 3G 6G 7G10G13G16G19G21G23G24G25G27
                                G29
  21802833.201    21802832.5284   21802835.7484  114574637.518 7  89278999.37745
      2466.872        1922.233
  20972281.205    20972280.7034   20972283.6824  110210101.977 8  85878014.05246
      -629.868        -490.808
  22645010.600    22645010.5064   22645012.3024  119000348.454 6  92727571.09344
      2356.009        1835.853
  23647324.809    23647324.0064   23647328.9484  124267538.753 6  96831863.96043
      -523.180        -407.685
  21864872.862    21864872.6034   21864874.3194  114900696.239 7  89533034.30345
     -1777.262       -1384.877
  20584820.510    20584819.9314   20584821.9884  108173991.861 8  84291446.01347
     -1742.577       -1357.854
  24510904.965    24510904.6774   24510904.6824  128805685.761 5 100368083.79742
      3318.960        2586.200
  22970327.090    22970327.2684   22970328.9514  120709909.911 6  94059688.91144
      1006.290         784.109
  23158817.432    23158817.1894   23158817.4504  121700423.810 6  94831527.00443
     -3867.494       -3013.628
  23175727.100    23175726.7424   23175730.6654  121789271.025 6  94900767.96143
     -1807.521       -1408.453
  21754652.060    21754651.6704   21754654.1104  114321483.978 7  89081701.93446
       995.823         775.970
  23680328.539    23680328.1234   23680331.3184  124440974.215 6  96967021.24143
      2334.922        1819.430
  24772043.427    24772041.4334   24772042.7724  130177995.362 5 101437390.39141
     -4172.410       -3251.231
 08  4 18  3  5 30.0000000  0 13G 3G 6G 7G10G13G16G19G21G23G24G25G27
                                G29
  21788788.731    21788788.1544   21788790.9714  114500833.589 7  89221489.83045
      2453.383        1911.728
  20975930.610    20975930.1574   20975933.0624  110229279.856 8  85892957.87846
      -648.646        -505.441
  22631595.098    22631595.0634   22631597.1044  118929847.101 6  92672634.97644
      2344.111        1826.584
  23650373.862    23650371.9864   23650376.9454  124283556.128 6  96844345.03343
      -544.654        -424.402
  21875080.285    21875080.3104   21875081.6254  114954338.019 7  89574833.08745
     -1798.809       -1401.668
  20594815.354    20594814.7664   20594816.8094  108226515.258 8  84332373.37647
     -1758.978       -1370.631
  24491968.161    24491966.7444   24491969.4864  128706169.179 5 100290538.35341
      3315.413        2583.433
  22964630.539    22964630.4244   22964631.8284  120679971.639 6  94036360.41344
       989.602         771.119
  23180928.409    23180927.8814   23180928.4294  121816617.667 6  94922067.68743
     -3878.731       -3022.384
  23186100.537    23186099.8204   23186103.2654  121843781.635 6  94943243.75543
     -1826.533       -1423.276
  21749012.377    21749011.8064   21749014.4904  114291847.361 7  89058608.47246
       979.941         763.593
  23667022.012    23667021.3084   23667024.2464  124371044.978 6  96912530.93043
      2327.010        1813.264
  24795876.728    24795877.0354   24795879.7544  130303244.192 6 101534987.05041
     -4177.463       -3255.162
 08  4 18  3  6  0.0000000  0 13G 3G 6G 7G10G13G16G19G21G23G24G25G27
                                G29
  21774822.021    21774821.1694   21774824.3174  114427437.682 7  89164298.21045
      2439.704        1901.064
  20979687.588    20979687.0854   20979690.0384  110249022.849 8  85908342.05346
      -667.518        -520.146
  22618247.754    22618247.3354   22618249.2094  118859705.677 7  92617979.32744
      2332.031        1817.168
  23653544.045    23653543.0294   23653547.6564  124300218.758 5  96857328.90643
      -566.125        -441.130
  21885410.927    21885410.8374   21885412.4694  115008625.762 7  89617135.23445
     -1820.362       -1418.467
  20604904.024    20604903.5154   20604905.4844  108279532.166 8  84373685.29947
     -1775.436       -1383.458
  24473052.538    24473051.3574   24473052.3814  128606761.951 5 100213078.15942
      3311.710        2580.547
  22959029.483    22959029.0454   22959030.9474  120650537.378 6  94013424.63144
       972.728         757.974
  23203104.204    23203103.2664   23203102.2154  121933147.827 6  95012870.43243
     -3889.919       -3031.117
  23196581.250    23196581.0314   23196585.0574  121898863.525 6  94986164.73543
     -1845.538       -1438.085
  21743464.018    21743463.6024   21743466.1474  114262690.047 8  89035888.49346
       963.920         751.109
  23653758.956    23653758.9004   23653762.7524  124301353.290 6  96858225.72643
      2319.075        1807.071
  24819740.813    24819740.7814   24819743.0724  130428647.210 5 101632703.59042
     -4182.628       -3259.183
 08  4 18  3  6 30.0000000  0 13G 3G 6G 7G10G13G16G19G21G23G24G25G27
                                G29
  21760933.134    21760932.7294   21760935.7184  114354451.518 7  89107425.87545
      2425.931        1890.330
  20983551.713    20983551.3104   20983554.3004  110269329.820 8  85924165.69046
      -686.348        -534.820
  22604968.945    22604968.7224   22604970.6024  118789925.809 7  92563605.39644
      2319.854        1807.684
  23656836.765    23656836.6484   23656841.0284  124317525.111 5  96870814.34443
      -587.634        -457.888
  21895864.583    21895864.2464   21895865.7814  115063557.064 7  89659938.80345
     -1841.847       -1435.208
  20615086.418    20615085.7614   20615087.7554  108333040.247 8  84415379.91447
     -1791.854       -1396.248
  24454155.750    24454154.2184   24454156.9374  128507465.574 5 100135704.33842
      3307.837        2577.532
  22953524.641    22953523.7904   22953525.6564  120621608.247 7  93990882.45844
       955.783         744.758
  23225341.890    23225341.4094   23225340.8094  122050010.237 6  95103932.07643
     -3900.952       -3039.709
  23207171.506    23207170.6814   23207174.8464  121954514.124 6  95029528.83443
     -1864.505       -1452.865
  21738006.511    21738006.2034   21738008.7434  114234012.372 7  89013542.22446
       947.815         738.557
  23640543.446    23640542.1604   23640545.9094  124231900.070 5  96804106.33443
      2311.035        1800.809
  24843634.144    24843632.9514   24843635.6334  130554201.761 5 101730538.30442
     -4187.772       -3263.212
 08  4 18  3  7  0.0000000  0 13G 3G 6G 7G10G13G16G19G21G23G24G25G27
                                G29
  21747123.034    21747122.1364   21747125.5254  114281878.050 7  89050875.13845
      2412.269        1879.680
  20987523.365    20987522.9834   20987525.9354  110290201.184 8  85940429.10746
      -705.057        -549.392
  22591759.625    22591759.2234   22591761.3244  118720510.528 6  92509515.54644
      2307.766        1798.261
  23660253.664    23660252.2864   23660256.7514  124335476.836 6  96884802.66643
      -609.112        -474.641
  21906439.955    21906439.8414   21906441.0034  115119131.610 7  89703243.65845
     -1863.104       -1451.769
  20625362.218    20625361.6574   20625363.5454  108387039.765 8  84457457.44947
     -1808.106       -1408.914
  24435282.602    24435281.6794   24435283.2494  128408282.631 5 100058418.86842
      3304.191        2574.680
  22948115.903    22948115.2884   22948117.5614  120593186.096 6  93968735.31944
       938.983         731.666
  23247642.659    23247642.4294   23247642.5834  122167202.687 6  95195250.85643
     -3911.838       -3048.177
  23217869.550    23217869.2094   23217873.1954  122010733.291 6  95073335.99143
     -1883.353       -1467.557
  21732641.728    21732641.1344   21732643.5114  114205816.997 7  88991571.78846
       931.869         726.135
  23627372.256    23627372.0434   23627375.1684  124162688.252 6  96750175.06943
      2302.949        1794.507
  24867552.096    24867552.5304   24867555.4884  130679906.219 4 101828489.80841
     -4192.445       -3266.838
 08  4 18  3  7 30.0000000  0 13G 3G 6G 7G10G13G16G19G21G23G24G25G27
                                G29
  21733391.300    21733390.7074   21733393.5804  114209718.107 7  88994646.59545
      2398.412        1868.895
  20991602.181    20991601.7444   20991604.6104  110311635.230 8  85957130.98046
      -723.842        -564.037
  22578620.166    22578619.8334   22578621.5144  118651461.245 7  92455710.89644
      2295.530        1788.728
  23663791.818    23663790.9304   23663795.1874  124354071.986 5  96899292.36243
      -630.603        -491.370
  21917137.256    21917136.9884   21917138.3204  115175346.267 7  89747047.29445
     -1884.454       -1468.402
  20635731.024    20635730.3264   20635732.2704  108441527.871 8  84499915.72647
     -1824.396       -1421.608
  24416430.758    24416430.2054   24416429.6014  128309214.725 5  99981223.03442
      3300.472        2571.792
  22942803.979    22942803.3924   22942805.8324  120565271.942 6  93946984.07144
       922.051         718.476
  23270005.919    23270005.1214   23270005.1634  122284720.871 6  95286823.45443
     -3922.656       -3056.614
  23228675.028    23228674.0854   23228678.6184  122067517.888 5  95117583.73043
     -1902.225       -1482.248
  21727367.673    21727367.1504   21727369.6264  114178103.918 8  88969977.19046
       915.712         713.532
  23614247.641    23614247.0714   23614251.6194  124093718.289 6  96696432.26643
      2294.964        1788.281
  24891502.263    24891501.2284   24891503.4214  130805756.235 5 101926554.58041
     -4197.387       -3270.691
 08  4 18  3  8  0.0000000  0 13G 3G 6G 7G10G13G16G19G21G23G24G25G27
                                G29
  21719739.340    21719738.3574   21719741.2824  114137974.445 7  88938742.44645
      2384.404        1857.972
  20995788.022    20995787.5374   20995790.4074  110333631.559 8  85974270.98346
      -742.646        -578.685
  22565550.759    22565550.4774   22565552.0404  118582780.105 7  92402193.10744
      2283.106        1779.042
  23667453.242    23667451.9644   23667456.4644  124373310.588 6  96914283.48343
      -652.091        -508.139
  21927955.897    21927955.8504   21927957.8274  115232199.336 7  89791348.39645
     -1905.814       -1485.050
  20646192.510    20646191.8664   20646193.8594  108496503.918 8  84542754.24547
     -1840.743       -1434.350
  24397600.973    24397599.3994   24397600.3114  128210263.488 5  99904118.22242
      3296.219        2568.484
  22937590.023    22937588.9304   22937590.8084  120537867.432 6  93925629.90644
       904.903         705.113
  23292430.097    23292430.0954   23292429.9124  122402561.667 6  95378647.43543
     -3933.417       -3065.015
  23239587.757    23239587.9384   23239591.7254  122124866.509 6  95162271.00043
     -1921.100       -1496.959
  21722186.156    21722185.8234   21722188.4644  114150874.488 8  88948759.44346
       899.454         700.873
  23601169.204    23601169.0034   23601172.2344  124024991.916 5  96642879.26842
      2286.650        1781.802
  24915477.438    24915477.6934   24915480.2694  130931750.569 5 102024731.94142
     -4202.362       -3274.550
 08  4 18  3  8 30.0000000  0 13G 3G 6G 7G10G13G16G19G21G23G24G25G27
                                G29
  21706166.154    21706165.4984   21706168.7014  114066648.841 7  88883164.04645
      2370.542        1847.176
  21000080.646    21000080.2294   21000083.0894  110356190.055 8  85991849.04646
      -761.319        -593.236
  22552551.083    22552550.8384   22552552.9874  118514469.731 7  92348964.25044
      2270.811        1769.465
  23671236.328    23671235.2584   23671240.1104  124393192.969 6  96929776.31443
      -673.465        -524.780
  21938895.726    21938895.6814   21938897.9754  115289689.727 7  89836146.10045
     -1926.972       -1501.539
  20656746.878    20656746.1904   20656748.1474  108551966.913 8  84585972.14847
     -1856.874       -1446.912
  24378793.318    24378792.5624   24378793.3054  128111431.209 5  99827106.10442
      3292.463        2565.573
  22932471.205    22932470.8674   22932472.8234  120510973.971 6  93904673.96644
       887.901         691.862
  23314915.620    23314915.0744   23314914.0994  122520722.173 6  95470720.59543
     -3943.997       -3073.252
  23250608.728    23250608.1374   23250612.2474  122182778.123 6  95207396.92843
     -1939.731       -1511.486
  21717097.183    21717096.6914   21717098.9374  114124130.637 8  88927920.08046
       883.365         688.339
  23588138.647    23588138.2344   23588141.0884  123956511.759 6  96589518.14143
      2278.615        1775.543
  24939479.896    24939480.0344   24939483.7504  131057886.689 5 102123019.86241
     -4206.871       -3278.076
 08  4 18  3  9  0.0000000  0 13G 3G 6G 7G10G13G16G19G21G23G24G25G27
                                G29
  21692673.213    21692672.6904   21692675.5244  113995742.950 7  88827912.70445
      2356.490        1836.229
  21004480.204    21004479.6794   21004482.5434  110379309.311 8  86009864.04846
      -779.986        -607.780
  22539622.985    22539622.9524   22539624.4214  118446531.541 7  92296025.39444
      2258.330        1759.737
  23675142.465    23675141.4024   23675145.4814  124413717.749 6  96945769.71143
      -694.923        -541.505
  21949957.022    21949956.7414   21949958.5804  115347815.229 7  89881438.70045
     -1948.057       -1517.961
  20667393.376    20667392.7074   20667394.7844  108607915.214 8  84629568.25347
     -1873.022       -1459.496
  24360009.162    24360007.7604   24360009.5514  128012719.632 5  99750188.01742
      3288.324        2562.348
  22927451.362    22927450.5904   22927452.5044  120484592.221 6  93884116.76544
       870.802         678.545
  23337460.062    23337460.1214   23337459.9914  122639198.596 6  95563039.88643
     -3954.434       -3081.379
  23261735.465    23261735.5724   23261738.9274  122241250.498 6  95252959.83843
     -1958.398       -1526.024
  21712099.955    21712099.7164   21712102.5404  114097872.876 7  88907459.49346
       867.148         675.701
  23575154.048    23575153.5744   23575156.0504  123888278.757 6  96536349.55643
      2270.279        1769.050
  24963509.742    24963509.9654   24963511.7224  131184161.886 5 102221416.26741
     -4211.429       -3281.661
 08  4 18  3  9 30.0000000  0 13G 3G 6G 7G10G13G16G19G21G23G24G25G27
                                G29
  21679260.103    21679259.5094   21679262.7954  113925256.999 7  88772988.59145
      2342.470        1825.304
  21008985.855    21008985.3344   21008988.1934  110402986.869 8  86028314.10846
      -798.584        -622.273
  22526765.478    22526765.4654   22526767.4574  118378965.722 6  92243376.71244
      2245.947        1750.089
  23679169.611    23679168.9824   23679173.3194  124434883.333 6  96962262.40243
      -716.274        -558.140
  21961138.273    21961137.9464   21961139.6774  115406571.879 7  89927223.09245
     -1969.116       -1534.377
  20678131.532    20678130.9034   20678133.0354  108664345.126 8  84673539.63447
     -1889.042       -1471.984
  24341247.230    24341245.8654   24341248.0364  127914128.634 5  99673363.88442
      3284.178        2559.100
  22922528.397    22922527.8164   22922529.4844  120458721.805 6  93863958.00044
       853.843         665.337
  23360065.123    23360064.4984   23360064.8314  122757985.423 6  95655601.02843
     -3964.723       -3089.391
  23272968.160    23272968.2454   23272972.0414  122300279.867 6  95298956.79243
     -1976.969       -1540.495
  21707196.035    21707195.6094   21707198.0084  114072100.479 8  88887377.13046
       850.919         663.053
  23562216.906    23562216.0714   23562219.4214  123820292.499 6  96483373.25843
      2262.122        1762.692
  24987562.650    24987563.8654   24987567.3364  131310571.608 4 102319917.41441
     -4215.949       -3285.168
 08  4 18  3 10  0.0000000  0 13G 3G 6G 7G10G13G16G19G21G23G24G25G27
                                G29
  21665927.940    21665927.1124   21665930.2504  113855194.238 7  88718394.24745
      2328.406        1814.342
  21013597.782    21013597.4324   21013600.2464  110427223.493 8  86047199.79246
      -817.138        -636.732
  22513979.615    22513979.5384   22513981.5784  118311776.096 7  92191021.16944
      2233.427        1740.334
  23683319.072    23683318.4684   23683322.9564  124456690.119 6  96979254.72143
      -737.547        -574.721
  21972439.126    21972438.9724   21972440.5874  115465959.643 7  89973499.26045
     -1990.023       -1550.664
  20688961.538    20688960.9434   20688963.0774  108721257.270 8  84717886.75247
     -1905.033       -1484.439
  24322509.899    24322508.3904   24322510.4244  127815661.501 5  99596636.38042
      3280.228        2556.009
  22917703.857    22917702.9654   22917704.3524  120433365.929 7  93844200.17644
       836.598         651.925
  23382728.057    23382727.9924   23382728.1504  122877080.997 6  95748402.78843
     -3974.875       -3097.308
  23284306.996    23284307.2564   23284311.3864  122359866.015 6  95345387.56343
     -1995.455       -1554.910
  21702384.303    21702383.9634   21702386.7074  114046816.076 8  88867675.01346
       834.728         650.438
  23549326.904    23549326.0624   23549329.9514  123752556.187 6  96430591.75943
      2253.729        1756.145
  25011643.834    25011644.3284   25011647.6084  131437114.878 4 102418522.52241
     -4220.157       -3288.439
 08  4 18  3 10 30.0000000  0 13G 3G 6G 7G10G13G16G19G21G23G24G25G27
                                G29
  21652676.890    21652676.2254   21652679.0424  113785559.915 7  88664133.74545
      2314.108        1803.200
  21018316.622    21018316.2804   21018319.1554  110452021.126 8  86066522.63946
      -835.818        -651.291
  22501266.618    22501266.3404   22501267.9824  118244967.320 7  92138962.38144
      2220.644        1730.370
  23687591.530    23687590.5524   23687594.6724  124479140.329 6  96996748.41543
      -758.911        -591.370
  21983860.463    21983860.2084   21983861.6404  115525978.980 7  90020267.56545
     -2011.036       -1567.038
  20699883.646    20699882.9384   20699885.0464  108778652.680 8  84762610.44847
     -1921.125       -1496.982
  24303796.902    24303795.3614   24303796.4144  127717322.983 5  99520008.96442
      3275.894        2552.641
  22912977.115    22912976.2104   22912977.8864  120408528.123 6  93824845.98044
       819.455         638.559
  23405449.567    23405449.8424   23405450.2664  122996484.694 6  95841444.61743
     -3985.112       -3105.288
  23295752.425    23295751.8874   23295756.1694  122420009.711 6  95392252.82543
     -2014.006       -1569.368
  21697666.492    21697666.1084   21697668.7474  114022023.587 8  88848356.17546
       818.296         637.633
  23536485.638    23536485.4504   23536488.5934  123685074.131 6  96378008.35543
      2245.273        1749.572
  25035750.981    25035751.2054   25035753.1434  131563791.533 5 102517231.59741
     -4224.571       -3291.866
 08  4 18  3 11  0.0000000  0 13G 3G 6G 7G10G13G16G19G21G23G24G25G27
                                G29
  21639506.589    21639505.9954   21639509.1084  113716350.258 7  88610204.11445
      2299.839        1792.080
  21023141.299    21023140.8244   21023143.6604  110477374.285 8  86086278.34946
      -854.412        -665.774
  22488625.134    22488625.2254   22488627.1664  118178536.988 7  92087198.48944
      2207.989        1720.514
  23691985.531    23691984.4804   23691988.7224  124502229.016 5  97014739.56343
      -780.300        -608.032
  21995400.554    21995400.4004   21995401.8534  115586623.093 7  90067522.70545
     -2031.910       -1583.313
  20710896.490    20710895.7404   20710897.7644  108836525.182 8  84807705.91047
     -1937.056       -1509.396
  24285107.024    24285106.1614   24285108.3984  127619110.667 5  99443480.03742
      3271.525        2549.240
  22908348.998    22908347.8394   22908349.0644  120384205.349 6  93805893.17944
       802.143         625.038
  23428228.880    23428228.4704   23428228.0704  123116188.421 6  95934720.22243
     -3995.169       -3113.126
  23307302.149    23307302.0414   23307305.7234  122480704.234 6  95439547.21643
     -2032.308       -1583.605
  21693041.660    21693041.1644   21693043.7194  113997719.292 8  88829417.76846
       801.956         624.898
  23523692.021    23523691.4594   23523694.2774  123617843.453 6  96325620.79143
      2236.769        1742.942
  25059880.944    25059881.0194   25059882.9934  131690594.509 5 102616039.08542
     -4228.874       -3295.220
 08  4 18  3 11 30.0000000  0 13G 3G 6G 7G10G13G16G19G21G23G24G25G27
                                G29
  21626417.767    21626417.1314   21626420.3594  113647568.991 7  88556608.33945
      2285.494        1780.906
  21028071.482    21028071.1824   21028074.0224  110503283.507 8  86106467.36546
      -872.934        -680.206
  22476056.810    22476056.7274   22476058.4454  118112488.472 7  92035732.14345
      2195.165        1710.519
  23696500.316    23696499.3074   23696504.1514  124525956.771 5  97033228.70543
      -801.606        -624.622
  22007059.095    22007059.1564   22007060.6054  115647891.533 7  90115264.30545
     -2052.721       -1599.524
  20722000.001    20721999.3654   20722001.4004  108894875.200 8  84853173.48047
     -1952.981       -1521.804
  24266442.894    24266441.0604   24266442.4454  127521027.075 5  99367051.31542
      3267.257        2545.900
  22903818.281    22903817.5804   22903819.3614  120360400.074 6  93787343.62044
       784.737         611.481
  23451063.986    23451063.9414   23451063.8154  123236190.085 6  96028228.03643
     -4005.059       -3120.816
  23318956.576    23318956.4664   23318960.4674  122541949.585 6  95487270.90043
     -2050.738       -1597.981
  21688509.993    21688509.5444   21688512.3674  113973906.064 8  88810862.02346
       785.553         612.117
  23510946.579    23510946.0214   23510949.7174  123550867.308 6  96273431.63243
      2228.246        1736.281
  25084034.481    25084034.4644   25084037.2994  131817522.895 5 102714944.34341
     -4233.033       -3298.490
 08  4 18  3 12  0.0000000  0 13G 3G 6G 7G10G13G16G19G21G23G24G25G27
                                G29
  21613411.689    21613411.0354   21613413.8444  113579220.562 7  88503349.84045
      2271.045        1769.647
  21033108.056    21033107.5544   21033110.5584  110529749.922 8  86127090.54146
      -891.459        -694.651
  22463560.951    22463561.0174   22463563.3944  118046825.533 6  91984566.22645
      2182.364        1700.538
  23701137.616    23701136.8414   23701140.8194  124550325.306 6  97052217.15743
      -822.855        -641.184
  22018836.862    22018836.8434   22018838.6214  115709784.419 7  90163492.56644
     -2073.431       -1615.667
  20733194.469    20733193.8674   20733195.8304  108953702.813 8  84899013.17947
     -1968.845       -1534.173
  24247803.619    24247802.6324   24247804.6514  127423076.071 5  99290725.92442
      3262.838        2542.460
  22899387.005    22899386.9654   22899388.1774  120337114.852 6  93769199.28344
       767.607         598.136
  23473955.605    23473955.2174   23473955.1744  123356488.149 6  96121966.78043
     -4014.807       -3128.439
  23330715.698    23330714.9784   23330719.9784  122603745.397 6  95535423.51243
     -2068.956       -1612.185
  21684072.645    21684072.1174   21684074.6144  113950586.404 8  88792690.88846
       769.114         599.310
  23498251.117    23498250.5364   23498253.2044  123484149.030 6  96221443.36943
      2219.704        1729.640
  25108211.020    25108211.1664   25108214.6454  131944575.813 5 102813946.60741
     -4237.007       -3301.552
 08  4 18  3 12 30.0000000  0 13G 3G 6G 7G10G13G16G19G21G23G24G25G27
                                G29
  21600488.322    21600487.8174   21600490.9064  113511308.734 7  88450431.57045
      2256.500        1758.310
  21038250.909    21038250.2434   21038253.2584  110556774.910 8  86148148.96646
      -910.090        -709.160
  22451140.018    22451139.9934   22451142.1054  117981552.584 6  91933704.23044
      2169.301        1690.364
  23705896.544    23705896.0074   23705900.7674  124575335.987 6  97071706.00443
      -844.288        -657.880
  22030734.288    22030733.8724   22030735.6424  115772301.694 7  90212207.29445
     -2094.219       -1631.859
  20744480.166    20744479.4904   20744481.3874  109013008.911 8  84945225.72447
     -1984.770       -1546.570
  24229189.331    24229188.6314   24229190.5104  127325262.290 5  99214507.44642
      3258.192        2538.833
  22895056.393    22895055.5404   22895056.9904  120314353.804 6  93751463.39644
       750.021         584.418
  23496904.594    23496904.3154   23496904.0374  123477081.479 6  96215935.59143
     -4024.546       -3136.010
  23342580.036    23342579.3874   23342584.1714  122666092.309 6  95584005.54043
     -2087.345       -1626.509
  21679729.517    21679728.9364   21679731.7034  113927763.870 8  88774907.09246
       752.500         586.366
  23485604.626    23485604.0604   23485606.0624  123417692.543 6  96169659.05743
      2210.868        1722.753
  25132413.275    25132413.1644   25132415.9814  132071753.253 5 102913045.92241
     -4241.260       -3304.879
 08  4 18  3 13  0.0000000  0 13G 3G 6G 7G10G13G16G19G21G23G24G25G27
                                G29
  21587648.795    21587648.1124   21587651.2094  113443835.718 7  88397855.22245
      2241.774        1746.833
  21043499.669    21043499.2374   21043502.1474  110584358.453 8  86169642.65146
      -928.702        -723.665
  22438793.986    22438794.0644   22438795.7754  117916672.526 7  91883148.33445
      2156.105        1680.083
  23710778.728    23710777.2914   23710781.4664  124600988.798 6  97091695.20643
      -865.759        -674.625
  22042749.096    22042748.9994   22042750.6614  115835442.379 7  90261407.85045
     -2115.014       -1648.062
  20755856.814    20755856.0324   20755857.8154  109072792.906 8  84991810.65247
     -2000.727       -1559.006
  24210603.570    24210602.8924   24210602.9304  127227588.330 5  99138397.90242
      3253.434        2535.154
  22890824.769    22890824.0814   22890826.1584  120292118.629 7  93734137.28444
       732.401         570.710
  23519908.071    23519907.4564   23519907.4074  123597967.260 6  96310132.30543
     -4034.355       -3143.647
  23354548.746    23354548.8014   23354552.9854  122728989.084 6  95633016.03843
     -2105.712       -1640.806
  21675481.501    21675481.2024   21675483.5874  113905440.443 8  88757512.21846
       735.792         573.348
  23473008.383    23473007.9014   23473011.1294  123351500.354 6  96118080.73643
      2201.980        1715.827
  25156638.052    25156637.6914   25156638.7584  132199053.465 5 103012240.84941
     -4245.409       -3308.116
 08  4 18  3 13 30.0000000  0 13G 3G 6G 7G10G13G16G19G21G23G24G25G27
                                G29
  21574893.084    21574892.5744   21574895.5164  113376804.113 7  88345622.79845
      2227.095        1735.395
  21048854.808    21048854.3154   21048857.2874  110612499.647 8  86191570.85346
      -947.213        -738.090
  22426523.003    22426522.4734   22426524.8754  117852187.299 7  91832900.11644
      2142.948        1669.835
  23715782.413    23715780.4444   23715785.7284  124627282.540 5  97112183.83142
      -887.019        -691.177
  22054882.180    22054882.5184   22054884.7094  115899204.239 7  90311092.42845
     -2135.639       -1664.133
  20767323.703    20767323.1914   20767324.9814  109133052.973 8  85038766.55247
     -2016.511       -1571.311
  24192043.282    24192042.1204   24192044.2254  127130056.237 5  99062398.96242
      3248.817        2531.556
  22886694.361    22886693.3314   22886694.8764  120270410.608 6  93717221.93444
       714.922         557.081
  23542967.143    23542966.5014   23542966.4384  123719142.433 6  96404554.49743
     -4043.854       -3151.054
  23366622.431    23366621.6814   23366625.4624  122792433.737 6  95682453.42143
     -2123.850       -1654.950
  21671328.646    21671328.1904   21671330.6724  113883616.897 7  88740506.85546
       719.223         560.437
  23460463.897    23460462.7054   23460466.6374  123285573.929 6  96066709.49344
      2193.216        1709.005
  25180885.211    25180884.8474   25180887.4024  132326473.638 4 103111529.13741
     -4249.272       -3311.121
 08  4 18  3 14  0.0000000  0 13G 3G 6G 7G10G13G16G19G21G23G24G25G27
                                G29
  21562221.285    21562220.7494   21562223.7644  113310213.900 7  88293734.34945
      2212.317        1723.887
  21054315.471    21054315.0934   21054318.0444  110641196.153 8  86213931.77346
      -965.780        -752.549
  22414327.254    22414326.9744   22414328.8964  117788097.589 7  91782960.07545
      2129.743        1659.539
  23720907.472    23720905.7244   23720910.5784  124654215.929 6  97133170.85543
      -908.440        -707.867
  22067133.535    22067133.3924   22067135.4464  115963583.739 7  90361258.26245
     -2156.235       -1680.185
  20778881.129    20778880.3934   20778882.2134  109193786.760 8  85086091.57047
     -2032.313       -1583.620
  24173509.812    24173509.4894   24173509.9244  127032665.708 5  98986510.23142
      3244.042        2527.832
  22882663.109    22882662.3754   22882664.3744  120249229.387 6  93700717.07944
       697.274         543.331
  23566079.719    23566079.4364   23566079.2254  123840602.051 6  96499198.36843
     -4053.351       -3158.451
  23378798.506    23378798.1664   23378802.3104  122856422.599 6  95732314.81543
     -2142.040       -1669.118
  21667270.581    21667270.3454   21667272.5864  113862292.958 8  88723890.81746
       702.462         547.372
  23447968.840    23447968.1394   23447971.5484  123219913.649 6  96015545.66444
      2184.231        1701.998
  25205154.704    25205154.1744   25205157.4044  132454010.217 5 103210908.20241
     -4253.066       -3314.106
 08  4 18  3 14 30.0000000  0 13G 3G 6G 7G10G13G16G19G21G23G24G25G27
                                G29
  21549634.207    21549633.6544   21549636.4154  113244067.433 7  88242191.67145
      2197.495        1712.340
  21059881.874    21059881.4874   21059884.3704  110670447.581 8  86236725.09046
      -984.229        -766.929
  22402206.424    22402206.4714   22402208.6794  117724405.856 7  91733330.16345
      2116.448        1649.180
  23726154.198    23726152.9444   23726157.5594  124681788.272 6  97154655.80343
      -929.703        -724.458
  22079501.753    22079501.5084   22079503.5194  116028579.429 7  90411904.25944
     -2176.729       -1696.147
  20790528.177    20790527.6144   20790529.3784  109254993.099 8  85133784.81047
     -2048.029       -1595.863
  24155005.045    24155003.8994   24155004.7454  126935419.683 5  98910734.11942
      3239.095        2523.986
  22878733.187    22878732.0584   22878733.9824  120228576.299 6  93684623.75444
       679.681         529.624
  23589246.532    23589246.6184   23589246.7744  123962343.346 6  96594061.70043
     -4062.629       -3165.694
  23391079.393    23391078.5454   23391082.1024  122920954.437 6  95782599.33643
     -2160.030       -1683.137
  21663308.424    21663308.0164   21663310.4234  113841470.321 8  88707665.39946
       685.779         534.377
  23435525.059    23435524.1294   23435527.3294  123154521.668 6  95964590.88943
      2175.285        1695.022
  25229445.722    25229445.1934   25229449.3174  132581661.374 5 103310376.60341
     -4256.801       -3316.960
 08  4 18  3 15  0.0000000  0 13G 3G 6G 7G10G13G16G19G21G23G24G25G27
                                G29
  21537131.911    21537131.4214   21537134.4484  113178368.711 7  88190997.88845
      2182.455        1700.615
  21065554.066    21065553.6444   21065556.5954  110700255.060 8  86259951.70446
     -1002.889        -781.472
  22390163.074    22390162.9104   22390165.1274  117661116.272 7  91684013.63445
      2102.887        1638.609
  23731523.460    23731522.3034   23731526.4414  124710001.171 6  97176639.86542
      -951.142        -741.156
  22091987.383    22091987.2174   22091988.6494  116094191.137 7  90463030.28344
     -2197.330       -1712.206
  20802265.558    20802264.7794   20802266.6334  109316672.595 8  85181846.75047
     -2063.886       -1608.228
  24136528.342    24136526.9624   24136528.8864  126838322.268 5  98835073.86443
      3234.008        2520.017
  22874904.112    22874903.3524   22874905.1154  120208454.832 7  93668944.68744
       661.829         515.718
  23612465.943    23612465.5694   23612465.4294  124084364.645 6  96689143.16342
     -4072.004       -3172.985
  23403462.133    23403461.7534   23403465.7554  122986029.448 6  95833307.09843
     -2178.200       -1697.290
  21659441.828    21659441.3764   21659443.7564  113821151.743 8  88691832.73246
       668.833         521.171
  23423133.543    23423132.8634   23423135.3224  123089401.813 7  95913848.12244
      2166.072        1687.845
  25253758.207    25253758.2614   25253760.3804  132709426.001 5 103409933.40141
     -4260.715       -3320.073
 08  4 18  3 15 30.0000000  0 13G 3G 6G 7G10G13G16G19G21G23G24G25G27
                                G29
  21524716.064    21524715.3224   21524718.1344  113113120.391 7  88140155.04945
      2167.493        1688.956
  21071332.148    21071331.6484   21071334.7044  110730618.855 8  86283611.80846
     -1021.335        -795.845
  22378196.791    22378196.7324   22378198.4824  117598232.094 7  91635012.98445
      2089.404        1628.107
  23737013.105    23737012.8744   23737016.4894  124738854.934 5  97199123.32842
      -972.456        -757.740
  22104590.098    22104589.7214   22104591.1644  116160417.773 7  90514635.47244
     -2217.726       -1728.100
  20814092.644    20814091.9374   20814093.7534  109378824.819 8  85230277.06447
     -2079.564       -1620.438
  24118081.259    24118078.8974   24118080.7624  126741376.165 5  98759531.48843
      3228.952        2516.056
  22871176.976    22871176.0324   22871177.8374  120188867.195 7  93653681.59544
       644.051         501.862
  23635739.646    23635738.8464   23635738.6984  124206663.927 6  96784441.31742
     -4081.181       -3180.152
  23415948.861    23415948.6134   23415952.5734  123051646.497 6  95884437.24443
     -2196.180       -1711.307
  21655671.762    21655671.3704   21655674.0144  113801339.579 8  88676394.69846
       651.993         508.048
  23410793.177    23410792.8514   23410796.0934  123024556.591 6  95863319.35644
      2156.969        1680.751
  25278092.695    25278092.1264   25278095.7314  132837303.588 5 103509578.25641
     -4264.516       -3322.990
 08  4 18  3 16  0.0000000  0 13G 3G 6G 7G10G13G16G19G21G23G24G25G27
                                G29
  21512385.253    21512384.5864   21512387.5874  113048323.221 7  88089663.77845
      2152.299        1677.114
  21077215.482    21077215.0804   21077217.9544  110761536.232 8  86307703.28446
     -1039.851        -810.273
  22366307.526    22366307.4304   22366309.4964  117535753.670 7  91586328.48345
      2075.763        1617.478
  23742626.023    23742625.1874   23742628.9574  124768347.272 6  97222104.38243
      -993.752        -774.345
  22117308.249    22117308.4774   22117310.3194  116227255.443 7  90566716.77145
     -2238.139       -1744.007
  20826008.926    20826008.4074   20826010.3704  109441446.654 8  85279073.32047
     -2095.267       -1632.679
  24099660.577    24099658.9714   24099661.3054  126644581.943 5  98684107.46442
      3223.750        2512.004
  22867550.294    22867550.3434   22867551.6014  120169812.799 7  93638834.00344
       626.201         487.941
  23659063.977    23659063.9604   23659063.9364  124329236.113 6  96879952.10043
     -4090.320       -3187.252
  23428538.106    23428537.5624   23428541.8574  123117802.129 6  95935987.05643
     -2214.209       -1725.349
  21651997.845    21651997.4774   21651999.9044  113782033.138 7  88661350.72246
       635.055         494.848
  23398505.718    23398504.6844   23398508.9314  122959986.075 6  95813004.69644
      2147.722        1673.544
  25302447.507    25302446.6474   25302448.7944  132965289.458 5 103609307.49441
     -4268.058       -3325.709
 08  4 18  3 16 30.0000000  0 13G 3G 6G 7G10G13G16G19G21G23G24G25G27
                                G29
  21500141.308    21500140.7254   21500143.7374  112983980.990 7  88039526.97845
      2137.242        1665.375
  21083204.618    21083204.1094   21083206.8634  110793008.620 8  86332227.23646
     -1058.220        -824.588
  22354496.608    22354496.2434   22354498.3504  117473685.256 7  91537963.50345
      2062.202        1606.907
  23748359.999    23748358.8264   23748362.7444  124798479.381 6  97245583.93342
     -1014.927        -790.847
  22130143.787    22130143.5074   22130145.5364  116294704.279 7  90619274.32145
     -2258.368       -1759.775
  20838014.960    20838014.3844   20838016.4174  109504538.842 8  85328236.06647
     -2110.800       -1644.781
  24081270.714    24081270.4074   24081271.2654  126547944.262 5  98608805.44242
      3218.816        2508.157
  22864026.859    22864026.1394   22864027.9634  120151294.862 7  93624404.44144
       608.432         474.096
  23682440.619    23682440.2554   23682440.1954  124452079.783 6  96975674.44043
     -4099.111       -3194.108
  23441229.857    23441228.9504   23441233.6804  123184496.836 6  95987956.91843
     -2231.981       -1739.204
  21648420.793    21648420.2864   21648422.9564  113763235.663 8  88646703.34446
       618.182         481.698
  23386271.407    23386271.1054   23386274.6184  122895694.519 6  95762907.40144
      2138.442        1666.302
  25326823.178    25326823.0244   25326826.4724  133093383.589 5 103709121.08941
     -4271.444       -3328.389
 08  4 18  3 17  0.0000000  0 13G 3G 6G 7G10G13G16G19G21G23G24G25G27
                                G29
  21487984.000    21487983.3424   21487986.1044  112920093.095 8  87989744.21845
      2121.843        1653.381
  21089298.522    21089297.9554   21089300.8214  110825032.330 8  86357180.77446
     -1076.779        -839.046
  22342762.934    22342762.7724   22342764.6604  117412026.318 7  91489917.61045
      2048.284        1596.063
  23754215.286    23754213.8514   23754218.4064  124829247.966 5  97269559.44442
     -1036.367        -807.559
  22143094.253    22143094.0594   22143096.5904  116362759.628 7  90672304.46645
     -2278.735       -1775.641
  20850109.814    20850109.1194   20850111.2134  109568097.313 8  85377762.17147
     -2126.529       -1657.035
  24062910.803    24062909.9704   24062911.0804  126451461.290 5  98533623.96342
      3213.346        2503.904
  22860604.889    22860604.2204   22860606.0394  120133312.127 7  93610391.89644
       590.304         459.984
  23705867.633    23705866.9054   23705866.9384  124575189.057 6  97071603.72343
     -4108.218       -3201.208
  23454022.500    23454021.8974   23454026.1714  123251725.842 6  96040343.19643
     -2250.026       -1753.274
  21644940.216    21644939.7624   21644942.2714  113744945.601 8  88632451.34646
       601.055         468.354
  23374090.370    23374090.0414   23374093.3364  122831680.722 6  95713026.52944
      2129.034        1658.995
  25351218.502    25351216.9474   25351220.9514  133221581.578 4 103809015.66741
     -4275.112       -3331.256
 08  4 18  3 17 30.0000000  0 13G 3G 6G 7G10G13G16G19G21G23G24G25G27
                                G29
  21475913.676    21475913.0914   21475916.0904  112856663.844 7  87940318.83145
      2106.727        1641.610
  21095497.553    21095497.0944   21095499.9334  110857608.733 8  86382564.97846
     -1095.023        -853.264
  22331108.493    22331108.4324   22331110.2984  117350781.135 7  91442194.10645
      2034.678        1585.463
  23760190.770    23760189.7534   23760194.2464  124860654.094 5  97294031.74642
     -1057.411        -823.950
  22156159.647    22156159.5424   22156162.5484  116431421.298 7  90725807.04245
     -2298.717       -1791.199
  20862293.565    20862292.8144   20862294.9134  109632122.912 8  85427652.24147
     -2141.854       -1668.976
  24044580.131    24044579.5784   24044581.0534  126355137.590 5  98458566.56942
      3208.173        2499.888
  22857285.389    22857284.5724   22857286.6734  120115867.468 7  93596798.65044
       572.593         446.175
  23729344.744    23729343.6464   23729344.6854  124698563.026 6  97167739.22943
     -4116.782       -3207.859
  23466917.563    23466916.7964   23466920.7774  123319489.132 6  96093145.84843
     -2267.573       -1766.955
  21641556.629    21641556.4124   21641559.1084  113727166.096 8  88618597.19846
       584.213         455.231
  23361962.168    23361961.5174   23361965.3124  122767948.542 6  95663365.10344
      2119.771        1651.773
  25375634.969    25375632.6984   25375635.2484  133349882.224 4 103908990.07841
     -4278.277       -3333.700
 08  4 18  3 18  0.0000000  0 12G 3G 6G 7G10G13G16G19G21G23G24G25G27
  21463930.867    21463930.3834   21463933.1954  112793693.872 7  87891251.32245
      2091.315        1629.595
  21101801.536    21101800.9594   21101803.7854  110890735.827 8  86408378.29846
     -1113.422        -867.600
  22319532.804    22319532.7844   22319534.9424  117289950.696 7  91394793.76145
      2020.719        1574.582
  23766288.594    23766287.5694   23766292.0184  124892696.197 5  97318999.62142
     -1078.759        -840.597
  22169340.085    22169340.1094   22169343.0404  116500686.012 7  90779779.54144
     -2318.825       -1806.887
  20874565.520    20874564.8834   20874566.9474  109696612.925 8  85477904.18947
     -2157.411       -1681.098
  24026280.855    24026280.3644   24026282.0814  126258974.203 5  98383634.08043
      3202.778        2495.666
  22854068.249    22854067.6684   22854069.4624  120098961.442 7  93583625.12744
       554.525         432.096
  23752872.037    23752871.3964   23752870.4434  124822197.003 6  97264077.38943
     -4125.452       -3214.653
  23479913.559    23479912.7374   23479916.9104  123387783.853 6  96146362.53743
     -2285.344       -1780.790
  21638270.842    21638270.3484   21638272.8534  113709897.222 8  88605140.95246
       567.111         441.905
  23349888.846    23349887.9174   23349891.1114  122704498.612 6  95613923.60744
      2110.258        1644.359
 08  4 18  3 18 30.0000000  0 12G 3G 6G 7G10G13G16G19G21G23G24G25G27
  21452036.177    21452035.3884   21452038.3584  112731186.445 7  87842544.22245
      2075.882        1617.571
  21108210.269    21108209.6504   21108212.6364  110924414.117 8  86434621.11746
     -1131.757        -881.889
  22308036.953    22308036.5554   22308038.3664  117229538.899 7  91347719.61845
      2006.749        1563.695
  23772507.308    23772506.4384   23772510.6754  124925374.794 5  97344463.46642
     -1099.785        -856.967
  22182635.421    22182635.2784   22182638.3244  116570553.441 7  90834221.71444
     -2338.882       -1822.503
  20886926.061    20886925.4444   20886927.5124  109761567.835 8  85528518.39247
     -2172.852       -1693.130
  24008013.802    24008012.4624   24008013.9184  126162975.212 5  98308829.71043
      3197.266        2491.364
  22850954.474    22850953.3994   22850955.3244  120082596.408 7  93570873.13944
       536.497         418.053
  23776446.793    23776446.3344   23776446.5054  124946089.379 6  97360616.88842
     -4133.979       -3221.276
  23493010.350    23493010.2624   23493014.2604  123456609.491 6  96199992.92243
     -2303.008       -1794.545
  21635082.455    21635081.9414   21635084.3354  113693141.542 8  88592084.58746
       550.016         428.585
  23337868.113    23337868.0924   23337870.7404  122641334.469 6  95564704.80344
      2100.753        1636.953
 08  4 18  3 19  0.0000000  0 12G 3G 6G 7G10G13G16G19G21G23G24G25G27
  21440229.781    21440229.1914   21440232.2464  112669144.398 7  87794199.76945
      2060.217        1605.366
  21114723.794    21114723.2704   21114726.2274  110958643.549 8  86461293.37346
     -1150.200        -896.259
  22296621.303    22296621.0474   22296622.7174  117169548.466 7  91300973.78445
      1992.562        1552.647
  23778846.066    23778845.8364   23778849.9354  124958690.078 5  97370423.42542
     -1121.157        -873.643
  22196045.556    22196045.5524   22196047.9614  116641021.889 7  90889132.19744
     -2358.998       -1838.179
  20899374.976    20899374.3344   20899376.3324  109826986.814 8  85579494.20847
     -2188.427       -1705.268
  23989776.567    23989775.9414   23989777.4544  126067142.695 5  98234155.09043
      3191.562        2486.924
  22847943.145    22847942.5084   22847944.2304  120066773.856 7  93558543.88744
       518.300         403.864
  23800072.190    23800071.1064   23800072.3914  125070237.786 6  97457355.89642
     -4142.542       -3227.961
  23506208.902    23506208.4234   23506211.9314  123525964.683 6  96254035.96943
     -2320.725       -1808.355
  21631991.555    21631991.3514   21631993.9214  113676900.690 8  88579429.37546
       532.716         415.098
  23325902.658    23325902.4314   23325906.4954  122578458.401 6  95515710.48043
      2090.993        1629.359
 08  4 18  3 19 30.0000000  0 12G 3G 6G 7G10G13G16G19G21G23G24G25G27
  21428512.629    21428511.9434   21428514.7904  112607569.664 7  87746219.44345
      2044.688        1593.260
  21121342.174    21121341.6424   21121344.6644  110993423.352 8  86488394.51446
     -1168.459        -910.484
  22285285.589    22285285.5464   22285287.8714  117109981.840 7  91254558.25645
      1978.465        1541.666
  23785306.144    23785306.1724   23785310.6774  124992640.826 5  97396878.52642
     -1142.262        -890.082
  22209568.998    22209569.0674   22209571.5284  116712089.548 7  90944509.59044
     -2378.892       -1853.682
  20911911.816    20911911.1844   20911913.1684  109892868.333 8  85630830.45647
     -2203.749       -1717.207
  23971573.202    23971571.9854   23971572.2874  125971479.392 5  98159612.24042
      3185.985        2482.578
  22845035.453    22845035.0694   22845037.0204  120051495.534 7  93546638.71844
       500.238         389.800
  23823745.011    23823744.0844   23823743.4704  125194638.843 6  97554291.76142
     -4150.905       -3234.471
  23519506.590    23519506.2524   23519509.9144  123595847.712 6  96308490.31343
     -2338.205       -1821.973
  21628999.385    21628999.0514   21629001.7464  113661176.047 8  88567176.40246
       515.547         401.724
  23313993.865    23313993.0114   23313996.6834  122515872.643 6  95466942.38544
      2081.309        1621.800
 08  4 18  3 20  0.0000000  0 12G 3G 6G 7G10G13G16G19G21G23G24G25G27
  21416884.720    21416884.1154   21416887.0794  112546465.104 7  87698605.49446
      2028.920        1580.976
  21128065.269    21128064.7894   21128067.7604  111028753.803 8  86515924.72046
     -1186.894        -924.854
  22274031.913    22274031.9564   22274033.4964  117050842.346 7  91208475.51445
      1964.145        1530.500
  23791888.685    23791887.9904   23791892.3724  125027227.738 5  97423829.34542
     -1163.565        -906.685
  22223206.929    22223206.8064   22223208.5704  116783755.251 7  91000353.00244
     -2398.825       -1869.212
  20924536.821    20924536.1454   20924537.9834  109959212.615 8  85682527.30347
     -2219.205       -1729.253
  23953402.118    23953400.2934   23953401.6694  125875988.226 5  98085203.56142
      3180.054        2477.965
  22842232.256    22842231.7324   22842233.5734  120036763.552 7  93535159.28344
       481.931         375.533
  23847465.832    23847464.8314   23847465.0164  125319290.425 6  97651422.85242
     -4159.188       -3240.922
  23532904.986    23532904.9544   23532908.2004  123666257.744 6  96363355.32643
     -2355.831       -1835.717
  21626105.824    21626105.3584   21626107.9504  113645969.787 8  88555327.35846
       498.211         388.215
  23302139.879    23302139.1584   23302142.3384  122453579.909 6  95418402.61944
      2071.473        1614.135
 08  4 18  3 20 30.0000000  0 12G 3G 6G 7G10G13G16G19G21G23G24G25G27
  21405347.597    21405346.8304   21405349.6494  112485835.648 7  87651361.75645
      2013.023        1568.586
  21134893.515    21134893.0274   21134896.0694  111064636.382 8  86543885.18946
     -1205.321        -939.212
  22262860.137    22262859.9584   22262862.1104  116992134.452 7  91162729.10745
      1949.672        1519.221
  23798590.769    23798589.7094   23798595.8574  125062452.498 5  97451277.19742
     -1184.847        -923.247
  22236958.287    22236957.9104   22236959.8114  116856019.419 7  91056662.74644
     -2418.792       -1884.765
  20937249.759    20937249.2214   20937251.1784  110026020.309 8  85734585.23847
     -2234.658       -1741.294
  23935264.802    23935263.3664   23935264.5104  125780673.658 6  98010932.44943
      3174.146        2473.364
  22839533.237    22839532.6964   22839534.4114  120022581.245 7  93524108.12944
       463.564         361.221
  23871232.700    23871232.0814   23871232.7954  125444191.873 6  97748748.65543
     -4167.502       -3247.398
  23546404.737    23546404.3354   23546407.8434  123737195.328 6  96418631.36243
     -2373.400       -1849.407
  21623311.537    21623311.0764   21623313.5524  113631285.385 8  88543884.96446
       480.737         374.603
  23290341.794    23290341.5564   23290344.8104  122391584.623 6  95370094.59043
      2061.558        1606.410
 08  4 18  3 21  0.0000000  0 12G 3G 6G 7G10G13G16G19G21G23G24G25G27
  21393900.585    21393899.9474   21393902.8954  112425682.164 7  87604488.89346
      1997.165        1556.232
  21141826.337    21141825.9304   21141829.0214  111101069.128 8  86572274.34046
     -1223.587        -953.445
  22251771.028    22251770.8784   22251772.9554  116933859.633 7  91117320.18545
      1935.251        1507.986
  23805415.305    23805414.5074   23805420.1424  125098313.165 5  97479220.58442
     -1205.906        -939.666
  22250823.000    22250823.0764   22250824.3974  116928878.962 7  91113436.41344
     -2438.565       -1900.178
  20950050.654    20950049.9504   20950051.9294  110093289.065 8  85787002.45747
     -2249.948       -1753.205
  23917160.036    23917159.3204   23917160.5464  125685536.984 6  97936799.98543
      3168.253        2468.774
  22836939.808    22836939.0314   22836940.5844  120008948.874 7  93513485.48944
       445.222         346.924
  23895048.292    23895046.7254   23895048.0324  125569338.796 6  97846265.68142
     -4175.575       -3253.702
  23560003.295    23560002.6794   23560006.8434  123808657.411 6  96474316.09443
     -2390.771       -1862.928
  21620616.456    21620615.9734   21620618.4884  113617123.009 8  88532849.33946
       463.365         361.060
  23278602.377    23278601.7094   23278604.6764  122329887.644 6  95322019.02944
      2051.580        1598.629
 08  4 18  3 21 30.0000000  0 12G 3G 6G 7G10G13G16G19G21G23G24G25G27
  21382544.292    21382543.7054   21382546.6264  112366005.225 8  87557987.43145
      1981.389        1543.944
  21148863.635    21148863.2764   21148866.1964  111138050.085 8  86601090.65346
     -1241.746        -967.592
  22240763.879    22240763.6684   22240765.4644  116876018.776 7  91072249.43045
      1920.853        1496.770
  23812359.402    23812359.2874   23812364.4954  125134807.402 5  97507657.66742
     -1226.942        -956.069
  22264800.021    22264799.9154   22264801.6784  117002330.167 6  91170671.11544
     -2458.125       -1915.421
  20962938.823    20962938.0464   20962940.1384  110161016.753 8  85839777.26747
     -2265.111       -1765.024
  23899089.679    23899088.8914   23899090.5564  125590579.238 5  97862806.98943
      3162.365        2464.170
  22834449.604    22834449.1134   22834450.8154  119995866.560 7  93503291.47644
       426.963         332.695
  23918908.265    23918908.1104   23918907.1644  125694727.213 6  97943971.01042
     -4183.533       -3259.910
  23573700.267    23573699.8804   23573704.9194  123880641.196 6  96530407.31242
     -2408.034       -1876.393
  21618020.783    21618020.4074   21618022.8574  113603482.655 8  88522220.51246
       446.057         347.576
  23266918.133    23266917.6554   23266921.7284  122268489.507 6  95274176.33044
      2041.661        1590.907
 08  4 18  3 22  0.0000000  0 12G 3G 6G 7G10G13G16G19G21G23G24G25G27
  21371279.211    21371278.5824   21371281.7114  112306806.670 7  87511858.68646
      1965.173        1531.302
  21156005.043    21156004.6334   21156007.6414  111175578.371 8  86630333.46646
     -1260.177        -981.955
  22229840.647    22229840.4514   22229842.5124  116818614.031 7  91027518.46445
      1906.108        1485.279
  23819425.254    23819424.0554   23819428.9724  125171934.888 5  97536588.17242
     -1248.207        -972.618
  22278889.630    22278889.5704   22278891.5364  117076371.108 7  91228365.34644
     -2477.936       -1930.856
  20975913.944    20975913.3184   20975915.3414  110229202.132 8  85892908.72947
     -2280.554       -1777.056
  23881054.187    23881053.4864   23881054.7534  125495802.722 5  97788955.20843
      3156.157        2459.328
  22832065.545    22832064.9484   22832066.4244  119983335.446 7  93493526.96344
       408.431         318.257
  23942814.099    23942812.8544   23942814.5574  125820353.680 5  98041861.74242
     -4191.575       -3266.146
  23587497.732    23587497.5034   23587501.8624  123953144.501 6  96586903.37243
     -2425.504       -1889.994
  21615524.608    21615524.2194   21615526.7084  113590365.338 8  88511999.22146
       428.402         333.820
  23255291.699    23255290.9624   23255294.5864  122207392.508 6  95226568.31243
      2031.430        1582.939
 08  4 18  3 22 30.0000000  0 12G 3G 6G 7G10G13G16G19G21G23G24G25G27
  21360105.942    21360105.3804   21360108.2654  112248091.072 7  87466106.28346
      1949.158        1518.824
  21163250.923    21163250.4814   21163253.3894  111213655.342 8  86660003.82246
     -1278.367        -996.133
  22219000.365    22219000.3694   22219002.2414  116761649.847 7  90983130.79745
      1891.455        1473.861
  23826611.268    23826610.1624   23826614.6934  125209696.651 5  97566012.90542
     -1269.208        -988.987
  22293091.177    22293091.3404   22293092.9614  117151001.745 7  91286519.08544
     -2497.484       -1946.100
  20988976.261    20988975.6864   20988977.8074  110297845.697 8  85946397.22146
     -2295.725       -1788.878
  23863055.130    23863053.6914   23863053.8534  125401211.539 5  97715247.70743
      3149.945        2454.508
  22829786.106    22829785.3874   22829787.5164  119971358.373 7  93484194.16844
       389.994         303.895
  23966765.383    23966765.1894   23966764.8514  125946217.582 6  98139937.52342
     -4199.293       -3272.172
  23601394.448    23601393.7974   23601397.6064  124026167.422 6  96643804.31743
     -2442.710       -1903.397
  21613128.719    21613128.2554   21613130.5684  113577774.310 8  88502188.01546
       410.939         320.211
  23243724.002    23243723.2634   23243725.7014  122146600.548 6  95179197.92544
      2021.322        1575.053
 08  4 18  3 23  0.0000000  0 12G 3G 6G 7G10G13G16G19G21G23G24G25G27
  21349024.402    21349023.7894   21349026.7484  112189856.673 8  87420728.83046
      1933.056        1506.281
  21170600.207    21170599.7964   21170602.7134  111252276.278 8  86690098.05746
     -1296.458       -1010.224
  22208244.282    22208244.0424   22208245.6334  116705125.139 7  90939085.55845
      1876.780        1462.428
  23833916.852    23833916.0054   23833920.5734  125248088.190 5  97595928.39542
     -1290.224       -1005.341
  22307403.994    22307403.8734   22307406.2124  117226216.284 7  91345127.81944
     -2516.903       -1961.231
  21002124.884    21002124.3174   21002126.4034  110366942.301 8  86000238.74247
     -2310.802       -1800.625
  23845089.454    23845088.8344   23845090.1854  125306804.260 6  97641683.59643
      3143.786        2449.698
  22827612.357    22827611.6524   22827612.9754  119959933.168 7  93475291.37844
       371.579         289.546
  23990759.750    23990759.8254   23990760.6634  126072311.711 5  98238192.70242
     -4207.008       -3278.204
  23615388.002    23615387.5124   23615391.3604  124099704.518 6  96701105.92143
     -2459.791       -1916.713
  21610832.498    21610832.0544   21610834.4854  113565706.997 8  88492784.89446
       393.447         306.586
  23232212.954    23232212.5634   23232216.1284  122086111.989 6  95132063.98844
      2011.156        1567.132
 08  4 18  3 23 30.0000000  0 12G 3G 6G 7G10G13G16G19G21G23G24G25G27
  21338034.587    21338034.1814   21338037.1494  112132105.736 7  87375728.09646
      1917.007        1493.768
  21178052.886    21178052.4674   21178055.5814  111291440.798 8  86720615.86946
     -1314.515       -1024.294
  22197571.993    22197571.8614   22197574.1594  116649042.354 7  90895384.70045
      1862.095        1450.983
  23841342.224    23841341.5224   23841345.4544  125287109.083 5  97626334.28142
     -1311.118       -1021.646
  22321827.880    22321827.9624   22321829.7274  117302012.872 7  91404190.09344
     -2536.182       -1976.242
  21015359.730    21015359.1304   21015361.0184  110436491.237 8  86054432.74447
     -2325.766       -1812.283
  23827160.316    23827158.4394   23827160.3004  125212583.418 6  97568264.80943
      3137.652        2444.932
  22825543.493    22825542.5414   22825544.6054  119949061.272 7  93466819.75544
       353.214         275.229
  24014798.471    24014798.1314   24014799.2234  126198633.592 5  98336625.24543
     -4214.461       -3283.988
  23629478.744    23629478.8964   23629482.5014  124173754.196 6  96758806.98943
     -2476.808       -1929.983
  21608635.808    21608635.4724   21608638.0214  113554164.788 8  88483790.95546
       376.019         293.000
  23220760.983    23220759.9304   23220763.6894  122025928.911 6  95085168.10844
      2001.018        1559.231
 08  4 18  3 24  0.0000000  0 12G 3G 6G 7G10G13G16G19G21G23G24G25G27
  21327137.611    21327137.0894   21327140.2504  112074841.490 7  87331106.62746
      1900.695        1481.059
  21185609.192    21185608.7084   21185611.8004  111331149.153 8  86751557.43146
     -1332.662       -1038.437
  22186984.357    22186984.2144   22186986.2544  116593404.722 7  90852030.70245
      1847.151        1439.335
  23848888.423    23848886.9514   23848890.3674  125326760.066 5  97657231.20142
     -1332.105       -1038.029
  22336362.587    22336362.1674   22336363.4494  117378390.469 7  91463705.14444
     -2555.568       -1991.353
  21028680.477    21028679.9424   21028681.8354  110506492.644 8  86108979.30146
     -2340.904       -1824.078
  23809266.259    23809265.2194   23809266.6154  125118552.758 5  97494994.22243
      3131.183        2439.891
  22823580.389    22823579.9594   22823581.1174  119938744.555 7  93458780.73944
       334.601         260.725
  24038879.771    24038880.1934   24038879.9094  126325181.206 5  98435233.74643
     -4222.031       -3289.930
  23643668.043    23643667.4344   23643670.6834  124248315.527 6  96816906.69843
     -2493.932       -1943.321
  21606539.966    21606539.6324   21606542.1304  113543150.176 8  88475208.13346
       358.344         279.227
  23209367.402    23209366.6124   23209369.1994  121966055.038 6  95038513.11644
      1990.631        1551.148
 08  4 18  3 24 30.0000000  0 12G 3G 6G 7G10G13G16G19G21G23G24G25G27
  21316333.961    21316333.3394   21316336.1574  112018067.111 8  87286866.86546
      1884.320        1468.305
  21193268.996    21193268.5184   21193271.6034  111371401.888 8  86782923.19746
     -1350.765       -1052.543
  22176482.473    22176482.4924   22176484.0344  116538216.165 7  90809026.62045
      1832.134        1427.635
  23856553.119    23856552.6584   23856555.6524  125367040.977 5  97688618.90142
     -1353.110       -1054.384
  22351007.063    22351006.8434   22351008.1324  117455348.270 7  91523672.25444
     -2574.865       -2006.390
  21042087.439    21042086.7964   21042088.7704  110576946.322 8  86163878.26847
     -2355.951       -1835.807
  23791409.568    23791408.1704   23791410.6044  125024715.550 5  97421874.36543
      3124.683        2434.817
  22821723.195    22821722.4854   22821724.3724  119928986.180 7  93451176.77744
       316.022         246.256
  24063003.802    24063002.2714   24063003.1104  126451952.783 5  98534016.73942
     -4229.368       -3295.612
  23657953.910    23657952.8924   23657956.4184  124323388.059 6  96875404.73942
     -2510.842       -1956.506
  21604545.015    21604544.4104   21604546.6994  113532665.597 8  88467038.32346
       340.693         265.480
  23198032.708    23198032.1154   23198035.7714  121906493.357 6  94992101.42844
      1980.205        1543.008
 08  4 18  3 25  0.0000000  0 12G 3G 6G 7G10G13G16G19G21G23G24G25G27
  21305623.517    21305622.8254   21305625.8124  111961783.529 8  87243009.53246
      1867.848        1455.460
  21201032.112    21201031.6354   21201034.6674  111412196.956 8  86814711.55546
     -1368.922       -1066.697
  22166065.821    22166065.8344   22166068.1674  116483478.101 7  90766373.57645
      1817.011        1415.848
  23864338.133    23864336.5354   23864340.5564  125407949.674 6  97720495.82942
     -1374.120       -1070.752
  22365761.009    22365760.6944   22365762.4414  117532882.952 7  91584088.89744
     -2594.124       -2021.398
  21055579.826    21055579.2544   21055581.2904  110647849.698 8  86219127.65147
     -2370.993       -1847.526
  23773590.856    23773589.6894   23773589.2654  124931073.306 6  97348906.43243
      3118.040        2429.636
  22819972.599    22819971.6314   22819973.6574  119919786.049 7  93444007.83144
       297.272         231.635
  24087169.717    24087169.2234   24087169.7324  126578944.331 6  98632971.20542
     -4236.740       -3301.344
  23672335.153    23672335.0924   23672339.0654  124398969.061 5  96934299.00942
     -2527.871       -1969.770
  21602650.416    21602650.1324   21602652.7094  113522711.084 8  88459281.55846
       322.917         251.622
  23186757.629    23186757.0164   23186761.3514  121847244.698 6  94945933.70544
      1969.675        1534.812
 08  4 18  3 25 30.0000000  0 12G 3G 6G 7G10G13G16G19G21G23G24G25G27
  21295006.715    21295006.2434   21295009.2054  111905993.075 8  87199536.45146
      1851.480        1442.709
  21208898.240    21208897.8384   21208900.8074  111453533.793 8  86846922.07946
     -1386.888       -1080.700
  22155736.202    22155736.2944   22155737.4844  116429193.033 7  90724073.51645
      1801.960        1404.125
  23872242.477    23872241.2784   23872244.6794  125449485.593 5  97752861.48342
     -1394.866       -1086.915
  22380624.978    22380624.5654   22380626.3964  117610992.908 7  91644953.78744
     -2613.171       -2036.241
  21069157.900    21069157.1574   21069159.2454  110719202.166 8  86274726.96646
     -2385.857       -1859.111
  23755807.949    23755806.6244   23755807.8784  124837628.211 6  97276092.08743
      3111.544        2424.579
  22818328.083    22818327.6274   22818329.1614  119911145.300 7  93437274.78844
       278.713         217.169
  24111377.114    24111376.5904   24111376.5184  126706153.003 6  98732094.81743
     -4243.854       -3306.901
  23686814.114    23686813.3654   23686818.3464  124475056.407 5  96993587.81242
     -2544.585       -1982.804
  21600857.258    21600856.9864   21600859.3114  113513287.973 8  88451938.90446
       305.285         237.884
  23175543.324    23175542.6114   23175545.8384  121788311.320 6  94900011.61244
      1959.238        1526.671
 08  4 18  3 26  0.0000000  0 12G 3G 6G 7G10G13G16G19G21G23G24G25G27
  21284483.955    21284483.3054   21284486.3534  111850695.108 8  87156447.14346
      1835.018        1429.877
  21216866.668    21216866.3734   21216869.3454  111495408.782 7  86879551.94246
     -1404.809       -1094.657
  22145491.657    22145491.6654   22145493.6554  116375360.189 7  90682125.85445
      1786.872        1392.368
  23880264.956    23880263.2754   23880267.3654  125491644.998 6  97785712.96342
     -1415.692       -1103.128
  22395596.870    22395596.8534   22395598.6194  117689672.909 7  91706262.86244
     -2632.138       -2051.007
  21082820.307    21082819.8204   21082821.8494  110790999.741 8  86330673.12046
     -2400.665       -1870.650
  23738063.918    23738062.6364   23738063.6094  124744380.230 6  97203431.37643
      3104.975        2419.463
  22816789.941    22816789.4714   22816791.0434  119903061.933 7  93430976.08444
       260.134         202.702
  24135622.850    24135622.1934   24135623.1834  126833573.274 5  98831383.27842
     -4250.871       -3312.353
  23701389.712    23701388.5794   23701393.8564  124551645.636 6  97053267.68742
     -2561.324       -1995.851
  21599164.821    21599164.4904   21599167.3594  113504394.631 8  88445009.04046
       287.599         224.101
  23164388.765    23164388.0284   23164390.9784  121729692.656 6  94854334.71644
      1948.738        1518.490
 08  4 18  3 26 30.0000000  0 12G 3G 6G 7G10G13G16G19G21G23G24G25G27
  21274055.215    21274054.5804   21274057.4894  111795891.312 7  87113742.86646
      1818.526        1417.034
  21224937.625    21224937.1464   21224940.1574  111537820.952 8  86912600.38746
     -1422.671       -1108.579
  22135334.537    22135334.4684   22135336.5404  116321981.957 7  90640532.44545
      1771.680        1380.531
  23888406.281    23888404.8294   23888408.6914  125534427.070 6  97819049.67742
     -1436.466       -1119.332
  22410677.847    22410677.5584   22410679.3564  117768920.468 7  91768014.17844
     -2651.038       -2065.748
  21096567.597    21096566.8124   21096568.7384  110863240.717 8  86386964.78946
     -2415.399       -1882.128
  23720356.745    23720355.5004   23720357.5914  124651331.103 5  97130925.64243
      3098.309        2414.269
  22815358.415    22815357.6494   22815358.8984  119895537.553 7  93425112.95744
       241.467         188.153
  24159911.211    24159910.4804   24159909.6784  126961201.583 6  98930833.89542
     -4257.684       -3317.698
  23716059.313    23716058.2924   23716062.5034  124628734.360 6  97113336.78343
     -2577.964       -2008.803
  21597573.610    21597573.2704   21597575.6594  113496031.988 8  88438492.69946
       269.896         210.308
  23153293.990    23153293.5584   23153297.2464  121671390.263 6  94808904.26344
      1938.111        1510.222
 08  4 18  3 27  0.0000000  0 12G 3G 6G 7G10G13G16G19G21G23G24G25G27
  21263720.669    21263720.0104   21263723.0184  111741582.912 7  87071424.64146
      1802.040        1404.187
  21233110.116    21233109.7114   21233112.6384  111580767.959 8  86946065.57446
     -1440.439       -1122.417
  22125263.278    22125263.0104   22125265.0524  116269059.478 7  90599294.12745
      1756.497        1368.702
  23896665.443    23896664.8474   23896667.4224  125577829.297 6  97852869.62642
     -1457.039       -1135.350
  22425865.602    22425865.4884   22425867.1844  117848732.488 7  91830205.34244
     -2669.738       -2080.312
  21110398.484    21110397.7224   21110399.7944  110935922.767 8  86443600.14846
     -2430.046       -1893.542
  23702688.579    23702687.6114   23702689.0114  124558482.156 6  97058575.87243
      3091.657        2409.097
  22814032.332    22814031.9084   22814033.6014  119888571.752 7  93419685.03044
       222.897         173.682
  24184237.370    24184236.2494   24184236.2184  127089033.846 6  99030443.45042
     -4264.395       -3322.902
  23730823.381    23730822.5034   23730826.6154  124706319.895 6  97173793.01743
     -2594.358       -2021.574
  21596083.427    21596082.9954   21596085.5254  113488200.082 8  88432389.91646
       252.237         196.548
  23142260.217    23142259.4724   23142263.3294  121613405.531 6  94763721.35744
      1927.544        1501.993
 08  4 18  3 27 30.0000000  0 12G 3G 6G 7G10G13G16G19G21G23G24G25G27
  21253479.904    21253479.5754   21253482.4734  111687768.954 7  87029491.67946
      1785.556        1391.340
  21241383.944    21241383.4814   21241386.3584  111624246.554 8  86979944.98746
     -1458.132       -1136.208
  22115279.701    22115279.6354   22115281.2854  116216592.445 7  90558410.74545
      1741.268        1356.828
  23905041.314    23905040.7694   23905044.2164  125621848.510 6  97887170.33642
     -1477.531       -1151.313
  22441159.822    22441159.7384   22441161.4614  117929103.952 7  91892832.41744
     -2688.346       -2094.821
  21124312.509    21124311.8294   21124313.8414  111009041.821 8  86500576.03546
     -2444.570       -1904.860
  23685057.201    23685056.5024   23685057.7244  124465833.231 6  96986381.85743
      3084.940        2403.841
  22812812.607    22812812.2084   22812813.9504  119882162.846 7  93414691.08544
       204.322         159.221
  24208599.986    24208598.9034   24208599.6344  127217064.449 6  99130207.54742
     -4270.966       -3328.014
  23745680.152    23745680.0974   23745684.1984  124784397.758 6  97234632.90843
     -2610.806       -2034.399
  21594693.462    21594693.2064   21594695.5254  113480897.296 8  88426699.46146
       234.606         182.807
  23131285.421    23131285.0114   23131288.6514  121555737.740 6  94718785.44544
      1916.969        1493.737
 08  4 18  3 28  0.0000000  0 12G 3G 6G 7G10G13G16G19G21G23G24G25G27
  21243333.964    21243333.5124   21243336.3884  111634451.076 7  86987945.29546
      1768.965        1378.416
  21249758.563    21249758.1694   21249761.0214  111668255.362 8  87014237.56746
     -1475.813       -1149.985
  22105382.286    22105382.0884   22105384.4574  116164583.013 7  90517883.93145
      1725.980        1344.919
  23913535.441    23913534.2344   23913538.1984  125666483.312 6  97921950.73342
     -1498.094       -1167.343
  22456559.956    22456559.9964   22456561.4224  118010032.363 7  91955893.50744
     -2706.891       -2109.263
  21138309.434    21138308.7794   21138310.8084  111082596.433 8  86557891.31546
     -2459.092       -1916.174
  23667465.578    23667464.4124   23667465.7604  124373386.178 6  96914345.23743
      3078.229        2398.626
  22811699.620    22811698.7374   22811700.3444  119876311.351 7  93410131.46744
       185.726         144.718
  24233000.932    24233000.4894   24233000.8294  127345290.191 6  99230123.68142
     -4277.480       -3333.122
  23760631.097    23760630.5684   23760634.9484  124862965.125 5  97295854.23943
     -2627.081       -2047.077
  21593404.869    21593404.3704   21593406.9714  113474124.180 8  88421421.71546
       216.913         169.023
  23120372.470    23120372.0204   23120375.7814  121498388.468 6  94674097.71644
      1906.315        1485.442
 08  4 18  3 28 30.0000000  0 12G 3G 6G 7G10G13G16G19G21G23G24G25G27
  21233283.007    21233282.4674   21233285.2114  111581632.552 8  86946788.00446
      1752.219        1365.364
  21258234.256    21258233.6624   21258236.4554  111712794.524 8  87048943.39946
     -1493.511       -1163.771
  22095573.173    22095572.8804   22095574.6044  116113034.469 7  90477716.28245
      1710.503        1332.863
  23922146.169    23922145.5494   23922148.9384  125711733.642 5  97957210.74042
     -1518.651       -1183.357
  22472066.130    22472066.0244   22472067.2644  118091516.563 7  92019387.68644
     -2725.440       -2123.721
  21152389.456    21152388.6914   21152390.6364  111156586.499 8  86615545.91546
     -2473.675       -1927.538
  23649912.379    23649911.5794   23649913.1764  124281143.936 6  96842468.19443
      3071.148        2393.101
  22810692.255    22810691.4044   22810693.7554  119871019.849 6  93406008.23544
       166.944         130.086
  24257437.273    24257437.3094   24257437.9364  127473709.008 5  99330190.21842
     -4283.892       -3338.080
  23775674.640    23775674.3994   23775678.7844  124942021.298 5  97357456.44942
     -2643.380       -2059.791
  21592216.934    21592216.5964   21592218.8904  113467883.082 8  88416558.54846
       199.103         155.146
  23109521.081    23109520.4594   23109523.8204  121441360.891 6  94629660.66544
      1895.490        1477.001
 08  4 18  3 29  0.0000000  0 12G 3G 6G 7G10G13G16G19G21G23G24G25G27
  21223327.168    21223326.6364   21223329.5474  111529314.533 8  86906020.70746
      1735.600        1352.415
  21266810.378    21266809.7764   21266812.6154  111757862.579 8  87084061.37946
     -1511.035       -1177.433
  22085851.245    22085851.1154   22085853.2354  116061948.241 7  90437908.82945
      1695.168        1320.905
  23930873.438    23930872.9524   23930876.1784  125757598.089 5  97992949.25942
     -1538.976       -1199.200
  22487676.621    22487676.6444   22487678.3044  118173553.585 6  92083312.65844
     -2743.749       -2137.991
  21166551.547    21166550.9784   21166552.9824  111231009.993 8  86673538.24946
     -2487.974       -1938.683
  23632398.776    23632397.9404   23632398.8984  124189108.672 6  96770752.42343
      3064.383        2387.833
  22809792.517    22809791.3774   22809792.9834  119866288.471 7  93402321.46044
       148.389         115.629
  24281910.606    24281910.0624   24281910.8914  127602317.288 5  99430404.37842
     -4290.045       -3342.908
  23790810.997    23790810.3994   23790814.7504  125021563.954 5  97419437.73542
     -2659.482       -2072.316
  21591130.774    21591130.4074   21591132.8634  113462174.533 8  88412110.33546
       181.435         141.376
  23098730.390    23098730.0434   23098733.2494  121384656.567 6  94585475.45544
      1884.738        1468.627
 08  4 18  3 29 30.0000000  0 12G 3G 6G 7G10G13G16G19G21G23G24G25G27
  21213467.308    21213466.7624   21213469.6264  111477499.948 7  86865645.68046
      1718.822        1339.343
  21275486.952    21275486.5694   21275489.4214  111803459.366 8  87119591.35146
     -1528.602       -1191.120
  22076218.781    22076218.7224   22076220.7014  116011327.631 7  90398464.20945
      1679.621        1308.793
  23939718.001    23939717.1764   23939721.6634  125804076.028 5  98029165.81942
     -1559.370       -1215.092
  22503393.277    22503392.9894   22503394.5094  118256142.165 7  92147667.39244
     -2762.078       -2152.268
  21180796.247    21180795.6994   21180797.5494  111305866.545 8  86731868.03746
     -2502.358       -1949.886
  23614925.087    23614923.8414   23614925.2464  124097283.870 6  96699200.62543
      3057.318        2382.330
  22808998.848    22808998.1284   22808999.8114  119862119.377 7  93399072.81644
       129.661         101.029
  24306419.727    24306419.4944   24306419.3684  127731112.904 5  99530764.55842
     -4296.238       -3347.733
  23806040.452    23806040.3934   23806044.4234  125101591.923 6  97481797.19842
     -2675.600       -2084.877
  21590146.242    21590145.8034   21590147.9424  113457000.149 8  88408078.33946
       163.623         127.499
  23088002.320    23088001.3584   23088004.5974  121328278.138 6  94541544.16244
      1873.892        1460.175
 08  4 18  3 30  0.0000000  0 12G 3G 6G 7G10G13G16G19G21G23G24G25G27
  21203703.316    21203702.7854   21203705.7084  111426190.213 8  86825664.04246
      1701.854        1326.119
  21284264.114    21284263.6114   21284266.5794  111849583.187 8  87155531.98746
     -1546.296       -1204.908
  22066675.108    22066675.0124   22066676.5654  115961174.473 7  90359383.78145
      1663.904        1296.550
  23948679.029    23948677.8334   23948681.9084  125851165.942 5  98065859.28242
     -1579.995       -1231.175
  22519213.251    22519213.1924   22519214.8864  118339279.024 7  92212449.32744
     -2780.370       -2166.519
  21195123.002    21195122.3914   21195124.4054  111381154.039 8  86790533.61546
     -2516.806       -1961.149
  23597490.449    23597489.6094   23597492.0974  124005670.671 5  96627813.75043
      3050.240        2376.795
  22808312.453    22808311.7844   22808313.0304  119858512.137 7  93396261.98344
       110.821          86.355
  24330963.256    24330962.8304   24330963.8394  127860092.437 5  99631268.09241
     -4302.459       -3352.549
  23821361.345    23821361.3604   23821364.7424  125182102.287 5  97544532.60943
     -2691.754       -2097.459
  21589263.260    21589262.7874   21589265.3994  113452360.416 8  88404462.97146
       145.678         113.516
  23077335.735    23077335.3064   23077338.5264  121272227.046 6  94497867.98144
      1862.880        1451.599
 08  4 18  3 30 30.0000000  0 12G 3G 6G 7G10G13G16G19G21G23G24G25G27
  21194036.198    21194035.6534   21194038.5944  111375389.108 8  86786078.78746
      1684.898        1312.903
  21293141.654    21293141.1474   21293144.1794  111896235.395 8  87191884.37146
     -1563.863       -1218.595
  22057220.878    22057220.8404   22057222.8874  115911493.077 7  90320670.98745
      1648.177        1284.293
  23957757.083    23957755.7934   23957759.0894  125898868.659 5  98103030.21042
     -1600.259       -1246.957
  22535138.054    22535138.0254   22535140.0294  118422964.386 7  92277658.70344
     -2798.610       -2180.733
  21209532.039    21209531.4104   21209533.2914  111456873.624 8  86849535.88746
     -2531.149       -1972.324
  23580099.392    23580098.6364   23580099.3184  123914273.711 6  96556595.35643
      3043.000        2371.169
  22807733.535    22807732.9784   22807734.5264  119855470.299 7  93393891.70044
        91.982          71.672
  24355541.577    24355541.3924   24355543.1774  127989254.823 5  99731914.07942
     -4308.336       -3357.146
  23836774.170    23836773.2814   23836778.1044  125263095.123 6  97607643.91443
     -2707.771       -2109.957
  21588482.560    21588482.2754   21588484.6524  113448258.593 8  88401266.74646
       127.758          99.549
  23066732.644    23066732.2744   23066735.6154  121216507.578 6  94454450.22444
      1851.820        1442.976
 08  4 18  3 31  0.0000000  0 12G 3G 6G 7G10G13G16G19G21G23G24G25G27
  21184466.172    21184465.5544   21184468.7384  111325098.118 8  86746891.02046
      1667.792        1299.578
  21302119.345    21302118.9234   21302121.8844  111943414.106 8  87228646.99446
     -1581.459       -1232.309
  22047857.167    22047857.0754   22047859.0204  115862284.991 7  90282327.04945
      1632.276        1271.899
  23966951.022    23966949.5724   23966953.7914  125947182.981 5  98140677.74042
     -1620.767       -1262.946
  22551166.716    22551166.6044   22551168.3854  118507194.737 7  92343292.73644
     -2816.783       -2194.893
  21224022.657    21224022.1704   21224024.0934  111533023.067 8  86908873.10646
     -2545.533       -1983.529
  23562748.466    23562747.3394   23562749.5384  123823094.473 6  96485546.64443
      3035.649        2365.436
  22807262.118    22807261.5984   22807263.1814  119852994.126 7  93391962.20644
        73.012          56.903
  24380156.248    24380155.7164   24380154.6244  128118596.271 5  99832699.46342
     -4314.309       -3361.798
  23852277.814    23852277.0794   23852280.8854  125344567.712 6  97671128.99643
     -2723.778       -2122.430
  21587804.463    21587804.0014   21587806.5634  113444694.778 8  88398489.77146
       109.777          85.541
  23056193.127    23056192.3574   23056195.7484  121161121.068 6  94411291.90544
      1840.584        1434.225
 08  4 18  3 31 30.0000000  0 12G 3G 6G 7G10G13G16G19G21G23G24G25G27
  21174993.449    21174993.0104   21174996.0024  111275319.286 8  86708102.34146
      1650.871        1286.390
  21311197.254    21311196.7824   21311199.7664  111991118.892 8  87265819.57746
     -1598.815       -1245.830
  22038583.664    22038583.6874   22038585.0374  115813553.030 7  90244354.09745
      1616.568        1259.663
  23976260.911    23976259.7354   23976263.9274  125996107.767 5  98178800.95942
     -1640.871       -1278.622
  22567298.658    22567298.4054   22567300.6874  118591968.421 6  92409350.16444
     -2834.689       -2208.848
  21238595.298    21238594.6814   21238596.5764  111609601.628 8  86968544.70846
     -2559.642       -1994.526
  23545439.668    23545438.8074   23545439.8264  123732136.102 6  96414670.01643
      3028.348        2359.749
  22806898.985    22806898.5164   22806900.0344  119851084.799 6  93390474.43444
        54.333          42.335
  24404802.634    24404801.8864   24404802.4404  128248114.461 6  99933622.63142
     -4320.084       -3366.289
  23867872.492    23867871.8254   23867875.7744  125426518.609 5  97734986.82742
     -2739.475       -2134.658
  21587229.101    21587228.5514   21587230.8494  113441670.568 8  88396133.25446
        91.898          71.605
  23045717.553    23045716.7824   23045719.9094  121106070.095 6  94368395.05944
      1829.548        1425.613
 08  4 18  3 32  0.0000000  0 12G 3G 6G 7G10G13G16G19G21G23G24G25G27
  21165618.700    21165618.1654   21165621.2084  111226054.593 8  86669714.27646
      1633.485        1272.848
  21320375.155    21320374.7314   21320377.6264  112039348.718 8  87303401.24246
     -1616.452       -1259.571
  22029401.154    22029401.1314   22029402.9724  115765299.386 7  90206753.87945
      1600.397        1247.065
  23985685.815    23985685.6774   23985689.6484  126045641.886 5  98217399.00442
     -1661.352       -1294.549
  22583533.981    22583533.5734   22583534.8664  118677283.275 7  92475829.27244
     -2852.912       -2223.042
  21253248.987    21253248.4834   21253250.4144  111686608.042 8  87028549.69646
     -2574.044       -2005.747
  23528172.890    23528171.9874   23528173.5234  123641400.568 6  96343967.05443
      3020.721        2353.805
  22806643.710    22806642.7364   22806644.5414  119849743.373 6  93389429.16944
        35.154          27.392
  24429482.105    24429481.1714   24429481.5814  128377806.613 5 100034681.47342
     -4325.984       -3370.904
  23883558.072    23883556.5244   23883560.1894  125508945.914 6  97799215.94242
     -2755.521       -2147.161
  21586756.385    21586755.9514   21586758.3474  113439186.922 8  88394197.95746
        73.692          57.426
  23035305.708    23035305.1784   23035308.2444  121051356.766 7  94325761.29144
      1818.034        1416.654
 08  4 18  3 32 30.0000000  0 12G 3G 6G 7G10G13G16G19G21G23G24G25G27
  21156342.285    21156341.6854   21156344.5454  111177306.624 8  86631728.85446
      1616.265        1259.430
  21329652.910    21329652.3424   21329655.1744  112088103.121 8  87341391.68746
     -1633.936       -1273.195
  22020310.630    22020310.3374   22020312.5014  115717526.914 7  90169528.58045
      1584.326        1234.542
  23995229.142    23995228.0044   23995231.0794  126095784.211 5  98256470.91242
     -1681.576       -1310.312
  22599870.651    22599870.6164   22599872.4584  118763137.275 7  92542728.51044
     -2870.794       -2236.982
  21267984.046    21267983.4724   21267985.5664  111764041.396 8  87088887.35246
     -2588.257       -2016.823
  23510949.419    23510948.6674   23510949.4824  123550890.895 6  96273440.03843
      3013.092        2347.870
  22806496.648    22806496.1534   22806497.8844  119848971.164 7  93388827.44544
        16.176          12.602
  24454194.186    24454193.9144   24454194.5174  128507669.983 5 100135873.55742
     -4331.698       -3375.335
  23899333.619    23899333.2754   23899336.1914  125591847.958 6  97863814.99242
     -2771.386       -2159.530
  21586386.751    21586386.4094   21586388.7214  113437245.341 8  88392685.05946
        55.652          43.366
  23024958.797    23024958.2134   23024961.1474  120996983.572 6  94283392.58044
      1806.708        1407.826
 08  4 18  3 33  0.0000000  0 13G 3G 6G 7G 8G10G13G16G19G21G23G24G25
                                G27
  20847371.723    20847370.9454   20847373.9504  109553654.298 8  85366545.22046
      1599.074        1246.035
  21039237.910    21039237.3154   21039240.2234  110561961.201 8  86152190.17046
     -1651.229       -1286.673
  21711518.476    21711518.2034   21711519.7204  114094814.766 7  88905077.58045
      1568.315        1222.063
  24893229.747    24893230.3854   24893235.1014  130814816.879 5 101933634.3994
      3302.391        2573.317
  23705092.553    23705091.3594   23705096.8604  124571114.243 5  97068416.38442
     -1701.644       -1325.963
  22316518.275    22316518.0274   22316520.0854  117274109.383 7  91382447.02544
     -2888.520       -2250.790
  20983007.743    20983007.2864   20983009.4174  110266481.540 8  85921957.58046
     -2602.297       -2027.763
  23193976.680    23193975.4944   23193975.9394  121885184.704 6  94975487.15343
      3005.706        2342.105
  22506665.327    22506664.9454   22506666.2734  118273347.794 7  92161068.97244
        -2.652          -2.062
  24179145.827    24179145.5064   24179146.6804  127062284.588 5  99009599.19742
     -4337.151       -3379.625
  23615407.443    23615406.6284   23615410.3644  124099803.929 6  96701183.27142
     -2786.870       -2171.590
  21286328.048    21286327.5594   21286329.9544  111860425.316 8  87163994.12946
        37.666          29.352
  22714884.222    22714883.4824   22714886.7664  119367529.381 7  93013688.02844
      1795.417        1399.021
 08  4 18  3 33 30.0000000  0 13G 3G 6G 7G 8G10G13G16G19G21G23G24G25
                                G27
  20838291.813    20838291.2964   20838294.4014  109505940.435 8  85329365.59946
      1581.925        1232.666
  21048713.472    21048712.9954   21048715.9314  110611756.482 8  86190991.67246
     -1668.412       -1300.065
  21702611.323    21702611.4234   21702613.1214  114048006.752 7  88868603.81045
      1552.281        1209.563
  24874386.559    24874386.4374   24874390.5554  130715794.721 5 101856474.30042
      3299.015        2570.650
  23714865.523    23714863.4844   23714868.2314  124622464.808 5  97108429.79642
     -1721.624       -1341.525
  22333058.336    22333058.0624   22333060.3664  117361029.304 6  91450176.84044
     -2906.073       -2264.469
  20997903.742    20997903.2224   20997905.3954  110344759.722 8  85982953.54246
     -2616.167       -2038.573
  23176839.073    23176838.1014   23176839.9314  121795128.572 6  94905313.50444
      2998.172        2336.244
  22506734.769    22506734.2814   22506735.7714  118273711.653 7  92161352.51244
       -21.510         -16.764
  24203921.386    24203921.6314   24203921.4724  127192476.557 5  99111047.41042
     -4342.375       -3383.661
  23631361.508    23631360.3414   23631365.1844  124183643.989 5  96766513.14243
     -2802.362       -2183.654
  21286164.226    21286163.9164   21286166.2544  111859565.645 8  87163324.28146
        19.730          15.372
  22704666.340    22704665.7214   22704669.2784  119313837.440 6  92971850.17344
      1784.073        1390.185
 08  4 18  3 34  0.0000000  0 13G 3G 6G 7G 8G10G13G16G19G21G23G24G25
                                G27
  20829311.028    20829310.4214   20829313.4124  109458745.441 8  85292590.27746
      1564.469        1219.065
  21058287.864    21058287.3794   21058290.2384  110662069.888 8  86230196.90846
     -1685.755       -1313.573
  21693795.693    21693795.6274   21693797.8584  114001682.929 7  88832507.36645
      1536.014        1196.892
  24855564.424    24855562.9354   24855567.9914  130616880.544 5 101779398.36742
      3295.220        2567.699
  23724752.084    23724749.8904   23724754.4084  124674416.906 5  97148911.90742
     -1741.752       -1357.204
  22349699.968    22349699.6954   22349701.4294  117448477.755 7  91518318.48044
     -2923.777       -2278.264
  21012879.283    21012878.7854   21012881.0494  110423457.586 8  86044276.49346
     -2630.279       -2049.568
  23159745.544    23159745.0594   23159745.9734  121705301.917 6  94835318.72843
      2990.333        2330.139
  22506912.187    22506911.6174   22506913.0314  118274643.797 7  92162078.82244
       -40.572         -31.620
  24228726.094    24228725.9864   24228726.7854  127322827.677 5  99212619.61942
     -4347.614       -3387.731
  23647403.279    23647402.7784   23647407.9264  124267949.572 5  96832205.83342
     -2817.973       -2195.814
  21286103.530    21286103.3814   21286105.7914  111859247.311 8  87163076.21246
         1.567           1.221
  22694514.371    22694514.1554   22694517.2774  119260488.371 6  92930279.48544
      1772.563        1381.221
 08  4 18  3 34 30.0000000  0 13G 3G 6G 7G 8G10G13G16G19G21G23G24G25
                                G27
  20820429.404    20820428.8804   20820431.9244  109412072.769 8  85256221.96046
      1546.975        1205.436
  21067960.736    21067960.3814   21067963.2824  110712901.695 8  86269806.00946
     -1703.052       -1327.050
  21685073.971    21685073.9424   21685075.2604  113955847.636 7  88796791.59045
      1519.635        1184.135
  24836762.538    24836761.5764   24836765.4874  130518077.995 5 101702409.43641
      3291.592        2564.884
  23734752.530    23734751.1604   23734755.1354  124726970.787 5  97189863.00242
     -1761.845       -1372.868
  22366441.569    22366441.0364   22366442.4304  117536453.934 7  91586871.33944
     -2941.360       -2291.971
  21027935.187    21027934.5224   21027936.6654  110502575.641 8  86105926.89746
     -2644.297       -2060.493
  23142697.133    23142696.0714   23142697.3774  121615708.678 6  94765505.77243
      2982.541        2324.056
  22507198.355    22507197.5424   22507199.0754  118276147.067 7  92163250.22344
       -59.664         -46.492
  24253560.232    24253561.2954   24253561.1994  127453337.033 5  99314315.13241
     -4352.932       -3391.901
  23663533.717    23663533.6294   23663538.7164  124352720.028 5  96898260.76242
     -2833.415       -2207.847
  21286146.639    21286146.3234   21286148.7424  111859473.144 8  87163252.18646
       -16.640         -12.968
  22684428.397    22684428.0494   22684431.5004  119207485.875 6  92888978.85944
      1760.935        1372.154
 08  4 18  3 35  0.0000000  0 13G 3G 6G 7G 8G10G13G16G19G21G23G24G25
                                G27
  20811647.689    20811647.0324   20811650.1294  109365924.391 8  85220262.19546
      1529.601        1191.901
  21077732.297    21077731.9014   21077734.8464  110764251.295 8  86309818.67546
     -1720.211       -1340.419
  21676444.707    21676444.4694   21676447.1894  113910502.867 7  88761458.01445
      1503.353        1171.445
  24817982.290    24817981.8684   24817986.0684  130419389.608 4 101625509.49441
      3287.728        2561.851
  23744867.641    23744866.3194   23744869.6454  124780125.560 5  97231282.32742
     -1781.762       -1388.401
  22383282.458    22383282.5944   22383283.3644  117624955.628 7  91655833.71444
     -2958.710       -2305.489
  21043070.453    21043069.9784   21043072.0324  110582112.542 8  86167903.73146
     -2658.118       -2071.256
  23125693.388    23125692.1554   23125692.6704  121526351.066 6  94695876.42844
      2974.779        2318.024
  22507593.874    22507592.8704   22507594.3624  118278221.984 7  92164867.02944
       -78.647         -61.292
  24278425.254    24278426.5764   24278425.1654  127584000.956 5  99416131.11541
     -4357.989       -3395.871
  23679754.231    23679754.2294   23679757.9274  124437952.870 5  96964675.95942
     -2848.633       -2219.710
  21286293.396    21286293.0274   21286295.4374  111860243.789 8  87163852.69646
       -34.724         -27.054
  22674408.956    22674408.3544   22674411.8074  119154832.187 6  92847950.09344
      1749.335        1363.113
 08  4 18  3 35 30.0000000  0 13G 3G 6G 7G 8G10G13G16G19G21G23G24G25
                                G27
  20802965.553    20802964.9944   20802968.1124  109320299.636 8  85184710.46646
      1512.102        1178.254
  21087601.669    21087601.1224   21087604.0614  110816114.756 8  86350231.77046
     -1737.279       -1353.724
  21667909.697    21667909.4994   21667911.2534  113865648.578 7  88726506.63345
      1486.991        1158.695
  24799224.146    24799223.2404   24799228.2144  130320815.386 4 101548698.51141
      3284.096        2559.028
  23755095.317    23755094.6334   23755098.9164  124833876.874 5  97273166.45542
     -1801.607       -1403.854
  22400222.873    22400222.5184   22400223.8814  117713977.923 6  91725201.74944
     -2976.031       -2318.986
  21058284.842    21058284.1854   21058286.2574  110662063.858 8  86230203.44146
     -2671.911       -2082.007
  23108733.166    23108732.5144   23108733.6844  121437229.084 6  94626430.70944
      2966.774        2311.774
  22508095.956    22508095.6934   22508097.2414  118280866.588 7  92166927.75244
       -97.619         -76.069
  24303319.337    24303318.5424   24303318.7154  127714814.571 5  99518063.91141
     -4362.902       -3399.655
  23696060.897    23696060.1374   23696064.0914  124523643.450 6  97031447.83742
     -2863.920       -2231.623
  21286543.316    21286543.0314   21286545.3824  111861557.671 8  87164876.50146
       -52.813         -41.156
  22664455.452    22664455.0774   22664457.9734  119102526.342 6  92807192.30644
      1737.740        1354.079
 08  4 18  3 36  0.0000000  0 13G 3G 6G 7G 8G10G13G16G19G21G23G24G25
                                G27
  20794383.983    20794383.3514   20794386.3404  109275202.576 8  85149569.89146
      1494.378        1164.451
  21097568.931    21097568.5034   21097571.3624  110868493.289 8  86391046.19146
     -1754.522       -1367.155
  21659467.871    21659467.7494   21659469.8544  113821289.091 7  88691940.79545
      1470.356        1145.736
  24780489.116    24780487.9484   24780493.0514  130222360.251 4 101471980.30941
      3279.814        2555.673
  23765438.463    23765437.3344   23765440.6954  124888225.866 5  97315516.31742
     -1821.622       -1419.441
  22417261.619    22417261.9704   22417263.3954  117803519.675 6  91794974.55544
     -2993.413       -2332.531
  21073578.196    21073577.6174   21073579.6714  110742430.839 7  86292827.04846
     -2685.822       -2092.846
  23091820.032    23091818.8334   23091820.1844  121348347.432 6  94557172.32044
      2958.696        2305.480
  22508708.936    22508708.2894   22508709.8344  118284084.035 7  92169434.84744
      -116.830         -91.033
  24328239.148    24328238.6624   24328240.1864  127845776.802 5  99620112.30541
     -4367.870       -3403.509
  23712454.786    23712453.9674   23712457.2054  124609791.976 6  97098576.57642
     -2879.221       -2243.544
  21286897.283    21286896.8794   21286899.3594  111863417.795 8  87166325.95046
       -71.136         -55.430
  22654568.980    22654568.3674   22654571.7094  119050572.932 6  92766709.19344
      1725.868        1344.828
 08  4 18  3 36 30.0000000  0 13G 3G 6G 7G 8G10G13G16G19G21G23G24G25
                                G27
  20785902.962    20785902.3824   20785905.4204  109230634.682 8  85114841.67846
      1476.752        1150.713
  21107634.078    21107633.4894   21107636.5064  110921385.582 8  86432260.94246
     -1771.624       -1380.485
  21651121.451    21651121.4814   21651123.5884  113777426.719 7  88657762.35445
      1453.745        1132.787
  24761776.721    24761775.8744   24761780.6294  130124026.230 5 101395356.42541
      3275.604        2552.421
  23775894.010    23775892.0314   23775895.9614  124943170.725 5  97358330.49142
     -1841.389       -1434.862
  22434399.812    22434399.5244   22434401.7314  117893578.842 7  91865150.51844
     -3010.547       -2345.880
  21088950.421    21088949.7714   21088951.7754  110823212.193 8  86355773.63346
     -2699.579       -2103.575
  23074951.725    23074951.0594   23074952.4664  121259707.878 6  94488102.63444
      2950.591        2299.164
  22509430.570    22509429.4964   22509430.9664  118287874.956 7  92172388.80344
      -135.921        -105.915
  24353190.013    24353189.5024   24353190.7074  127976884.365 5  99722273.91042
     -4372.570       -3407.176
  23728935.365    23728934.0624   23728936.2034  124696396.352 6  97166060.58842
     -2894.343       -2255.341
  21287355.382    21287354.9934   21287357.4784  111865825.028 8  87168201.70346
       -89.361         -69.628
  22644749.928    22644749.2604   22644752.8444  118998973.775 7  92726502.11344
      1714.047        1335.622
 08  4 18  3 37  0.0000000  0 13G 3G 6G 7G 8G10G13G16G19G21G23G24G25
                                G27
  20777523.237    20777522.5854   20777525.4874  109186598.312 8  85080527.62646
      1459.092        1136.958
  21117796.747    21117796.3504   21117799.2924  110974791.286 8  86473875.79146
     -1788.683       -1393.783
  21642869.619    21642869.4314   21642871.2844  113734064.040 7  88623973.31945
      1437.102        1119.822
  24743088.554    24743087.5364   24743090.8744  130025816.720 5 101318829.59041
      3271.657        2549.310
  23786461.308    23786461.3614   23786464.6124  124998710.503 5  97401608.19842
     -1861.160       -1450.255
  22451634.784    22451634.5824   22451637.2714  117984153.580 6  91935728.19144
     -3027.673       -2359.222
  21104401.417    21104400.6964   21104402.6064  110904407.116 8  86419042.43946
     -2713.310       -2114.269
  23058130.637    23058129.7574   23058131.3084  121171313.669 6  94419224.05843
      2942.470        2292.830
  22510260.899    22510260.2444   22510261.8054  118292240.558 7  92175790.56944
      -155.033        -120.803
  24378166.343    24378165.5084   24378166.8714  128108135.353 5  99824547.32042
     -4377.360       -3410.924
  23745501.413    23745501.5214   23745504.0954  124783454.917 6  97233898.52441
     -2909.427       -2267.093
  21287917.900    21287917.4044   21287920.0864  111868780.822 8  87170504.91546
      -107.618         -83.858
  22634998.684    22634998.1274   22635001.4214  118947731.562 7  92686573.03444
      1702.150        1326.347
 08  4 18  3 37 30.0000000  0 13G 3G 6G 7G 8G10G13G16G19G21G23G24G25
                                G27
  20769244.588    20769243.9364   20769246.7524  109143093.478 8  85046627.71646
      1441.170        1123.001
  21128056.502    21128056.1024   21128059.0924  111028707.181 8  86515888.19546
     -1805.765       -1407.080
  21634713.147    21634713.0334   21634715.0624  113691200.887 7  88590573.40046
      1420.323        1106.750
  24724422.775    24724421.7444   24724427.0104  129927731.977 5 101242399.96241
      3267.243        2545.917
  23797144.109    23797142.7774   23797146.3774  125054842.716 5  97445347.62742
     -1881.037       -1465.764
  22468968.365    22468968.4164   22468970.1794  118075239.654 6  92006704.29344
     -3044.773       -2372.551
  21119930.276    21119929.6684   21119931.6404  110986012.115 8  86482630.74646
     -2727.092       -2125.001
  23041357.091    23041355.8414   23041357.3704  121083165.155 6  94350536.94544
      2934.070        2286.292
  22511201.204    22511200.1724   22511201.4594  118297179.766 7  92179639.30344
      -174.266        -135.787
  24403169.025    24403168.2434   24403168.6694  128239524.780 5  99926928.46641
     -4382.020       -3414.541
  23762152.478    23762152.0634   23762157.9864  124870963.665 5  97302087.09841
     -2924.601       -2278.913
  21288584.456    21288584.0114   21288586.6784  111872283.822 8  87173234.50946
      -125.994         -98.174
  22625316.108    22625315.4964   22625318.2584  118896846.596 7  92646922.43044
      1690.077        1316.942
 08  4 18  3 38  0.0000000  0 13G 3G 6G 7G 8G10G13G16G19G21G23G24G25
                                G27
  20761067.990    20761067.4514   20761070.4664  109100125.616 8  85013146.22946
      1423.305        1109.073
  21138414.004    21138413.4684   21138416.5534  111083135.677 8  86558300.01546
     -1822.805       -1420.366
  21626652.974    21626652.7574   21626654.7834  113648843.815 7  88557567.93745
      1403.434        1093.583
  24705783.621    24705782.4544   24705786.3944  129829778.544 5 101166072.66441
      3262.880        2542.492
  23807939.074    23807937.6494   23807941.0234  125111568.910 5  97489549.89441
     -1900.712       -1481.081
  22486398.826    22486399.0694   22486401.1464  118166838.331 6  92078079.87444
     -3061.831       -2385.844
  21135537.565    21135536.8564   21135538.8914  111068029.282 8  86546540.21746
     -2740.740       -2135.637
  23024630.909    23024629.6244   23024630.5244  120995268.179 6  94282045.80144
      2925.640        2279.717
  22512250.373    22512250.1194   22512251.3734  118302696.841 6  92183938.32344
      -193.559        -150.829
  24428196.979    24428197.9284   24428195.4924  128371053.695 5 100029418.46141
     -4386.497       -3418.014
  23778889.869    23778890.1834   23778896.1394  124958924.275 5  97370627.70442
     -2939.554       -2290.535
  21289356.043    21289355.6564   21289358.1214  111876338.643 8  87176394.11746
      -144.370        -112.496
  22615701.521    22615700.7504   22615704.8224  118846324.409 7  92607554.53844
      1677.972        1307.507
 08  4 18  3 38 30.0000000  0 13G 3G 6G 7G 8G10G13G16G19G21G23G24G25
                                G27
  20752993.723    20752993.1464   20752996.3944  109057694.760 8  84980083.18246
      1405.424        1095.143
  21148868.190    21148867.9824   21148870.9614  111138074.186 8  86601109.26546
     -1839.739       -1433.561
  21618689.136    21618688.7414   21618690.5414  113606993.105 7  88524957.01845
      1386.577        1080.448
  24687167.812    24687167.4324   24687170.9624  129731956.848 4 101089847.98641
      3258.637        2539.204
  23818845.690    23818844.6544   23818848.0634  125168886.219 5  97534212.66241
     -1920.405       -1496.420
  22503926.805    22503926.6654   22503927.9214  118258944.967 6  92149851.29644
     -3078.607       -2398.912
  21151222.644    21151222.1224   21151224.2454  111150455.919 7  86610768.72846
     -2754.336       -2146.236
  23007952.619    23007951.4814   23007953.1984  120907623.499 6  94213751.24944
      2917.316        2273.234
  22513410.429    22513409.8274   22513411.1264  118308790.344 7  92188686.51144
      -212.727        -165.763
  24453252.618    24453252.2014   24453252.9074  128502716.957 5 100132012.98541
     -4390.919       -3421.498
  23795715.539    23795714.3274   23795719.2024  125047332.755 5  97439517.37842
     -2954.351       -2302.113
  21290232.586    21290232.1264   21290234.5604  111880944.344 8  87179982.96746
      -162.677        -126.762
  22606156.689    22606156.0354   22606159.4884  118796165.165 7  92568469.43844
      1665.929        1298.131
 08  4 18  3 39  0.0000000  0 13G 3G 6G 7G 8G10G13G16G19G21G23G24G25
                                G27
  20745021.446    20745021.0574   20745024.0704  109015800.596 8  84947438.31946
      1387.434        1081.117
  21159419.345    21159418.8744   21159421.9664  111193519.735 8  86644313.56346
     -1856.651       -1446.740
  21610821.805    21610821.3804   21610823.4254  113565649.157 7  88492740.96746
      1369.596        1067.212
  24668578.171    24668577.3284   24668580.3224  129634268.219 4 101013727.03841
      3253.978        2535.547
  23829864.229    23829864.0344   23829867.7114  125226791.405 5  97579333.58241
     -1940.023       -1511.707
  22521549.332    22521549.2324   22521551.1654  118351555.271 6  92222015.17044
     -3095.432       -2412.018
  21166985.396    21166984.6864   21166986.7854  111233289.043 8  86675314.00846
     -2767.917       -2156.827
  22991322.757    22991321.5134   22991322.6554  120820231.970 6  94145653.92444
      2908.746        2266.556
  22514678.820    22514678.4194   22514680.1624  118315459.823 7  92193883.50044
      -231.947        -180.737
  24478332.436    24478332.1684   24478332.3494  128634510.497 5 100234709.05041
     -4395.358       -3424.965
  23812623.811    23812623.0524   23812628.1734  125136185.439 5  97508753.23543
     -2969.201       -2313.662
  21291213.546    21291213.3004   21291215.8124  111886100.243 8  87184000.58146
      -181.084        -141.103
  22596680.729    22596680.4264   22596683.2874  118746369.507 7  92529667.61944
      1653.716        1288.614
 08  4 18  3 39 30.0000000  0 13G 3G 6G 7G 8G10G13G16G19G21G23G24G25
                                G27
  20737152.129    20737151.6194   20737154.8084  108974447.708 8  84915215.37646
      1369.425        1067.086
  21170067.006    21170066.5004   21170069.6744  111249473.515 8  86687913.89146
     -1873.566       -1459.928
  21603051.057    21603051.1384   21603053.0514  113524816.690 7  88460923.46846
      1352.546        1053.932
  24650015.402    24650014.7354   24650019.4054  129536717.270 4 100937713.36441
      3249.513        2532.053
  23840996.077    23840994.7964   23840998.1714  125285285.559 5  97624913.40841
     -1959.566       -1526.925
  22539268.614    22539268.2374   22539270.3924  118444669.300 6  92294571.55643
     -3112.183       -2425.082
  21182825.579    21182824.9414   21182826.9194  111316529.568 8  86740176.67946
     -2781.454       -2167.369
  22974742.386    22974741.2104   22974741.9334  120733097.885 6  94077757.24744
      2900.154        2259.868
  22516058.699    22516057.9234   22516059.7204  118322707.940 6  92199531.38944
      -251.204        -195.739
  24503436.691    24503435.1174   24503436.9874  128766433.907 5 100337506.34441
     -4399.592       -3428.251
  23829616.207    23829616.0944   23829620.3704  125225482.099 5  97578335.05543
     -2983.923       -2325.140
  21292300.121    21292299.6564   21292302.1254  111891809.339 8  87188449.24846
      -199.540        -155.486
  22587274.904    22587274.1464   22587278.1684  118696941.555 7  92491152.29044
      1641.490        1279.079
 08  4 18  3 40  0.0000000  0 13G 3G 6G 7G 8G10G13G16G19G21G23G24G25
                                G27
  20729385.959    20729385.4284   20729388.5274  108933635.832 8  84883413.99146
      1351.376        1053.021
  21180810.998    21180810.3094   21180813.4004  111305932.600 8  86731908.02946
     -1890.361       -1473.010
  21595378.585    21595378.4034   21595380.0134  113484495.587 7  88429504.45446
      1335.487        1040.638
  24631477.934    24631477.1644   24631481.0754  129439304.886 4 100861807.67641
      3244.731        2528.360
  23852238.196    23852236.6524   23852241.5574  125344365.117 5  97670949.39741
     -1979.004       -1542.078
  22557082.437    22557082.1164   22557084.1784  118538282.415 6  92367516.84943
     -3128.698       -2437.947
  21198742.666    21198742.1074   21198744.0874  111400174.249 8  86805354.29646
     -2794.847       -2177.799
  22958209.441    22958208.3234   22958209.6694  120646221.932 6  94010061.73744
      2891.519        2253.121
  22517547.591    22517546.9744   22517548.8094  118330533.046 6  92205628.87744
      -270.497        -210.776
  24528563.897    24528563.8394   24528566.0984  128898481.968 5 100440400.93842
     -4403.651       -3431.402
  23846692.549    23846692.2954   23846696.3004  125315218.755 6  97648259.68343
     -2998.538       -2336.508
  21293491.372    21293491.0964   21293493.4354  111898070.404 8  87193328.04546
      -217.902        -169.797
  22577939.616    22577938.7104   22577942.3344  118647881.419 6  92452923.59444
      1629.203        1269.513
 08  4 18  3 40 30.0000000  0 13G 3G 6G 7G 8G10G13G16G19G21G23G24G25
                                G27
  20721723.084    20721722.5944   20721725.6084  108893367.464 8  84852036.07446
      1333.268        1038.906
  21191650.522    21191650.2504   21191653.2094  111362896.052 8  86776295.05946
     -1907.124       -1486.062
  21587803.379    21587803.2924   21587805.1354  113444688.794 8  88398486.14446
      1318.344        1027.277
  24612968.647    24612967.5284   24612970.7124  129342033.655 5 100786011.94941
      3239.991        2524.673
  23863591.728    23863591.4294   23863594.3784  125404028.872 5  97717440.64041
     -1998.466       -1557.238
  22574991.034    22574990.5114   22574992.8314  118632392.963 6  92440849.77943
     -3145.211       -2450.822
  21214736.671    21214736.0214   21214737.8914  111484222.440 8  86870846.38546
     -2808.267       -2188.259
  22941727.130    22941726.0744   22941727.3344  120559606.878 6  93942569.48444
      2882.817        2246.345
  22519146.714    22519146.2114   22519148.2004  118338936.862 7  92212177.29044
      -289.731        -225.765
  24553716.038    24553715.4074   24553715.9994  129030652.767 5 100543391.08441
     -4407.716       -3434.583
  23863852.716    23863851.7824   23863855.5834  125405394.030 5  97718526.11542
     -3013.043       -2347.823
  21294788.250    21294787.8794   21294790.2124  111904884.685 8  87198637.89146
      -236.316        -184.142
  22568674.031    22568673.2724   22568676.1104  118599192.060 7  92414983.80344
      1616.815        1259.856
 08  4 18  3 41  0.0000000  0 13G 3G 6G 7G 8G10G13G16G19G21G23G24G25
                                G27
  20714163.968    20714163.3314   20714166.2984  108853643.474 8  84821082.31046
      1315.053        1024.716
  21202586.089    21202585.7864   21202588.8434  111420362.598 8  86821074.16746
     -1923.946       -1499.187
  21580326.899    21580326.8094   21580328.4154  113405398.098 7  88367869.99946
      1301.078        1013.828
  24594485.548    24594484.4924   24594489.0164  129244906.318 5 100710328.30541
      3235.046        2520.807
  23875057.220    23875055.7904   23875059.1914  125464275.378 5  97764385.96441
     -2017.929       -1572.410
  22592993.958    22592993.7054   22592996.0864  118726997.895 6  92514567.90344
     -3161.697       -2463.664
  21230807.012    21230806.2784   21230808.2864  111568672.445 8  86936651.60446
     -2821.656       -2198.693
  22925295.438    22925294.0484   22925294.8774  120473254.999 6  93875282.38444
      2874.006        2239.480
  22520855.889    22520855.4054   22520857.3084  118347919.576 7  92219176.75444
      -309.095        -240.854
  24578890.093    24578890.3694   24578890.0614  129162942.872 5 100646474.29942
     -4411.612       -3437.613
  23881093.633    23881093.4094   23881097.1684  125496005.573 5  97789132.54941
     -3027.642       -2359.186
  21296190.340    21296189.9144   21296192.3514  111912252.738 8  87204379.24346
      -254.835        -198.574
  22559479.866    22559479.2374   22559482.4814  118550875.092 7  92377334.23045
      1604.352        1250.140
 08  4 18  3 41 30.0000000  0 13G 3G 6G 7G 8G10G13G16G19G21G23G24G25
                                G27
  20706708.564    20706707.9984   20706711.0004  108814465.243 8  84790553.75746
      1296.832        1010.521
  21213617.267    21213616.8314   21213619.7054  111478330.952 8  86866244.37646
     -1940.590       -1512.145
  21572948.303    21572948.1754   21572950.2834  113366625.471 7  88337657.51846
      1283.754        1000.330
  24576030.297    24576030.5044   24576033.9404  129147925.039 5 100634758.50541
      3230.206        2517.046
  23886630.796    23886629.6014   23886634.1544  125525102.664 5  97811783.89441
     -2037.241       -1587.475
  22611090.287    22611090.0334   22611091.7254  118822094.011 6  92588668.75443
     -3178.018       -2476.372
  21246953.082    21246952.5204   21246954.6844  111653522.581 8  87002768.63846
     -2834.984       -2209.080
  22908913.032    22908912.2744   22908913.3624  120387168.117 6  93808201.63044
      2865.193        2232.630
  22522675.556    22522675.0614   22522676.8874  118357481.142 7  92226627.25644
      -328.340        -255.838
  24604085.161    24604084.7884   24604086.0824  129295349.507 5 100749648.13941
     -4415.438       -3440.573
  23898418.712    23898419.5964   23898424.0844  125587050.607 5  97860076.70241
     -3042.060       -2370.457
  21297697.714    21297697.3854   21297699.8274  111920174.920 8  87210552.38246
      -273.303        -212.967
  22550356.492    22550355.9284   22550359.0214  118502932.235 7  92339976.20045
      1591.843        1240.394
 08  4 18  3 42  0.0000000  0 13G 3G 6G 7G 8G10G13G16G19G21G23G24G25
                                G27
  20699357.200    20699356.7274   20699359.7324  108775833.867 8  84760451.37646
      1278.554         996.278
  21224743.214    21224742.8444   21224745.7444  111536798.884 8  86911803.84346
     -1957.249       -1525.129
  21565669.318    21565669.1464   21565670.8624  113328372.224 7  88307849.79846
      1266.403         986.807
  24557603.743    24557602.7904   24557606.5364  129051091.713 5 100559303.95441
      3225.240        2513.164
  23898315.282    23898314.8754   23898318.3014  125586508.442 5  97859632.55241
     -2056.461       -1602.454
  22629279.041    22629279.0644   22629280.8734  118917678.214 6  92663149.94443
     -3194.260       -2489.035
  21263175.452    21263174.7684   21263176.7714  111738770.483 8  87069195.57246
     -2848.227       -2219.396
  22892582.319    22892581.2644   22892582.3694  120301347.992 6  93741328.81844
      2856.137        2225.566
  22524604.977    22524604.7784   22524606.9214  118367621.926 6  92234529.11244
      -347.716        -270.940
  24629305.393    24629304.5994   24629300.0134  129427868.426 6 100852909.58641
     -4419.146       -3443.517
  23915827.882    23915826.8314   23915831.6594  125678526.261 5  97931356.36542
     -3056.342       -2381.560
  21299310.673    21299310.3964   21299312.7624  111928651.226 8  87217157.28946
      -291.814        -227.385
  22541304.382    22541303.5324   22541306.9304  118455364.764 7  92302910.64244
      1579.287        1230.612
 08  4 18  3 42 30.0000000  0 13G 3G 6G 7G 8G10G13G16G19G21G23G24G25
                                G27
  20692110.386    20692109.7304   20692112.8164  108737750.949 8  84730776.38046
      1260.314         982.059
  21235964.041    21235963.7394   21235966.6524  111595765.289 8  86957751.70546
     -1973.793       -1538.021
  21558489.029    21558489.0364   21558490.8284  113290640.618 8  88278448.57146
      1249.026         973.266
  24539205.166    24539205.4084   24539208.2054  128954408.915 5 100483966.65141
      3220.205        2509.244
  23910110.806    23910110.1734   23910114.9614  125648490.842 5  97907930.45041
     -2075.569       -1617.313
  22647559.841    22647560.2784   22647562.1634  119013747.946 6  92738009.47243
     -3210.368       -2501.581
  21279472.893    21279472.3024   21279474.4344  111824414.989 8  87135931.53346
     -2861.368       -2229.635
  22876302.476    22876301.3184   22876302.6764  120215796.898 6  93674665.70844
      2847.195        2218.585
  22526644.726    22526644.5774   22526646.7354  118378342.348 6  92242882.72644
      -366.959        -285.947
  24654540.805    24654541.7444   24654541.4784  129560497.275 5 100956256.73841
     -4422.621       -3446.224
  23933317.609    23933316.9214   23933320.3024  125770430.230 6  98002969.71742
     -3070.564       -2392.639
  21301029.603    21301029.0724   21301031.3014  111937682.205 8  87224194.35946
      -310.240        -241.751
  22532325.052    22532324.4684   22532327.2174  118408174.698 7  92266139.15945
      1566.739        1220.843
 08  4 18  3 43  0.0000000  0 13G 3G 6G 7G 8G10G13G16G19G21G23G24G25
                                G27
  20684967.891    20684967.3504   20684970.4594  108700217.331 8  84701529.38046
      1241.901         967.712
  21247279.615    21247279.0604   21247281.9514  111655227.974 8  87004086.26846
     -1990.408       -1550.971
  21551408.645    21551408.4584   21551410.3334  113253431.706 7  88249454.61546
      1231.541         959.644
  24520836.360    24520835.7664   24520838.7654  128857878.575 5 100408748.19541
      3214.984        2505.180
  23922014.771    23922014.2334   23922018.4474  125711047.995 5  97956676.17841
     -2094.785       -1632.316
  22665933.686    22665933.5834   22665935.6684  119110299.827 6  92813244.70843
     -3226.427       -2514.107
  21295845.542    21295844.9914   21295847.1494  111910453.680 8  87202974.65446
     -2874.555       -2239.917
  22860074.398    22860073.1924   22860074.1334  120130516.502 6  93608213.51144
      2838.064        2211.486
  22528795.897    22528795.0364   22528796.9794  118389641.802 7  92251687.53644
      -386.332        -301.047
  24679800.996    24679800.3334   24679801.4134  129693232.526 5 101059686.82241
     -4426.231       -3449.005
  23950886.460    23950886.3024   23950890.5084  125862759.332 6  98074914.36743
     -3084.740       -2403.684
  21302853.538    21302853.1284   21302855.5004  111947268.030 8  87231663.82246
      -328.823        -256.228
  22523416.211    22523415.5884   22523419.6394  118361363.230 7  92229662.67845
      1554.000        1210.909
 08  4 18  3 43 30.0000000  0 13G 3G 6G 7G 8G10G13G16G19G21G23G24G25
                                G27
  20677930.732    20677930.2344   20677933.4144  108663237.051 8  84672713.57446
      1223.387         953.280
  21258689.615    21258689.2304   21258692.1054  111715187.964 8  87050808.35146
     -2006.981       -1563.883
  21544428.289    21544428.0784   21544429.7314  113216750.042 7  88220871.47446
      1213.884         945.883
  24502497.071    24502496.6844   24502499.6434  128761505.673 5 100333652.44441
      3209.779        2501.120
  23934029.037    23934028.4894   23934033.0264  125774180.044 5  98005869.98141
     -2113.971       -1647.249
  22684397.899    22684397.9824   22684400.4624  119207333.337 6  92888855.25643
     -3242.466       -2526.600
  21312293.423    21312292.7624   21312294.9314  111996887.445 8  87270325.62046
     -2887.743       -2250.188
  22843898.159    22843897.0224   22843897.9704  120045511.012 6  93541975.49644
      2828.878        2204.320
  22531056.591    22531055.5834   22531057.4784  118401522.781 7  92260945.44844
      -405.780        -316.188
  24705078.167    24705077.8744   24705078.3914  129826073.332 5 101163199.16941
     -4429.782       -3451.767
  23968537.035    23968536.7254   23968540.4514  125955513.975 5  98147190.69642
     -3098.893       -2414.735
  21304783.590    21304783.3544   21304785.7454  111957411.275 8  87239567.64746
      -347.440        -270.736
  22514581.570    22514581.0834   22514584.1404  118314934.640 7  92193484.55045
      1541.177        1200.917
 08  4 18  3 44  0.0000000  0 13G 3G 6G 7G 8G10G13G16G19G21G23G24G25
                                G27
  20670999.473    20670998.6374   20671001.5774  108626811.094 8  84644329.69746
      1205.110         939.046
  21270193.884    21270193.5034   21270196.3474  111775643.523 8  87097916.57446
     -2023.244       -1576.554
  21537548.507    21537548.3474   21537550.2964  113180596.884 8  88192700.17746
      1196.431         932.277
  24484188.564    24484187.5004   24484191.5874  128665292.089 5 100258680.86741
      3204.717        2497.173
  23946152.504    23946150.6404   23946154.9324  125837884.994 5  98055510.21441
     -2132.817       -1661.911
  22702955.093    22702954.7284   22702956.4784  119304845.200 6  92964838.57143
     -3258.192       -2538.859
  21328815.998    21328815.3814   21328817.6634  112083714.506 8  87337983.02246
     -2900.632       -2260.241
  22827775.219    22827773.9664   22827775.0434  119960782.651 6  93475953.45744
      2819.808        2197.248
  22533428.295    22533427.5974   22533429.2644  118413985.499 7  92270656.67544
      -424.953        -331.134
  24730377.334    24730377.0424   24730377.1264  129959016.329 5 101266791.20141
     -4432.968       -3454.279
  23986267.843    23986267.2844   23986271.4924  126048691.242 5  98219796.33342
     -3112.788       -2425.556
  21306820.082    21306819.5734   21306821.9984  111968111.988 8  87247905.87946
      -365.824        -285.062
  22505819.701    22505819.2554   22505822.4934  118268890.428 7  92157605.93745
      1528.577        1191.096
 08  4 18  3 44 30.0000000  0 13G 3G 6G 7G 8G10G13G16G19G21G23G24G25
                                G27
  20664172.893    20664172.1874   20664175.2894  108590937.816 8  84616376.51446
      1186.590         924.615
  21281791.570    21281791.1874   21281794.1864  111836590.019 8  87145407.29946
     -2039.697       -1589.370
  21530769.124    21530769.1804   21530770.7234  113144970.960 7  88164939.70746
      1178.758         918.514
  24465909.782    24465908.8124   24465912.3724  128569237.219 5 100183832.94541
      3199.204        2492.885
  23958383.068    23958381.1014   23958385.8994  125902157.898 5  98105593.05641
     -2151.838       -1676.767
  22721599.762    22721599.6934   22721602.2984  119402829.693 6  93041190.14943
     -3273.938       -2551.128
  21345412.757    21345412.0964   21345414.1754  112170930.224 8  87405943.35146
     -2913.621       -2270.348
  22811703.801    22811702.9684   22811703.8904  119876330.142 6  93410146.31944
      2810.463        2189.978
  22535909.991    22535909.4684   22535910.7844  118427026.889 7  92280818.78944
      -444.358        -346.255
  24755693.625    24755693.6314   24755693.1184  130092055.189 5 101370457.82441
     -4436.113       -3456.682
  24004078.061    24004076.9444   24004081.9294  126142285.374 5  98292726.72841
     -3126.677       -2436.367
  21308961.869    21308961.3504   21308963.8604  111979367.740 8  87256676.60946
      -384.404        -299.535
  22497130.580    22497129.7344   22497133.4894  118223229.403 7  92122025.92645
      1515.682        1181.050
 08  4 18  3 45  0.0000000  0 13G 3G 6G 7G 8G10G13G16G19G21G23G24G25
                                G27
  20657451.584    20657451.0684   20657454.0234  108555617.871 8  84588854.52646
      1168.015         910.139
  21293482.419    21293481.8994   21293484.7804  111898025.367 8  87193279.00346
     -2056.098       -1602.152
  21524090.177    21524089.9864   21524092.0504  113109873.691 7  88137591.21146
      1161.014         904.686
  24447661.605    24447661.2974   24447664.8554  128473342.645 5 100109109.91942
      3193.745        2488.627
  23970720.999    23970719.2764   23970724.0274  125966996.059 5  98156116.33041
     -2170.754       -1691.489
  22740335.262    22740334.6614   22740337.6014  119501283.178 6  93117907.16043
     -3289.622       -2563.347
  21362082.826    21362082.1724   21362084.3514  112258532.189 8  87474204.60946
     -2926.575       -2280.442
  22795686.235    22795684.7324   22795686.2514  119792154.694 6  93344554.99044
      2801.107        2182.684
  22538501.599    22538501.0294   22538502.8954  118440646.782 7  92291431.69344
      -463.702        -361.323
  24781028.893    24781026.1254   24781030.5414  130225186.572 5 101474196.54541
     -4439.295       -3459.165
  24021968.244    24021967.5534   24021969.4544  126236293.523 5  98365979.78941
     -3140.527       -2447.148
  21311209.054    21311208.7714   21311211.2504  111991178.028 8  87265879.43746
      -403.011        -314.034
  22488515.235    22488514.8094   22488517.3314  118177952.509 7  92086745.18445
      1502.713        1170.946
 08  4 18  3 45 30.0000000  0 13G 3G 6G 7G 8G10G13G16G19G21G23G24G25
                                G27
  20650836.534    20650835.8714   20650838.7064  108520854.571 8  84561766.24646
      1149.503         895.713
  21305266.251    21305265.7024   21305268.8024  111959949.885 8  87241531.85946
     -2072.252       -1614.739
  21517513.060    21517512.9714   21517514.7564  113075308.900 8  88110657.61646
      1143.338         890.920
  24429444.900    24429444.2614   24429448.3094  128377613.151 5 100034515.49042
      3188.264        2484.344
  23983167.000    23983166.3084   23983169.7574  126032399.424 5  98207079.98042
     -2189.457       -1706.067
  22759159.626    22759159.2474   22759161.3744  119600205.025 6  93194989.13743
     -3305.103       -2575.399
  21378826.646    21378825.8554   21378828.0324  112346520.870 8  87542767.22746
     -2939.376       -2290.431
  22779721.373    22779720.5854   22779721.5884  119708261.422 6  93279183.68244
      2791.773        2175.404
  22541204.189    22541203.0404   22541204.6344  118454846.798 7  92302496.63444
      -482.957        -376.326
  24806381.225    24806380.4884   24806379.3634  130358408.907 5 101578005.88441
     -4442.193       -3461.445
  24039935.317    24039934.9594   24039938.4284  126330715.173 5  98439555.10342
     -3154.155       -2457.795
  21313562.646    21313562.2694   21313564.6314  112003545.289 8  87275516.31146
      -421.484        -328.432
  22479972.669    22479971.9454   22479975.5434  118133063.631 7  92051766.82345
      1489.857        1160.928
 08  4 18  3 46  0.0000000  0 13G 3G 6G 7G 8G10G13G16G19G21G23G24G25
                                G27
  20644327.227    20644326.5964   20644329.6214  108486648.662 8  84535112.33446
      1130.934         881.245
  21317142.749    21317142.3544   21317145.3604  112022361.931 8  87290164.62946
     -2088.433       -1627.348
  21511036.782    21511036.6794   21511038.9474  113041277.786 8  88084139.81846
      1125.513         877.029
  24411260.537    24411259.6534   24411263.4084  128282050.684 5  99960051.20141
      3182.666        2480.007
  23995720.490    23995719.0324   23995722.9864  126098365.726 5  98258482.35642
     -2208.249       -1720.731
  22778071.976    22778071.9544   22778073.9934  119699591.106 6  93272432.83443
     -3320.500       -2587.401
  21395643.381    21395642.8484   21395644.8904  112434894.453 8  87611629.82246
     -2952.095       -2300.328
  22763810.943    22763809.9694   22763810.9394  119624650.750 6  93214032.49844
      2782.315        2168.042
  22544016.557    22544015.5294   22544017.5014  118469627.384 6  92314013.98844
      -502.306        -391.402
  24831748.656    24831747.9314   24831746.8404  130491718.446 5 101681882.98841
     -4445.000       -3463.631
  24057981.995    24057981.7964   24057985.1014  126425547.359 5  98513450.31742
     -3167.854       -2468.470
  21316022.028    21316021.7374   21316024.0634  112016469.446 8  87285587.07246
      -440.034        -342.879
  22471504.794    22471504.1584   22471507.8374  118088564.376 7  92017092.09745
      1476.840        1150.782
 08  4 18  3 46 30.0000000  0 13G 3G 6G 7G 8G10G13G16G19G21G23G24G25
                                G27
  20637924.647    20637924.1034   20637927.2244  108453003.803 8  84508895.53346
      1112.178         866.636
  21329112.247    21329111.7754   21329115.0094  112085262.149 7  87339177.78446
     -2104.769       -1640.079
  21504663.244    21504663.4524   21504665.1144  113007784.503 8  88058041.13346
      1107.509         862.995
  24393107.209    24393106.5224   24393110.3304  128186659.617 5  99885720.51541
      3176.819        2475.433
  24008379.586    24008378.8044   24008382.2654  126164895.604 5  98310323.82542
     -2226.976       -1735.312
  22797072.751    22797072.7154   22797074.3014  119799441.218 6  93350238.12943
     -3336.022       -2599.490
  21412533.465    21412532.9644   21412535.1054  112523653.062 8  87680792.29446
     -2965.010       -2310.397
  22747955.056    22747954.1384   22747955.3384  119541327.657 6  93149105.37344
      2772.665        2160.526
  22546939.459    22546939.0704   22546940.6984  118484990.141 7  92325985.02144
      -521.802        -406.594
  24857131.573    24857131.6834   24857132.5744  130625115.938 5 101785828.91241
     -4447.896       -3465.876
  24076105.370    24076104.1904   24076108.9864  126520789.984 5  98587665.28241
     -3181.565       -2479.129
  21318587.957    21318587.4994   21318589.8654  112029953.111 8  87296093.83246
      -458.745        -357.466
  22463111.892    22463111.2494   22463113.9524  118044458.432 7  91982723.81745
      1463.675        1140.528
 08  4 18  3 47  0.0000000  0 13G 3G 6G 7G 8G10G13G16G19G21G23G24G25
                                G27
  20631628.834    20631628.2774   20631631.3814  108419918.609 8  84483114.85746
      1093.450         852.035
  21341173.865    21341173.3654   21341176.5294  112148646.128 8  87388567.89446
     -2120.912       -1652.658
  21498391.837    21498391.7724   21498394.0904  112974828.090 7  88032360.83846
      1089.502         848.963
  24374987.310    24374987.0174   24374992.3114  128091440.135 5  99811523.50841
      3171.022        2470.929
  24021146.667    24021145.7094   24021149.2294  126231983.691 5  98362600.24642
     -2245.514       -1749.744
  22816160.352    22816160.4594   22816163.0064  119899749.707 6  93428400.60043
     -3351.243       -2611.358
  21429496.463    21429495.7914   21429497.8754  112612792.804 8  87750251.81646
     -2977.719       -2320.311
  22732153.810    22732152.6064   22732153.8754  119458291.598 6  93084401.98344
      2762.991        2152.977
  22549973.660    22549972.9454   22549974.4984  118500932.616 7  92338407.72044
      -541.141        -421.668
  24882534.176    24882532.3244   24882533.2034  130758595.537 5 101889839.08741
     -4450.659       -3468.062
  24094306.833    24094306.6744   24094310.5674  126616437.793 5  98662195.94142
     -3194.980       -2489.590
  21321259.806    21321259.2354   21321261.7814  112043993.686 8  87307034.52846
      -477.349        -371.953
  22454793.496    22454792.6444   22454796.2044  118000744.809 7  91948661.23445
      1450.569        1130.318
 08  4 18  3 47 30.0000000  0 13G 3G 6G 7G 8G10G13G16G19G21G23G24G25
                                G27
  20625440.167    20625439.7104   20625442.7484  108387397.016 8  84457773.36246
      1074.702         837.424
  21353327.606    21353327.2024   21353330.4354  112212515.117 8  87438335.96446
     -2136.976       -1665.177
  21492223.660    21492223.6054   21492225.5364  112942413.127 7  88007102.40246
      1071.507         834.943
  24356902.559    24356901.4444   24356904.1854  127996397.278 5  99737464.15741
      3165.164        2466.363
  24034019.223    24034017.3874   24034021.8774  126299631.344 5  98415312.68741
     -2264.151       -1764.305
  22835336.085    22835336.2344   22835338.2024  120000516.402 6  93506920.08843
     -3366.441       -2623.200
  21446531.518    21446531.0864   21446533.2594  112702314.492 8  87820009.05146
     -2990.344       -2330.147
  22716407.903    22716406.8444   22716407.9504  119375547.095 6  93019925.80544
      2753.324        2145.445
  22553118.331    22553117.6124   22553119.3714  118517458.052 7  92351284.70744
      -560.533        -436.786
  24907948.805    24907950.1934   24907945.9354  130892155.428 4 101993911.59441
     -4453.302       -3470.123
  24112585.144    24112584.5014   24112589.2404  126712490.943 5  98737042.46942
     -3208.477       -2500.117
  21324038.134    21324037.7714   21324040.0644  112058594.564 8  87318411.87946
      -495.975        -386.475
  22446550.546    22446550.0974   22446553.6224  117957427.956 7  91914907.79645
      1437.302        1119.973
 08  4 18  3 48  0.0000000  0 13G 3G 6G 7G 8G10G13G16G19G21G23G24G25
                                G27
  20619359.127    20619358.5674   20619361.6054  108355440.395 8  84432872.08546
      1055.760         822.666
  21365573.560    21365573.2424   21365576.3524  112276867.802 7  87488480.91046
     -2153.172       -1677.798
  21486158.617    21486158.5284   21486160.6044  112910541.399 7  87982267.24046
      1053.271         820.728
  24338850.126    24338849.4864   24338853.7394  127901533.910 5  99663544.63541
      3159.067        2461.617
  24046998.658    24046998.1154   24047001.9534  126367836.627 5  98468459.59041
     -2282.787       -1778.798
  22854598.048    22854598.5924   22854600.3664  120101738.587 6  93585794.51143
     -3381.661       -2635.064
  21463639.483    21463638.8664   21463640.9204  112792216.854 8  87890062.87146
     -3003.090       -2340.077
  22700718.445    22700717.4404   22700718.5144  119293096.197 6  92955678.16644
      2743.363        2137.679
  22556373.718    22556373.2854   22556374.7414  118534566.398 7  92364615.87444
      -579.982        -451.938
  24933377.847    24933378.7514   24933379.0184  131025793.649 4 102098045.18941
     -4456.005       -3472.233
  24130940.307    24130939.8824   24130943.5544  126808947.014 5  98812202.91142
     -3221.964       -2510.621
  21326923.152    21326922.7834   21326925.1694  112073755.789 8  87330225.83046
      -514.752        -401.112
  22438383.188    22438382.6154   22438385.9334  117914510.169 7  91881465.36245
      1423.909        1109.541
 08  4 18  3 48 30.0000000  0 12G 3G 6G 7G 8G10G13G16G19G21G24G25G27
  20613386.225    20613385.6194   20613388.4464  108324051.901 8  84408413.46546
      1036.765         807.867
  21377911.942    21377911.2684   21377914.2284  112341704.157 8  87539002.71946
     -2169.260       -1690.330
  21480197.894    21480197.7244   21480199.8644  112879216.674 7  87957858.35846
      1034.980         806.487
  24320833.332    24320832.9914   24320836.3574  127806853.779 5  99589767.91942
      3152.879        2456.780
  24060083.020    24060083.5124   24060086.6294  126436599.107 5  98522040.71341
     -2301.400       -1793.303
  22873947.263    22873947.0134   22873948.4264  120203414.933 6  93665022.81143
     -3396.819       -2646.878
  21480819.643    21480818.9934   21480821.1354  112882499.324 8  87960412.88746
     -3015.787       -2349.959
  22685085.198    22685083.9674   22685085.3214  119210943.791 6  92891663.47644
      2733.395        2129.917
  22559740.682    22559739.9904   22559741.8494  118552259.848 7  92378403.02144
      -599.536        -467.177
  24149372.749    24149371.8384   24149375.0294  126905805.473 5  98887676.93342
     -3235.323       -2521.008
  21329915.192    21329914.8214   21329917.3214  112089479.554 8  87342478.11146
      -533.537        -415.750
  22430293.455    22430292.8064   22430295.8344  117871994.660 7  91848336.36345
      1410.437        1099.042
 08  4 18  3 49  0.0000000  0 12G 3G 6G 7G 8G10G13G16G19G21G24G25G27
  20607521.407    20607520.9814   20607523.9974  108293232.862 8  84384398.40246
      1017.809         793.097
  21390341.568    21390341.1104   21390343.9514  112407023.645 8  87589901.04946
     -2185.299       -1702.824
  21474341.301    21474341.2404   21474343.0104  112848441.559 7  87933877.76246
      1016.709         792.236
  24302851.378    24302850.9974   24302854.7764  127712360.107 5  99516136.51042
      3146.746        2452.027
  24073273.691    24073273.4284   24073277.1404  126505917.447 5  98576054.92541
     -2319.785       -1807.646
  22893381.037    22893380.6294   22893382.9634  120305543.327 6  93744603.38643
     -3411.731       -2658.503
  21498072.332    21498071.6124   21498073.7534  112973161.853 8  88031058.99946
     -3028.371       -2359.768
  22669509.417    22669508.1904   22669509.2964  119129091.618 7  92827882.49044
      2723.370        2122.109
  22563218.819    22563218.3184   22563220.2004  118570538.297 6  92392645.99844
      -618.968        -482.311
  24167880.369    24167880.5214   24167882.9484  127003064.301 6  98963462.97742
     -3248.539       -2531.314
  21333014.578    21333014.2584   21333016.6844  112105766.772 8  87355169.48146
      -552.252        -430.324
  22422279.610    22422279.0714   22422282.6504  117829883.924 7  91815522.82845
      1396.963        1088.537
 08  4 18  3 49 30.0000000  0 12G 3G 6G 7G 8G10G13G16G19G21G24G25G27
  20601765.344    20601764.6374   20601767.7634  108262982.616 8  84360826.76046
       998.851         778.320
  21402862.617    21402862.1094   21402864.9454  112472821.643 8  87641172.22046
     -2201.251       -1715.261
  21468589.407    21468589.1854   21468591.3404  112818214.280 7  87910324.05746
       998.394         777.970
  24284904.980    24284905.1124   24284908.5874  127618052.775 5  99442650.27041
      3140.469        2447.118
  24086570.293    24086569.4204   24086573.7724  126575786.948 5  98630498.66541
     -2338.193       -1821.984
  22912900.293    22912899.6174   22912902.2104  120408117.885 6  93824531.61943
     -3426.597       -2670.069
  21515395.959    21515395.5494   21515397.5694  113064199.824 7  88101997.65446
     -3040.853       -2369.492
  22653990.508    22653989.4074   22653990.2334  119047539.239 6  92764335.12444
      2713.439        2114.385
  22566807.877    22566807.3034   22566809.3644  118589399.532 6  92407343.09044
      -638.386        -497.434
  24186462.881    24186461.4204   24186466.9544  127100718.364 5  99039557.04942
     -3261.714       -2541.585
  21336220.643    21336220.3314   21336222.6414  112122614.688 8  87368297.71246
      -570.964        -444.906
  22414343.093    22414342.5074   22414345.4834  117788176.873 7  91783023.86145
      1383.431        1078.000
 08  4 18  3 50  0.0000000  0 12G 3G 6G 7G 8G10G13G16G19G21G24G25G27
  20596117.496    20596116.8944   20596119.9384  108233303.966 8  84337700.65446
       979.762         763.443
  21415474.612    21415474.1814   21415476.9014  112539098.830 8  87692816.80846
     -2217.174       -1727.666
  21462942.303    21462942.2644   21462943.8864  112788539.120 8  87887200.58546
       980.002         763.646
  24266994.037    24266994.2124   24266998.2754  127523936.228 5  99369312.77941
      3134.054        2442.148
  24099970.768    24099969.1414   24099973.1624  126646206.964 5  98685371.41041
     -2356.511       -1836.244
  22932504.306    22932504.4844   22932505.7044  120511137.457 6  93904806.60843
     -3441.350       -2681.567
  21532791.658    21532790.9224   21532793.0824  113155613.403 7  88173229.01646
     -3053.349       -2379.232
  22638529.237    22638528.2694   22638529.4314  118966290.652 6  92701024.29144
      2703.198        2106.383
  22570509.165    22570508.0474   22570509.5124  118608845.439 7  92422495.74644
      -657.893        -512.649
  24205120.865    24205120.6534   24205124.3584  127198767.225 5  99115958.72842
     -3274.852       -2551.844
  21339533.942    21339533.5294   21339535.8664  112140025.897 8  87381864.89046
      -589.733        -459.529
  22406484.074    22406483.6864   22406486.6794  117746877.460 7  91750842.52945
      1369.862        1067.429
 08  4 18  3 50 30.0000000  0 12G 3G 6G 7G 8G10G13G16G19G21G24G25G27
  20590578.808    20590578.2054   20590581.2844  108204198.461 8  84315021.09546
       960.666         748.571
  21428177.641    21428177.0804   21428179.9144  112605853.369 8  87744833.32146
     -2233.046       -1740.037
  21457401.047    21457400.7094   21457402.5554  112759417.607 8  87864508.48946
       961.510         749.227
  24249121.766    24249121.1584   24249125.8334  127430012.880 5  99296125.78341
      3127.616        2437.107
  24113475.981    24113475.3434   24113477.5374  126717176.340 5  98740672.22941
     -2374.693       -1850.406
  22952192.673    22952192.6434   22952193.9544  120614599.458 6  93985426.36743
     -3456.028       -2693.001
  21550258.244    21550257.5244   21550259.6684  113247401.170 7  88244751.97846
     -3065.760       -2388.906
  22623126.728    22623125.4324   22623126.7714  118885349.355 6  92637953.47144
      2692.972        2098.413
  22574319.994    22574319.5194   22574321.4394  118628876.094 7  92438104.05244
      -677.414        -527.854
  24223852.608    24223852.4074   24223857.4984  127297208.418 4  99192665.96641
     -3287.873       -2561.949
  21342954.482    21342954.0224   21342956.2844  112158000.430 8  87395871.01246
      -608.506        -474.162
  22398702.504    22398701.9124   22398705.8164  117705987.350 7  91718980.16945
      1356.201        1056.773
 08  4 18  3 51  0.0000000  0 12G 3G 6G 7G 8G10G13G16G19G21G24G25G27
  20585149.399    20585148.7544   20585151.8394  108175666.915 8  84292788.78046
       941.446         733.595
  21440971.013    21440970.6514   21440973.5014  112673083.757 8  87797220.58346
     -2248.948       -1752.425
  21451964.773    21451964.6804   21451966.4814  112730851.566 8  87842249.29146
       942.884         734.701
  24231286.371    24231286.1724   24231289.3284  127336285.498 5  99223091.47541
      3120.910        2431.881
  24127084.637    24127083.5974   24127088.2354  126788692.444 5  98796399.05541
     -2392.942       -1864.652
  22971964.377    22971964.0774   22971965.3274  120718500.818 6  94066388.48143
     -3470.684       -2704.431
  21567795.694    21567795.0444   21567797.0764  113339561.313 8  88316565.10946
     -3078.223       -2398.612
  22607782.642    22607781.5214   22607782.4594  118804716.194 6  92575122.61144
      2682.575        2090.316
  22578243.655    22578242.8104   22578244.1074  118649491.768 7  92454168.18544
      -696.937        -543.067
  24242660.298    24242660.8484   24242664.9194  127396039.300 5  99269676.98941
     -3300.903       -2572.131
  21346482.038    21346481.7124   21346484.0664  112176538.521 8  87410316.26646
      -627.345        -488.838
  22391000.087    22390999.5024   22391002.3014  117665508.570 7  91687438.33345
      1342.408        1046.036
 08  4 18  3 51 30.0000000  0 12G 3G 6G 7G 8G10G13G16G19G21G24G25G27
  20579829.560    20579828.8304   20579831.8594  108147711.006 8  84271004.97946
       922.203         718.599
  21453854.939    21453854.4074   21453857.3624  112740789.304 7  87849978.18846
     -2264.813       -1764.796
  21446635.028    21446634.8634   21446636.4864  112702843.238 7  87820424.66346
       924.226         720.187
  24213488.786    24213487.8374   24213492.6814  127242757.608 5  99150212.58442
      3114.139        2426.619
  24140798.027    24140795.7314   24140800.8624  126860753.678 5  98852550.65441
     -2411.194       -1878.849
  22991818.856    22991819.2674   22991820.9224  120822839.523 6  94147691.39743
     -3485.265       -2715.790
  21585403.795    21585403.0664   21585405.2384  113432092.532 8  88388667.34146
     -3090.652       -2408.302
  22592497.440    22592496.6104   22592497.4374  118724393.805 7  92512533.79444
      2672.102        2082.154
  22582277.767    22582276.9454   22582278.6534  118670692.653 7  92470688.31244
      -716.505        -558.311
  24261541.310    24261540.2324   24261545.0484  127495258.144 5  99346990.45642
     -3313.871       -2582.236
  21350117.289    21350116.8444   21350119.0294  112195640.994 8  87425201.27946
      -646.223        -503.551
  22383375.674    22383375.1684   22383377.9824  117625443.231 7  91656218.62245
      1328.519        1035.207
 08  4 18  3 52  0.0000000  0 12G 3G 6G 7G 8G10G13G16G19G21G24G25G27
  20574619.552    20574618.8844   20574622.0654  108120332.468 8  84249671.04546
       902.974         703.617
  21466829.038    21466828.4664   21466831.5364  112808968.689 7  87903105.02146
     -2280.522       -1777.034
  21441411.704    21441411.6034   21441413.5344  112675394.881 8  87799036.33946
       905.569         705.637
  24195729.310    24195728.9294   24195733.5324  127149431.567 5  99077491.06642
      3107.345        2421.297
  24154613.225    24154612.9764   24154616.3034  126933358.913 5  98909126.16341
     -2429.163       -1892.866
  23011756.795    23011756.4724   23011757.9964  120927612.438 6  94229332.59843
     -3499.702       -2727.050
  21603082.362    21603081.7414   21603083.8724  113524994.319 7  88461058.33646
     -3102.873       -2417.822
  22577272.819    22577271.6834   22577272.1644  118644384.924 7  92450189.25545
      2661.697        2074.043
  22586423.881    22586422.8744   22586424.7224  118692479.173 7  92487664.83444
      -735.971        -573.481
  24280495.786    24280495.5484   24280497.7864  127594862.665 6  99424604.46242
     -3326.521       -2592.098
  21353859.716    21353859.3764   21353861.7044  112215308.483 8  87440526.59646
      -665.015        -518.195
  22375830.692    22375830.0744   22375833.5964  117585793.536 7  91625322.78745
      1314.712        1024.450
 08  4 18  3 52 30.0000000  0 12G 3G 6G 7G 8G10G13G16G19G21G24G25G27
  20569519.695    20569519.1544   20569522.2134  108093532.998 8  84228788.33147
       883.645         688.551
  21479893.009    21479892.5894   21479895.5784  112877620.654 7  87956600.05746
     -2296.278       -1789.309
  21436295.531    21436295.3084   21436296.9824  112648508.574 8  87778085.97646
       886.823         691.023
  24178009.239    24178008.1714   24178012.0494  127056310.537 5  99004929.26041
      3100.586        2416.033
  24168533.255    24168532.2344   24168535.2224  127006506.062 5  98966123.93741
     -2447.239       -1906.963
  23031776.472    23031776.3574   23031778.3504  121032817.233 6  94311310.35743
     -3513.974       -2738.167
  21620831.505    21620830.7204   21620832.8114  113618265.324 7  88533737.02146
     -3115.168       -2427.403
  22562107.250    22562106.1094   22562107.3124  118564692.121 6  92388091.00145
      2651.131        2065.815
  22590681.144    22590680.5834   22590682.2524  118714851.740 7  92505097.98944
      -755.461        -588.669
  24299522.346    24299521.4864   24299524.9774  127694850.844 5  99502517.36041
     -3339.320       -2602.076
  21357710.077    21357709.7514   21357712.0074  112235541.436 8  87456292.45246
      -683.837        -532.858
  22368365.452    22368364.5784   22368367.5994  117546561.633 7  91594752.45345
      1300.694        1013.522
 08  4 18  3 53  0.0000000  0 12G 3G 6G 7G 8G10G13G16G19G21G24G25G27
  20564530.437    20564529.9074   20564532.8844  108067313.975 8  84208357.93146
       864.261         673.449
  21493046.814    21493046.3134   21493049.3514  112946743.601 7  88010462.08046
     -2311.938       -1801.506
  21431286.381    21431286.2344   21431288.1934  112622185.929 7  87757574.87146
       867.986         676.351
  24160328.210    24160328.7814   24160331.7954  126963397.446 5  98932529.47042
      3093.628        2410.640
  24182555.827    24182554.5504   24182558.9284  127080192.778 6  99023542.09641
     -2465.223       -1920.928
  23051877.838    23051877.7494   23051879.9154  121138450.813 6  94393622.22043
     -3528.230       -2749.280
  21638650.057    21638649.4574   21638651.5434  113711903.785 7  88606701.99045
     -3127.398       -2436.927
  22547002.747    22547001.6424   22547002.6594  118485317.483 6  92326240.64845
      2640.469        2057.507
  22595050.172    22595049.4844   22595051.0154  118737810.202 6  92522987.66544
      -775.024        -603.909
  24318621.483    24318620.8854   24318625.5644  127795220.290 5  99580727.34241
     -3352.019       -2611.953
  21361668.110    21361667.6674   21361670.0014  112256339.943 8  87472498.91746
      -702.732        -547.579
  22360979.132    22360978.4854   22360981.3214  117507749.339 7  91564509.10645
      1286.749        1002.660
 08  4 18  3 53 30.0000000  0 12G 3G 6G 7G 8G10G13G16G19G21G24G25G27
  20559651.832    20559651.2504   20559654.2384  108041676.125 8  84188380.39546
       844.869         658.339
  21506289.822    21506289.3244   21506292.2334  113016335.880 7  88064689.84546
     -2327.582       -1813.700
  21426384.813    21426384.7614   21426386.3634  112596428.346 8  87737504.01346
       849.118         661.650
  24142687.700    24142686.9494   24142690.9874  126870694.718 5  98860293.62842
      3086.533        2405.091
  24196679.476    24196679.2614   24196682.2784  127154417.123 5  99081379.21541
     -2483.050       -1934.878
  23072060.767    23072060.5794   23072061.8904  121244510.111 6  94476265.80943
     -3542.405       -2760.317
  21656538.439    21656537.9484   21656540.1484  113805907.763 7  88679951.71846
     -3139.586       -2446.434
  22531959.309    22531958.0354   22531958.8564  118406262.996 6  92264639.80944
      2629.760        2049.167
  22599530.259    22599529.7414   22599531.2604  118761354.548 7  92541333.92444
      -794.586        -619.159
  24337793.244    24337792.0164   24337797.1114  127895968.028 4  99659232.07941
     -3364.587       -2621.758
  21365733.622    21365733.2734   21365735.7164  112277704.466 8  87489146.58046
      -721.599        -562.286
  22353674.136    22353673.4354   22353676.5064  117469358.363 7  91534594.06445
      1272.635         991.666
 08  4 18  3 54  0.0000000  0 12G 3G 6G 7G 8G10G13G16G19G21G24G25G27
  20554883.579    20554883.0614   20554886.1144  108016619.602 8  84168855.83246
       825.445         643.209
  21519621.495    21519621.1724   21519624.0534  113086394.661 7  88119281.06846
     -2343.167       -1825.846
  21421591.137    21421590.9564   21421592.8444  112571236.438 8  87717873.94746
       830.200         646.912
  24125087.082    24125086.8224   24125090.0134  126778203.807 5  98788222.80142
      3079.329        2399.477
  24210906.374    24210905.8074   24210908.9244  127229175.482 6  99139632.40441
     -2500.904       -1948.752
  23092323.016    23092322.8564   23092325.4014  121350991.046 6  94559237.92243
     -3556.428       -2771.234
  21674496.031    21674495.4434   21674497.7614  113900274.937 7  88753484.58146
     -3151.669       -2455.848
  22516976.706    22516975.4854   22516976.4624  118327529.737 7  92203289.22145
      2618.996        2040.779
  22604121.840    22604121.0494   22604122.7274  118785482.869 7  92560135.23744
      -814.126        -634.391
  24357036.513    24357036.0844   24357040.9954  127997090.540 5  99738028.71241
     -3377.079       -2631.487
  21369906.609    21369906.2714   21369908.6584  112299633.745 8  87506234.30046
      -740.467        -576.987
  22346448.391    22346447.7424   22346451.1504  117431389.577 7  91505008.07045
      1258.467         980.617
 08  4 18  3 54 30.0000000  0 12G 3G 6G 7G 8G10G13G16G19G21G24G25G27
  20550226.306    20550225.7944   20550228.6984  107992145.081 8  84149784.77747
       806.113         628.141
  21533041.850    21533041.2694   21533044.1264  113156918.375 7  88174234.60146
     -2358.508       -1837.803
  21416905.176    21416904.9744   21416906.8364  112546611.838 8  87698685.96746
       811.341         632.212
  24107527.959    24107526.6904   24107530.6634  126685926.723 5  98716318.58142
      3072.311        2394.019
  24225233.554    24225232.7434   24225236.4774  127304465.864 6  99198300.28941
     -2518.522       -1962.508
  23112665.168    23112665.5684   23112666.6884  121457890.502 6  94642536.18543
     -3570.264       -2782.013
  21692522.340    21692521.5204   21692523.8264  113995003.317 7  88827298.93146
     -3163.632       -2465.168
  22502055.976    22502054.7884   22502055.8104  118249119.748 7  92142190.52045
      2608.221        2032.383
  22608824.077    22608823.4734   22608825.4994  118810195.112 7  92579391.53244
      -833.496        -649.472
  24376350.465    24376350.3094   24376354.9914  128098585.345 6  99817115.56643
     -3389.324       -2641.039
  21374186.975    21374186.5424   21374189.0184  112322128.005 8  87523762.47546
      -759.247        -591.625
  22339303.812    22339303.3304   22339305.6964  117393844.061 7  91475751.80045
      1244.459         969.704
 08  4 18  3 55  0.0000000  0 12G 3G 6G 7G 8G10G13G16G19G21G24G25G27
  20545680.089    20545679.4584   20545682.3814  107968253.964 8  84131168.32047
       786.652         612.974
  21546550.140    21546549.6864   21546552.5014  113227905.376 7  88229549.07646
     -2373.932       -1849.813
  21412327.667    21412327.3574   21412329.2534  112522556.224 8  87679941.31946
       792.391         617.445
  24090009.405    24090008.5444   24090012.6084  126593866.569 5  98644583.39742
      3065.044        2388.328
  24239661.798    24239660.8534   24239664.9884  127380286.379 5  99257381.22341
     -2536.114       -1976.186
  23133086.981    23133087.0214   23133088.1054  121565205.648 6  94726158.34443
     -3584.031       -2792.755
  21710616.999    21710616.1954   21710618.3424  114090091.420 7  88901393.57946
     -3175.570       -2474.473
  22487196.702    22487195.6354   22487196.8504  118171034.923 6  92081345.15145
      2597.441        2023.980
  22613637.792    22613637.2664   22613639.4054  118835491.433 6  92599102.92544
      -852.932        -664.621
  24395736.045    24395733.9014   24395739.1084  128200450.122 5  99896490.76242
     -3401.542       -2650.546
  21378574.946    21378574.4594   21378576.9574  112345187.188 8  87541730.81346
      -778.028        -606.264
  22332240.326    22332239.6004   22332242.7114  117356723.792 7  91446826.89945
      1230.235         958.618
 08  4 18  3 55 30.0000000  0 12G 3G 6G 7G 8G10G13G16G19G21G24G25G27
  20541244.680    20541244.1224   20541247.0364  107944946.148 8  84113006.37846
       767.206         597.824
  21560146.312    21560145.8614   21560148.7304  113299353.493 7  88285222.92546
     -2389.250       -1861.755
  21407858.387    21407858.1454   21407860.0804  112499070.614 8  87661640.82446
       773.350         602.612
  24072532.348    24072531.4284   24072535.2214  126502024.717 5  98573018.32642
      3057.786        2382.680
  24254189.896    24254188.7684   24254193.4334  127456633.794 5  99316872.76441
     -2553.619       -1989.834
  23153586.548    23153586.0664   23153589.3594  121672932.770 6  94810101.51143
     -3597.727       -2803.426
  21728779.613    21728779.0574   21728781.0744  114185536.786 7  88975766.60246
     -3187.417       -2483.705
  22472400.206    22472398.9414   22472399.9344  118093276.780 7  92020754.33445
      2586.497        2015.446
  22618562.967    22618561.8654   22618563.5954  118861371.105 7  92619268.91344
      -872.373        -679.774
  24415188.703    24415188.1084   24415192.7014  128302681.335 5  99976151.43542
     -3413.887       -2660.152
  21383070.167    21383069.7244   21383072.2154  112368810.450 8  87560138.61646
      -796.842        -620.921
  22325257.000    22325256.5444   22325260.1934  117320029.756 7  91418234.13245
      1215.981         947.514
 08  4 18  3 56  0.0000000  0 12G 3G 6G 7G 8G10G13G16G19G21G24G25G27
  20536920.926    20536920.2784   20536923.1744  107922224.246 8  84095301.01447
       747.684         582.612
  21573829.869    21573829.6204   21573832.4124  113371261.875 8  88341255.39346
     -2404.579       -1873.709
  21403498.052    21403497.9604   21403499.5594  112476157.270 8  87643786.25646
       754.260         587.737
  24055098.107    24055097.1904   24055100.9264  126410405.345 6  98501626.61743
      3050.284        2376.851
  24268818.031    24268817.4304   24268821.9294  127533506.932 5  99376773.92241
     -2571.090       -2003.457
  23174164.383    23174163.8234   23174166.5894  121781070.048 6  94894364.33943
     -3611.333       -2814.025
  21747009.983    21747009.5554   21747011.5224  114281338.965 7  89050417.65746
     -3199.273       -2492.942
  22457666.125    22457664.9734   22457665.7784  118015848.659 7  91960420.69345
      2575.460        2006.855
  22623598.173    22623597.9324   22623599.8024  118887834.870 7  92639889.96144
      -891.784        -694.888
  24434711.447    24434711.0644   24434716.5594  128405277.489 4 100056096.47241
     -3425.668       -2669.363
  21387673.128    21387672.7064   21387675.1834  112392999.011 8  87578986.86546
      -815.651        -635.572
  22318356.442    22318355.8704   22318358.6384  117283765.048 7  91389975.94245
      1201.736         936.423
 08  4 18  3 56 30.0000000  0 12G 3G 6G 7G 8G10G13G16G19G21G24G25G27
  20532708.684    20532708.0754   20532710.9634  107900088.913 8  84078052.72646
       728.050         567.311
  21587600.846    21587600.3444   21587603.4394  113443628.810 7  88397645.27946
     -2419.854       -1885.599
  21399246.997    21399246.7724   21399248.8034  112453817.602 8  87626378.67646
       735.055         572.773
  24037705.527    24037705.6764   24037708.9924  126319010.607 5  98430409.92443
      3042.713        2370.947
  24283546.231    24283545.2714   24283549.0174  127610902.441 5  99437082.08241
     -2588.561       -2017.049
  23194819.336    23194819.5844   23194821.5494  121889613.286 6  94978943.44543
     -3624.846       -2824.557
  21765308.481    21765307.6334   21765309.5534  114377495.838 7  89125345.07946
     -3211.145       -2502.191
  22442994.886    22442993.7914   22442994.9224  117938752.090 7  91900345.47445
      2564.318        1998.167
  22628745.688    22628744.9134   22628746.8914  118914882.315 6  92660965.83444
      -911.314        -710.116
  24454303.197    24454302.4864   24454306.0814  128508236.193 4 100136323.89941
     -3437.935       -2678.911
  21392383.701    21392383.2294   21392385.5244  112417752.374 8  87598275.19546
      -834.525        -650.279
  22311537.467    22311536.7844   22311539.9264  117247930.384 7  91362052.79945
      1187.270         925.148
 08  4 18  3 57  0.0000000  0 12G 3G 6G 7G 8G10G13G16G19G21G24G25G27
  20528608.416    20528607.6974   20528610.4554  107878541.280 8  84061262.36647
       708.417         552.015
  21601458.745    21601458.2904   21601461.4654  113516452.917 7  88454391.32846
     -2435.126       -1897.502
  21395105.466    21395105.2704   21395106.9474  112432053.795 8  87609419.87846
       715.823         557.780
  24020356.705    24020356.8484   24020360.0964  126227843.850 6  98359370.90942
      3035.051        2364.962
  24298373.569    24298371.8524   24298376.2854  127688819.693 5  99497796.79341
     -2605.955       -2030.601
  23215551.775    23215551.5934   23215553.7234  121998560.775 6  95063837.50543
     -3638.318       -2835.045
  21783673.639    21783673.0254   21783675.0474  114474006.529 7  89200548.18745
     -3222.938       -2511.379
  22428387.669    22428386.7024   22428387.4694  117861990.003 7  91840530.85245
      2553.103        1989.428
  22634003.512    22634002.8364   22634004.4854  118942512.990 7  92682496.17744
      -930.771        -725.278
  24473966.184    24473965.7804   24473968.2904  128611554.870 5 100216831.97141
     -3449.873       -2688.227
  21397201.616    21397201.2214   21397203.6394  112443071.463 8  87618004.35646
      -853.397        -664.983
  22304800.400    22304799.9184   22304803.3954  117212528.522 7  91334466.94145
      1172.795         913.862
 08  4 18  3 57 30.0000000  0 12G 3G 6G 7G 8G10G13G16G19G21G24G25G27
  20524620.337    20524619.8374   20524622.6054  107857585.024 8  84044932.81247
       688.694         536.647
  21615404.073    21615403.5324   21615406.6314  113589735.094 8  88511494.32646
     -2450.339       -1909.353
  21391074.401    21391074.0884   21391075.9864  112410869.870 8  87592912.98746
       696.463         542.703
  24003053.637    24003052.7794   24003055.4924  126136910.003 6  98288513.36242
      3027.289        2358.944
  24313299.699    24313298.8324   24313302.6254  127767258.810 5  99558918.18141
     -2623.249       -2044.120
  23236359.697    23236360.1584   23236361.7184  122107911.537 6  95149045.90343
     -3651.692       -2845.491
  21802106.297    21802105.8374   21802108.0134  114570872.031 7  89276027.79745
     -3234.723       -2520.564
  22413844.547    22413843.5014   22413844.7884  117785566.540 7  91780980.10345
      2541.773        1980.605
  22639373.427    22639372.5854   22639374.2774  118970729.950 7  92704483.43944
      -950.326        -740.516
  24493695.269    24493695.0694   24493698.6124  128715233.820 5 100297620.81042
     -3461.958       -2697.616
  21402127.921    21402127.3654   21402129.7324  112468958.487 8  87638176.05346
      -872.354        -679.759
  22298147.271    22298146.6794   22298149.3924  117177563.708 7  91307221.66045
      1158.208         902.503
 08  4 18  3 58  0.0000000  0 12G 3G 6G 7G 8G10G13G16G19G21G24G25G27
  20520744.813    20520744.1834   20520747.1094  107837218.560 8  84029062.84047
       669.047         521.334
  21629435.447    21629434.9904   21629438.0664  113663470.879 7  88568950.77246
     -2465.396       -1921.088
  21387153.058    21387152.8964   21387154.8024  112390264.438 8  87576856.80946
       677.213         527.695
  23985793.000    23985792.9104   23985795.9954  126046209.191 6  98217837.47642
      3019.445        2352.809
  24328323.079    24328322.6164   24328327.5664  127846214.197 5  99620441.88941
     -2640.417       -2057.465
  23257244.946    23257245.2884   23257246.2744  122217660.038 6  95234564.23543
     -3664.892       -2855.763
  21820605.849    21820605.2934   21820607.5594  114668087.404 7  89351780.01645
     -3246.305       -2529.590
  22399366.172    22399364.9494   22399365.9954  117709481.070 7  91721692.73145
      2530.519        1971.825
  22644853.017    22644852.5734   22644854.6414  118999529.681 7  92726924.83644
      -969.661        -755.581
  24513492.581    24513492.0984   24513496.2714  128819267.355 6 100378685.87042
     -3473.591       -2706.709
  21407161.437    21407161.0854   21407163.3924  112495410.717 8  87658788.20846
      -891.139        -694.396
  22291575.894    22291575.4524   22291579.0624  117143034.594 7  91280315.85645
      1143.712         891.202
 08  4 18  3 58 30.0000000  0 12G 3G 6G 7G 8G10G13G16G19G21G24G25G27
  20516981.325    20516980.6474   20516983.5234  107817440.761 8  84013651.57247
       649.334         505.974
  21643552.785    21643552.2434   21643555.2484  113737656.763 7  88626757.95046
     -2480.470       -1932.834
  21383342.176    21383342.0464   21383343.9524  112370237.151 8  87561251.17446
       657.810         512.570
  23968578.083    23968577.3564   23968581.0424  125955742.018 6  98147343.57543
      3011.587        2346.688
  24343446.399    24343445.5544   24343449.8764  127925681.961 5  99682364.81041
     -2657.551       -2070.791
  23278204.537    23278204.5434   23278205.3324  122327801.282 6  95320388.63943
     -3677.986       -2865.960
  21839171.327    21839170.6614   21839172.9164  114765649.303 7  89427802.24445
     -3257.940       -2538.655
  22384951.812    22384950.7764   22384951.9604  117633733.812 7  91662668.86245
      2519.138        1962.968
  22650444.808    22650444.0024   22650445.1984  119028910.041 7  92749818.61144
      -989.138        -770.764
  24533356.625    24533355.7364   24533359.1704  128923651.623 5 100460024.33742
     -3485.420       -2715.911
  21412302.211    21412301.9004   21412304.2224  112522426.223 8  87679839.24946
      -910.014        -709.101
  22285088.562    22285088.0824   22285091.1324  117108940.906 7  91253749.36145
      1129.058         879.786
 08  4 18  3 59  0.0000000  0 12G 3G 6G 7G 8G10G13G16G19G21G24G25G27
  20513330.319    20513329.7904   20513332.5784  107798255.363 8  83998701.92647
       629.599         490.600
  21657755.812    21657755.2994   21657758.2474  113812293.872 7  88684916.71746
     -2495.396       -1944.465
  21379642.181    21379641.8344   21379643.4054  112350792.384 8  87546099.42346
       638.411         497.457
  23951408.281    23951407.3454   23951411.0824  125865514.028 6  98077036.07043
      3003.541        2340.416
  24358666.108    24358665.6984   24358669.9254  128005663.140 5  99744687.83041
     -2674.599       -2084.086
  23299238.138    23299238.5104   23299239.7694  122438335.029 6  95406518.81443
     -3691.001       -2876.100
  21857803.083    21857802.3814   21857804.3574  114863558.794 7  89504095.32645
     -3269.449       -2547.621
  22370603.163    22370601.8974   22370603.2234  117558329.916 7  91603912.58045
      2507.702        1954.052
  22656145.888    22656145.3524   22656147.5304  119058873.532 7  92773166.80544
     -1008.527        -785.866
  24553285.670    24553283.8784   24553289.6774  129028386.525 4 100541635.95141
     -3497.039       -2724.947
  21417551.014    21417550.5094   21417552.7914  112550007.813 8  87701331.40546
      -928.830        -723.767
  22278684.477    22278683.9324   22278687.0064  117075287.187 7  91227525.67745
      1114.430         868.391
 08  4 18  3 59 30.0000000  0 12G 3G 6G 7G 8G10G13G16G19G21G24G25G27
  20509792.029    20509791.5544   20509794.3114  107779661.697 8  83984213.36547
       609.864         475.217
  21672043.807    21672043.4354   21672046.5044  113887378.869 7  88743424.49945
     -2510.334       -1956.107
  21376052.556    21376052.3154   21376054.1414  112331930.176 8  87531401.60346
       618.971         482.311
  23934284.250    23934283.3074   23934286.9484  125775526.195 6  98006915.67842
      2995.542        2334.191
  24373982.716    24373982.4174   24373986.2884  128086152.400 5  99807406.67541
     -2691.434       -2097.213
  23320344.214    23320344.4244   23320347.2734  122549256.654 6  95492951.25542
     -3703.922       -2886.195
  21876500.219    21876499.5494   21876501.7044  114961813.103 7  89580657.09445
     -3280.928       -2556.570
  22356319.044    22356318.2334   22356319.4144  117483269.531 7  91545423.93145
      2496.208        1945.095
  22661958.932    22661957.9844   22661959.9404  119089417.883 7  92796967.59744
     -1027.879        -800.950
  24573281.537    24573280.0964   24573285.1534  129133467.712 4 100623517.33541
     -3508.476       -2733.861
  21422906.934    21422906.4694   21422908.7884  112578153.745 8  87723263.28946
      -947.654        -738.431
  22272363.960    22272363.4784   22272366.5334  117042073.569 7  91201644.94245
      1099.718         856.917
 08  4 18  4  0  0.0000000  0 12G 3G 6G 7G 8G10G13G16G19G21G24G25G27
  20506366.744    20506366.1804   20506369.0654  107761662.288 8  83970187.84847
       590.102         459.821
  21686417.183    21686416.8054   21686419.7654  113962911.359 7  88802280.99246
     -2525.159       -1967.660
  21372574.431    21372574.3714   21372575.9344  112313653.015 8  87517159.67346
       599.485         467.127
  23917206.326    23917205.4354   23917208.4284  125685782.424 6  97936985.43842
      2987.329        2327.783
  24389396.992    24389396.5574   24389399.3264  128167149.171 5  99870520.99241
     -2708.343       -2110.412
  23341527.119    23341526.2264   23341528.8064  122660564.199 6  95579684.43743
     -3716.650       -2896.101
  21895262.956    21895262.3434   21895264.3564  115060411.738 7  89657487.18145
     -3292.342       -2565.461
  22342102.242    22342100.7964   22342102.3334  117408556.215 7  91487205.76145
      2484.653        1936.101
  22667881.978    22667881.1934   22667882.6204  119120544.933 7  92821222.42844
     -1047.264        -816.051
  24593344.125    24593342.4724   24593346.5054  129238894.002 5 100705667.65441
     -3520.081       -2742.923
  21428370.583    21428370.1104   21428372.5724  112606865.351 8  87745635.94246
      -966.474        -753.096
  22266128.253    22266127.7674   22266130.6554  117009303.037 7  91176109.45545
      1084.983         845.441
 08  4 18  4  0 30.0000000  0 12G 3G 6G 7G 8G10G13G16G19G21G24G25G27
  20503054.352    20503053.7944   20503056.6814  107744254.716 8  83956623.51847
       570.416         444.476
  21700874.637    21700874.2874   21700877.2994  114038886.652 7  88861482.49245
     -2539.830       -1979.088
  21369207.452    21369207.2114   21369209.0494  112295959.084 8  87503372.18246
       580.095         452.023
  23900175.395    23900174.2894   23900177.2224  125596282.532 6  97867245.25442
      2979.310        2321.565
  24404905.104    24404904.2964   24404908.3734  128248648.482 5  99934026.91241
     -2724.981       -2123.381
  23362779.981    23362780.0444   23362781.3454  122772251.564 6  95666713.52143
     -3729.148       -2905.835
  21914090.294    21914089.6534   21914091.7164  115159349.856 7  89734581.78345
     -3303.508       -2574.162
  22327950.632    22327949.5864   22327950.8894  117334189.082 7  91429257.34945
      2473.155        1927.133
  22673915.780    22673914.8644   22673916.5594  119152250.429 6  92845927.92944
     -1066.456        -830.996
  24613470.241    24613469.5544   24613473.8854  129344659.847 5 100788082.64441
     -3531.102       -2751.526
  21433941.215    21433940.8054   21433943.2964  112636139.266 8  87768446.77546
      -985.125        -767.629
  22259976.011    22259975.3154   22259978.7414  116976974.295 7  91150918.23645
      1070.293         833.997
 08  4 18  4  1  0.0000000  0 12G 3G 6G 7G 8G10G13G16G19G21G24G25G27
  20499854.689    20499854.0554   20499856.8074  107727439.915 8  83943521.08947
       550.612         429.051
  21715416.448    21715416.0274   21715419.0184  114115303.264 7  88921027.84145
     -2554.544       -1990.551
  21365952.074    21365951.7304   21365953.4614  112278850.568 8  87490040.88446
       560.507         436.758
  23883191.474    23883190.1764   23883193.8094  125507029.382 6  97797697.34842
      2970.920        2315.008
  24420509.687    24420507.8474   24420513.3234  128330648.290 5  99997922.82641
     -2741.599       -2136.301
  23384105.516    23384105.3884   23384107.0564  122884316.044 6  95754036.57043
     -3741.702       -2915.607
  21932981.835    21932981.2434   21932983.2634  115258625.968 7  89811939.75245
     -3314.795       -2582.952
  22313865.209    22313864.1364   22313865.1934  117260170.279 7  91371580.37145
      2461.466        1918.026
  22680059.413    22680058.4784   22680059.8014  119184534.526 7  92871084.34244
     -1085.778        -846.060
  24633661.759    24633661.0644   24633665.8054  129450763.229 5 100870760.59741
     -3542.422       -2760.330
  21439618.981    21439618.6334   21439621.0354  112665975.912 8  87791696.11146
     -1003.895        -782.254
  22253908.933    22253908.3854   22253911.0524  116945089.188 7  91126072.66545
      1055.451         822.433
 08  4 18  4  1 30.0000000  0 12G 3G 6G 7G 8G10G13G16G19G21G24G25G27
  20496767.813    20496767.1314   20496769.9314  107711218.237 8  83930880.82147
       530.866         413.659
  21730041.363    21730040.9924   21730044.1524  114192159.045 7  88980915.44045
     -2569.116       -2001.913
  21362807.562    21362807.5344   21362809.1954  112262328.262 8  87477166.36746
       541.003         421.563
  23866253.936    23866253.3994   23866256.8674  125418025.186 6  97728343.44143
      2962.672        2308.562
  24436207.869    24436207.5594   24436211.0204  128413145.932 5 100062206.69341
     -2758.130       -2149.178
  23405501.859    23405501.4874   23405502.7504  122996754.066 6  95841650.62542
     -3754.064       -2925.248
  21951937.718    21951936.6914   21951938.9394  115358237.904 7  89889559.42445
     -3325.920       -2591.630
  22299846.087    22299845.2784   22299846.5804  117186501.633 7  91314176.20045
      2449.812        1908.945
  22686312.065    22686311.3814   22686313.4214  119217396.085 6  92896690.68444
     -1104.950        -861.003
  24653915.544    24653914.3314   24653919.1784  129557200.900 5 100953698.98441
     -3553.554       -2769.001
  21445403.526    21445403.1824   21445405.6374  112696374.471 8  87815383.31646
     -1022.590        -796.827
  22247925.548    22247925.2174   22247928.3354  116913648.927 7  91101573.74645
      1040.614         810.863
